Time,TemperatureF,DewpointF,PressureIn,WindDirection,WindDirectionDegrees,WindSpeedMPH,WindSpeedGustMPH,Humidity,HourlyPrecipIn,Conditions,Clouds,dailyrainin,SoftwareType,DateUTC
2013-01-14 00:00:00,57.4,55.4,27.28,East,92,0.0,0.0,93,0.10,,SKC,0.12,VWS V14.01,2013-01-14 05:00:00,
2013-01-14 00:01:00,57.4,55.4,27.28,East,92,0.0,0.0,93,0.10,,SKC,0.12,VWS V14.01,2013-01-14 05:01:00,
2013-01-14 00:02:00,57.4,55.4,27.28,East,91,1.0,2.0,93,0.09,,SKC,0.00,VWS V14.01,2013-01-14 05:02:00,
2013-01-14 00:03:00,57.4,55.4,27.28,East,92,0.0,1.0,93,0.09,,SKC,0.00,VWS V14.01,2013-01-14 05:03:00,
2013-01-14 00:04:00,57.3,55.3,27.28,East,91,1.0,1.0,93,0.09,,SKC,0.00,VWS V14.01,2013-01-14 05:04:00,
2013-01-14 00:05:00,57.3,55.3,27.28,East,91,0.0,2.0,93,0.09,,SKC,0.00,VWS V14.01,2013-01-14 05:05:00,
2013-01-14 00:06:00,57.3,55.3,27.28,East,92,0.0,1.0,93,0.09,,SKC,0.00,VWS V14.01,2013-01-14 05:06:00,
2013-01-14 00:07:00,57.3,55.3,27.28,East,92,1.0,1.0,93,0.09,,SKC,0.00,VWS V14.01,2013-01-14 05:07:00,
2013-01-14 00:08:00,57.3,55.3,27.28,East,92,0.0,1.0,93,0.08,,SKC,0.00,VWS V14.01,2013-01-14 05:08:00,
2013-01-14 00:09:00,57.3,55.3,27.28,East,91,1.0,1.0,93,0.08,,SKC,0.00,VWS V14.01,2013-01-14 05:09:00,
2013-01-14 00:10:00,57.3,55.3,27.28,East,92,0.0,0.0,93,0.08,,SKC,0.00,VWS V14.01,2013-01-14 05:10:00,
2013-01-14 00:11:00,57.4,55.4,27.28,East,91,0.0,0.0,93,0.08,,SKC,0.00,VWS V14.01,2013-01-14 05:11:00,
2013-01-14 00:12:00,57.3,55.3,27.28,East,92,0.0,1.0,93,0.09,,SKC,0.01,VWS V14.01,2013-01-14 05:12:00,
2013-01-14 00:13:00,57.3,55.3,27.28,East,92,0.0,0.0,93,0.08,,SKC,0.01,VWS V14.01,2013-01-14 05:13:00,
2013-01-14 00:14:00,57.3,55.3,27.28,East,91,0.0,0.0,93,0.08,,SKC,0.01,VWS V14.01,2013-01-14 05:14:00,
2013-01-14 00:15:00,57.3,55.3,27.28,East,92,0.0,0.0,93,0.08,,SKC,0.01,VWS V14.01,2013-01-14 05:15:00,
2013-01-14 00:16:00,57.3,55.3,27.28,East,92,0.0,0.0,93,0.08,,SKC,0.02,VWS V14.01,2013-01-14 05:16:00,
2013-01-14 00:17:00,57.3,55.3,27.28,East,91,0.0,0.0,93,0.08,,SKC,0.02,VWS V14.01,2013-01-14 05:17:00,
2013-01-14 00:18:00,57.3,55.3,27.28,East,91,0.0,0.0,93,0.08,,SKC,0.02,VWS V14.01,2013-01-14 05:18:00,
2013-01-14 00:19:00,57.3,55.3,27.28,East,92,0.0,0.0,93,0.08,,SKC,0.02,VWS V14.01,2013-01-14 05:19:00,
2013-01-14 00:20:00,57.3,55.3,27.28,East,92,0.0,0.0,93,0.08,,SKC,0.02,VWS V14.01,2013-01-14 05:20:00,
2013-01-14 00:21:00,57.3,55.3,27.28,East,92,0.0,0.0,93,0.08,,SKC,0.03,VWS V14.01,2013-01-14 05:21:00,
2013-01-14 00:22:00,57.3,55.3,27.28,East,91,0.0,0.0,93,0.08,,SKC,0.03,VWS V14.01,2013-01-14 05:22:00,
2013-01-14 00:23:00,57.3,55.3,27.28,East,91,0.0,0.0,93,0.08,,SKC,0.03,VWS V14.01,2013-01-14 05:23:00,
2013-01-14 00:24:00,57.3,55.3,27.28,East,91,0.0,0.0,93,0.08,,SKC,0.03,VWS V14.01,2013-01-14 05:24:00,
2013-01-14 00:25:00,57.3,55.3,27.28,East,92,0.0,0.0,93,0.08,,SKC,0.03,VWS V14.01,2013-01-14 05:25:00,
2013-01-14 00:26:00,57.3,55.3,27.28,East,92,0.0,0.0,93,0.08,,SKC,0.03,VWS V14.01,2013-01-14 05:26:00,
2013-01-14 00:27:00,57.3,55.3,27.28,East,92,0.0,0.0,93,0.09,,SKC,0.04,VWS V14.01,2013-01-14 05:27:00,
2013-01-14 00:28:00,57.3,55.3,27.28,East,92,0.0,0.0,93,0.09,,SKC,0.04,VWS V14.01,2013-01-14 05:28:00,
2013-01-14 00:29:00,57.3,55.3,27.28,East,91,0.0,1.0,93,0.09,,SKC,0.04,VWS V14.01,2013-01-14 05:29:00,
2013-01-14 00:30:00,57.3,55.3,27.28,East,92,1.0,1.0,93,0.09,,SKC,0.04,VWS V14.01,2013-01-14 05:30:00,
2013-01-14 00:31:00,57.3,55.3,27.28,East,92,0.0,0.0,93,0.09,,SKC,0.05,VWS V14.01,2013-01-14 05:31:00,
2013-01-14 00:32:00,57.3,55.3,27.28,East,92,0.0,0.0,93,0.09,,SKC,0.05,VWS V14.01,2013-01-14 05:32:00,
2013-01-14 00:33:00,57.3,55.3,27.28,East,92,0.0,1.0,93,0.10,,SKC,0.06,VWS V14.01,2013-01-14 05:33:00,
2013-01-14 00:34:00,57.3,55.3,27.28,East,92,0.0,0.0,93,0.10,,SKC,0.06,VWS V14.01,2013-01-14 05:34:00,
2013-01-14 00:35:00,57.3,55.3,27.28,East,91,0.0,0.0,93,0.10,,SKC,0.06,VWS V14.01,2013-01-14 05:35:00,
2013-01-14 00:36:00,57.3,55.6,27.28,East,91,0.0,0.0,94,0.10,,SKC,0.06,VWS V14.01,2013-01-14 05:36:00,
2013-01-14 00:37:00,57.3,55.6,27.28,East,92,0.0,0.0,94,0.11,,SKC,0.07,VWS V14.01,2013-01-14 05:37:00,
2013-01-14 00:38:00,57.3,55.6,27.28,East,92,0.0,1.0,94,0.11,,SKC,0.07,VWS V14.01,2013-01-14 05:38:00,
2013-01-14 00:39:00,57.3,55.6,27.28,East,92,0.0,1.0,94,0.11,,SKC,0.07,VWS V14.01,2013-01-14 05:39:00,
2013-01-14 00:40:00,57.3,55.6,27.28,East,92,0.0,1.0,94,0.11,,SKC,0.07,VWS V14.01,2013-01-14 05:40:00,
2013-01-14 00:41:00,57.3,55.6,27.28,East,92,2.0,4.0,94,0.12,,SKC,0.09,VWS V14.01,2013-01-14 05:41:00,
2013-01-14 00:42:00,57.3,55.6,27.28,NE,38,1.0,4.0,94,0.13,,SKC,0.10,VWS V14.01,2013-01-14 05:42:00,
2013-01-14 00:43:00,57.3,55.6,27.28,NE,38,1.0,1.0,94,0.13,,SKC,0.10,VWS V14.01,2013-01-14 05:43:00,
2013-01-14 00:44:00,57.3,55.6,27.28,NE,38,0.0,2.0,94,0.14,,SKC,0.11,VWS V14.01,2013-01-14 05:44:00,
2013-01-14 00:45:00,57.3,55.6,27.28,NE,38,2.0,2.0,94,0.14,,SKC,0.11,VWS V14.01,2013-01-14 05:45:00,
2013-01-14 00:46:00,57.4,55.7,27.28,NE,37,0.0,2.0,94,0.14,,SKC,0.12,VWS V14.01,2013-01-14 05:46:00,
2013-01-14 00:47:00,57.5,55.8,27.28,NE,38,0.0,1.0,94,0.14,,SKC,0.12,VWS V14.01,2013-01-14 05:47:00,
2013-01-14 00:48:00,57.5,55.8,27.28,NE,38,0.0,1.0,94,0.15,,SKC,0.13,VWS V14.01,2013-01-14 05:48:00,
2013-01-14 00:49:00,57.5,55.8,27.28,NE,38,2.0,2.0,94,0.15,,SKC,0.13,VWS V14.01,2013-01-14 05:49:00,
2013-01-14 00:50:00,57.5,55.8,27.28,NE,38,2.0,2.0,94,0.15,,SKC,0.13,VWS V14.01,2013-01-14 05:50:00,
2013-01-14 00:51:00,57.5,55.8,27.28,NE,38,1.0,3.0,94,0.15,,SKC,0.13,VWS V14.01,2013-01-14 05:51:00,
2013-01-14 00:52:00,57.5,55.8,27.28,NE,38,0.0,1.0,94,0.15,,SKC,0.13,VWS V14.01,2013-01-14 05:52:00,
2013-01-14 00:53:00,57.5,55.8,27.28,NE,38,0.0,0.0,94,0.14,,SKC,0.13,VWS V14.01,2013-01-14 05:53:00,
2013-01-14 00:54:00,57.5,55.8,27.28,NE,38,0.0,0.0,94,0.14,,SKC,0.13,VWS V14.01,2013-01-14 05:54:00,
2013-01-14 00:55:00,57.5,55.8,27.28,NE,38,0.0,0.0,94,0.14,,SKC,0.13,VWS V14.01,2013-01-14 05:55:00,
2013-01-14 00:56:00,57.5,55.8,27.28,NE,38,0.0,1.0,94,0.15,,SKC,0.14,VWS V14.01,2013-01-14 05:56:00,
2013-01-14 00:57:00,57.5,55.8,27.28,NE,38,2.0,2.0,94,0.15,,SKC,0.14,VWS V14.01,2013-01-14 05:57:00,
2013-01-14 00:58:00,57.5,55.8,27.28,NE,38,0.0,2.0,94,0.14,,SKC,0.14,VWS V14.01,2013-01-14 05:58:00,
2013-01-14 00:59:00,57.5,55.8,27.28,NE,38,0.0,1.0,94,0.14,,SKC,0.14,VWS V14.01,2013-01-14 05:59:00,
2013-01-14 01:00:00,57.5,55.8,27.28,NE,38,0.0,1.0,94,0.14,,SKC,0.14,VWS V14.01,2013-01-14 06:00:00,
2013-01-14 01:01:00,57.5,55.8,27.28,NE,38,0.0,0.0,94,0.14,,SKC,0.14,VWS V14.01,2013-01-14 06:01:00,
2013-01-14 01:02:00,57.5,55.8,27.28,NE,38,0.0,0.0,94,0.15,,SKC,0.15,VWS V14.01,2013-01-14 06:02:00,
2013-01-14 01:03:00,57.5,55.8,27.28,NE,37,0.0,1.0,94,0.15,,SKC,0.15,VWS V14.01,2013-01-14 06:03:00,
2013-01-14 01:04:00,57.5,55.8,27.28,NE,38,0.0,1.0,94,0.15,,SKC,0.15,VWS V14.01,2013-01-14 06:04:00,
2013-01-14 01:05:00,57.5,55.8,27.28,NE,38,1.0,1.0,94,0.15,,SKC,0.15,VWS V14.01,2013-01-14 06:05:00,
2013-01-14 01:06:00,57.5,55.8,27.28,NE,38,0.0,0.0,94,0.16,,SKC,0.16,VWS V14.01,2013-01-14 06:06:00,
2013-01-14 01:07:00,57.5,55.8,27.28,NE,38,0.0,0.0,94,0.16,,SKC,0.16,VWS V14.01,2013-01-14 06:07:00,
2013-01-14 01:08:00,57.4,55.7,27.28,NE,38,0.0,0.0,94,0.17,,SKC,0.17,VWS V14.01,2013-01-14 06:08:00,
2013-01-14 01:09:00,57.4,55.7,27.28,NE,38,0.0,0.0,94,0.17,,SKC,0.17,VWS V14.01,2013-01-14 06:09:00,
2013-01-14 01:10:00,57.4,55.7,27.28,NE,38,0.0,0.0,94,0.17,,SKC,0.17,VWS V14.01,2013-01-14 06:10:00,
2013-01-14 01:11:00,57.4,55.7,27.28,NE,38,0.0,0.0,94,0.17,,SKC,0.17,VWS V14.01,2013-01-14 06:11:00,
2013-01-14 01:12:00,57.4,55.7,27.28,NE,38,0.0,0.0,94,0.17,,SKC,0.17,VWS V14.01,2013-01-14 06:12:00,
2013-01-14 01:13:00,57.4,55.7,27.28,NE,38,0.0,0.0,94,0.17,,SKC,0.18,VWS V14.01,2013-01-14 06:13:00,
2013-01-14 01:14:00,57.4,55.7,27.28,NE,38,1.0,1.0,94,0.17,,SKC,0.18,VWS V14.01,2013-01-14 06:14:00,
2013-01-14 01:15:00,57.4,55.7,27.28,NE,38,0.0,0.0,94,0.17,,SKC,0.18,VWS V14.01,2013-01-14 06:15:00,
2013-01-14 01:16:00,57.4,55.7,27.28,NE,38,0.0,1.0,94,0.16,,SKC,0.18,VWS V14.01,2013-01-14 06:16:00,
2013-01-14 01:17:00,57.4,55.7,27.28,NE,38,0.0,0.0,94,0.16,,SKC,0.18,VWS V14.01,2013-01-14 06:17:00,
2013-01-14 01:18:00,57.3,55.6,27.28,NE,38,0.0,0.0,94,0.16,,SKC,0.18,VWS V14.01,2013-01-14 06:18:00,
2013-01-14 01:19:00,57.3,55.6,27.28,NE,38,0.0,0.0,94,0.16,,SKC,0.18,VWS V14.01,2013-01-14 06:19:00,
2013-01-14 01:20:00,57.4,55.7,27.28,NE,37,0.0,0.0,94,0.16,,SKC,0.18,VWS V14.01,2013-01-14 06:20:00,
2013-01-14 01:21:00,57.3,55.6,27.28,NE,38,0.0,1.0,94,0.16,,SKC,0.18,VWS V14.01,2013-01-14 06:21:00,
2013-01-14 01:22:00,57.3,55.6,27.28,NE,38,0.0,1.0,94,0.15,,SKC,0.18,VWS V14.01,2013-01-14 06:22:00,
2013-01-14 01:23:00,57.3,55.6,27.28,NE,38,0.0,0.0,94,0.15,,SKC,0.18,VWS V14.01,2013-01-14 06:23:00,
2013-01-14 01:24:00,57.3,55.6,27.28,NE,38,0.0,0.0,94,0.15,,SKC,0.18,VWS V14.01,2013-01-14 06:24:00,
2013-01-14 01:25:00,57.3,55.6,27.28,NE,38,0.0,0.0,94,0.15,,SKC,0.18,VWS V14.01,2013-01-14 06:25:00,
2013-01-14 01:26:00,57.3,55.6,27.28,NE,38,0.0,1.0,94,0.15,,SKC,0.18,VWS V14.01,2013-01-14 06:26:00,
2013-01-14 01:27:00,57.3,55.6,27.28,NE,38,0.0,0.0,94,0.15,,SKC,0.18,VWS V14.01,2013-01-14 06:27:00,
2013-01-14 01:28:00,57.3,55.6,27.28,NE,38,0.0,0.0,94,0.14,,SKC,0.18,VWS V14.01,2013-01-14 06:28:00,
2013-01-14 01:29:00,57.2,55.5,27.28,NE,38,0.0,0.0,94,0.15,,SKC,0.19,VWS V14.01,2013-01-14 06:29:00,
2013-01-14 01:30:00,57.3,55.6,27.28,NE,38,0.0,0.0,94,0.15,,SKC,0.19,VWS V14.01,2013-01-14 06:30:00,
2013-01-14 01:31:00,57.2,55.5,27.28,NE,38,0.0,0.0,94,0.15,,SKC,0.19,VWS V14.01,2013-01-14 06:31:00,
2013-01-14 01:32:00,57.2,55.5,27.28,NE,38,0.0,0.0,94,0.14,,SKC,0.19,VWS V14.01,2013-01-14 06:32:00,
2013-01-14 01:33:00,57.2,55.5,27.28,NE,38,0.0,1.0,94,0.14,,SKC,0.19,VWS V14.01,2013-01-14 06:33:00,
2013-01-14 01:34:00,57.3,55.6,27.28,NE,38,0.0,1.0,94,0.13,,SKC,0.19,VWS V14.01,2013-01-14 06:34:00,
2013-01-14 01:35:00,57.2,55.5,27.28,NE,38,0.0,1.0,94,0.13,,SKC,0.19,VWS V14.01,2013-01-14 06:35:00,
2013-01-14 01:36:00,57.3,55.6,27.28,NE,38,1.0,4.0,94,0.13,,SKC,0.19,VWS V14.01,2013-01-14 06:36:00,
2013-01-14 01:37:00,57.4,55.7,27.28,NE,38,1.0,1.0,94,0.13,,SKC,0.19,VWS V14.01,2013-01-14 06:37:00,
2013-01-14 01:38:00,57.5,55.8,27.28,NE,38,0.0,1.0,94,0.12,,SKC,0.19,VWS V14.01,2013-01-14 06:38:00,
2013-01-14 01:39:00,57.5,55.8,27.28,NE,38,0.0,0.0,94,0.12,,SKC,0.19,VWS V14.01,2013-01-14 06:39:00,
2013-01-14 01:40:00,57.5,55.8,27.28,NE,38,0.0,0.0,94,0.12,,SKC,0.19,VWS V14.01,2013-01-14 06:40:00,
2013-01-14 01:41:00,57.6,55.9,27.28,NE,38,0.0,0.0,94,0.11,,SKC,0.19,VWS V14.01,2013-01-14 06:41:00,
2013-01-14 01:42:00,57.6,55.9,27.28,NE,37,0.0,0.0,94,0.11,,SKC,0.20,VWS V14.01,2013-01-14 06:42:00,
2013-01-14 01:43:00,57.6,55.9,27.28,NE,37,0.0,1.0,94,0.10,,SKC,0.20,VWS V14.01,2013-01-14 06:43:00,
2013-01-14 01:44:00,57.6,55.9,27.28,NE,38,0.0,0.0,94,0.10,,SKC,0.20,VWS V14.01,2013-01-14 06:44:00,
2013-01-14 01:45:00,57.6,55.9,27.28,NE,38,0.0,0.0,94,0.10,,SKC,0.20,VWS V14.01,2013-01-14 06:45:00,
2013-01-14 01:46:00,57.6,55.9,27.28,NE,38,0.0,0.0,94,0.08,,SKC,0.20,VWS V14.01,2013-01-14 06:46:00,
2013-01-14 01:47:00,57.6,55.9,27.28,NE,38,1.0,2.0,94,0.08,,SKC,0.20,VWS V14.01,2013-01-14 06:47:00,
2013-01-14 01:48:00,57.7,56.0,27.28,NE,38,1.0,2.0,94,0.08,,SKC,0.20,VWS V14.01,2013-01-14 06:48:00,
2013-01-14 01:49:00,57.7,56.0,27.28,NE,38,0.0,2.0,94,0.07,,SKC,0.20,VWS V14.01,2013-01-14 06:49:00,
2013-01-14 01:50:00,57.7,56.0,27.28,NE,38,0.0,1.0,94,0.07,,SKC,0.20,VWS V14.01,2013-01-14 06:50:00,
2013-01-14 01:51:00,57.7,56.0,27.28,ESE,113,1.0,4.0,94,0.07,,SKC,0.20,VWS V14.01,2013-01-14 06:51:00,
2013-01-14 01:52:00,57.8,56.1,27.28,ESE,113,0.0,1.0,94,0.07,,SKC,0.20,VWS V14.01,2013-01-14 06:52:00,
2013-01-14 01:53:00,57.8,56.1,27.28,ESE,113,1.0,1.0,94,0.07,,SKC,0.20,VWS V14.01,2013-01-14 06:53:00,
2013-01-14 01:54:00,57.8,56.1,27.28,ESE,113,0.0,2.0,94,0.07,,SKC,0.20,VWS V14.01,2013-01-14 06:54:00,
2013-01-14 01:55:00,57.8,56.1,27.28,ESE,113,2.0,2.0,94,0.07,,SKC,0.20,VWS V14.01,2013-01-14 06:55:00,
2013-01-14 01:56:00,57.9,56.2,27.28,ESE,113,0.0,1.0,94,0.07,,SKC,0.20,VWS V14.01,2013-01-14 06:56:00,
2013-01-14 01:57:00,57.9,56.2,27.28,ESE,113,0.0,1.0,94,0.06,,SKC,0.20,VWS V14.01,2013-01-14 06:57:00,
2013-01-14 01:58:00,57.9,56.2,27.28,ESE,113,0.0,0.0,94,0.06,,SKC,0.20,VWS V14.01,2013-01-14 06:58:00,
2013-01-14 01:59:00,57.9,56.2,27.28,ESE,113,0.0,0.0,94,0.06,,SKC,0.20,VWS V14.01,2013-01-14 06:59:00,
2013-01-14 02:00:00,57.9,56.2,27.28,ESE,113,0.0,0.0,94,0.06,,SKC,0.20,VWS V14.01,2013-01-14 07:00:00,
2013-01-14 02:01:00,57.9,56.2,27.28,ESE,113,0.0,0.0,94,0.06,,SKC,0.20,VWS V14.01,2013-01-14 07:01:00,
2013-01-14 02:02:00,57.9,56.2,27.28,ESE,113,0.0,0.0,94,0.06,,SKC,0.20,VWS V14.01,2013-01-14 07:02:00,
2013-01-14 02:03:00,57.9,55.9,27.28,ESE,113,0.0,2.0,93,0.05,,SKC,0.20,VWS V14.01,2013-01-14 07:03:00,
2013-01-14 02:04:00,57.8,55.8,27.28,ESE,113,0.0,1.0,93,0.05,,SKC,0.20,VWS V14.01,2013-01-14 07:04:00,
2013-01-14 02:05:00,57.9,55.9,27.28,ESE,113,0.0,0.0,93,0.05,,SKC,0.20,VWS V14.01,2013-01-14 07:05:00,
2013-01-14 02:06:00,57.7,55.7,27.28,ESE,113,0.0,0.0,93,0.04,,SKC,0.20,VWS V14.01,2013-01-14 07:06:00,
2013-01-14 02:07:00,57.7,55.7,27.28,ESE,113,0.0,0.0,93,0.05,,SKC,0.21,VWS V14.01,2013-01-14 07:07:00,
2013-01-14 02:08:00,57.7,55.7,27.28,ESE,113,0.0,1.0,93,0.05,,SKC,0.21,VWS V14.01,2013-01-14 07:08:00,
2013-01-14 02:09:00,57.7,55.7,27.28,ESE,113,0.0,1.0,93,0.04,,SKC,0.21,VWS V14.01,2013-01-14 07:09:00,
2013-01-14 02:10:00,57.7,55.7,27.28,ESE,113,0.0,1.0,93,0.04,,SKC,0.21,VWS V14.01,2013-01-14 07:10:00,
2013-01-14 02:11:00,57.7,55.7,27.28,ESE,113,0.0,0.0,93,0.04,,SKC,0.21,VWS V14.01,2013-01-14 07:11:00,
2013-01-14 02:12:00,57.6,55.6,27.28,ESE,113,0.0,0.0,93,0.04,,SKC,0.21,VWS V14.01,2013-01-14 07:12:00,
2013-01-14 02:13:00,57.6,55.6,27.28,ESE,113,1.0,2.0,93,0.04,,SKC,0.21,VWS V14.01,2013-01-14 07:13:00,
2013-01-14 02:14:00,57.7,55.7,27.28,SSE,167,2.0,2.0,93,0.03,,SKC,0.21,VWS V14.01,2013-01-14 07:14:00,
2013-01-14 02:15:00,57.6,55.6,27.28,ESE,113,1.0,2.0,93,0.03,,SKC,0.21,VWS V14.01,2013-01-14 07:15:00,
2013-01-14 02:16:00,57.7,55.7,27.28,SSE,167,0.0,1.0,93,0.03,,SKC,0.21,VWS V14.01,2013-01-14 07:16:00,
2013-01-14 02:17:00,57.7,55.7,27.28,SSE,167,0.0,1.0,93,0.03,,SKC,0.21,VWS V14.01,2013-01-14 07:17:00,
2013-01-14 02:18:00,57.7,55.7,27.28,SSE,167,0.0,0.0,93,0.03,,SKC,0.21,VWS V14.01,2013-01-14 07:18:00,
2013-01-14 02:19:00,57.8,55.8,27.28,SSE,167,0.0,0.0,93,0.03,,SKC,0.21,VWS V14.01,2013-01-14 07:19:00,
2013-01-14 02:20:00,57.8,55.8,27.28,SSE,167,0.0,0.0,93,0.03,,SKC,0.21,VWS V14.01,2013-01-14 07:20:00,
2013-01-14 02:21:00,57.7,55.7,27.28,SSE,167,0.0,0.0,93,0.03,,SKC,0.21,VWS V14.01,2013-01-14 07:21:00,
2013-01-14 02:22:00,57.7,55.7,27.28,SSE,167,0.0,2.0,93,0.03,,SKC,0.21,VWS V14.01,2013-01-14 07:22:00,
2013-01-14 02:23:00,57.7,55.7,27.28,SSE,167,0.0,0.0,93,0.03,,SKC,0.21,VWS V14.01,2013-01-14 07:23:00,
2013-01-14 02:24:00,57.7,55.7,27.28,SSE,167,0.0,0.0,93,0.03,,SKC,0.21,VWS V14.01,2013-01-14 07:24:00,
2013-01-14 02:25:00,57.7,55.7,27.28,SSE,167,0.0,0.0,93,0.03,,SKC,0.21,VWS V14.01,2013-01-14 07:25:00,
2013-01-14 02:26:00,57.7,55.7,27.28,SSE,167,0.0,0.0,93,0.03,,SKC,0.21,VWS V14.01,2013-01-14 07:26:00,
2013-01-14 02:27:00,57.7,55.7,27.28,SSE,167,0.0,0.0,93,0.03,,SKC,0.21,VWS V14.01,2013-01-14 07:27:00,
2013-01-14 02:28:00,57.6,55.6,27.28,SSE,167,0.0,0.0,93,0.03,,SKC,0.21,VWS V14.01,2013-01-14 07:28:00,
2013-01-14 02:29:00,57.6,55.6,27.28,SSE,167,0.0,1.0,93,0.03,,SKC,0.21,VWS V14.01,2013-01-14 07:29:00,
2013-01-14 02:30:00,57.6,55.6,27.28,SSE,167,0.0,0.0,93,0.03,,SKC,0.21,VWS V14.01,2013-01-14 07:30:00,
2013-01-14 02:31:00,57.5,55.5,27.28,SSE,167,0.0,1.0,93,0.02,,SKC,0.21,VWS V14.01,2013-01-14 07:31:00,
2013-01-14 02:32:00,57.5,55.5,27.28,SSE,167,0.0,0.0,93,0.02,,SKC,0.21,VWS V14.01,2013-01-14 07:32:00,
2013-01-14 02:33:00,57.4,55.4,27.28,SSE,167,0.0,0.0,93,0.02,,SKC,0.21,VWS V14.01,2013-01-14 07:33:00,
2013-01-14 02:34:00,57.4,55.4,27.28,SSE,167,0.0,0.0,93,0.02,,SKC,0.21,VWS V14.01,2013-01-14 07:34:00,
2013-01-14 02:35:00,57.4,55.4,27.28,SSE,167,0.0,0.0,93,0.02,,SKC,0.21,VWS V14.01,2013-01-14 07:35:00,
2013-01-14 02:36:00,57.3,55.3,27.28,SSE,167,0.0,0.0,93,0.02,,SKC,0.21,VWS V14.01,2013-01-14 07:36:00,
2013-01-14 02:37:00,57.3,55.3,27.28,SSE,167,0.0,1.0,93,0.02,,SKC,0.21,VWS V14.01,2013-01-14 07:37:00,
2013-01-14 02:38:00,57.3,55.3,27.28,SSE,167,0.0,0.0,93,0.02,,SKC,0.21,VWS V14.01,2013-01-14 07:38:00,
2013-01-14 02:39:00,57.3,55.3,27.28,SSE,167,0.0,0.0,93,0.02,,SKC,0.21,VWS V14.01,2013-01-14 07:39:00,
2013-01-14 02:40:00,57.3,55.3,27.28,SSE,167,0.0,0.0,93,0.02,,SKC,0.21,VWS V14.01,2013-01-14 07:40:00,
2013-01-14 02:41:00,57.3,55.3,27.28,SSE,167,0.0,0.0,93,0.02,,SKC,0.21,VWS V14.01,2013-01-14 07:41:00,
2013-01-14 02:42:00,57.2,55.2,27.28,SSE,167,0.0,0.0,93,0.02,,SKC,0.21,VWS V14.01,2013-01-14 07:42:00,
2013-01-14 02:43:00,57.2,55.2,27.28,SSE,167,0.0,0.0,93,0.01,,SKC,0.21,VWS V14.01,2013-01-14 07:43:00,
2013-01-14 02:44:00,57.1,55.1,27.28,SSE,167,0.0,0.0,93,0.01,,SKC,0.21,VWS V14.01,2013-01-14 07:44:00,
2013-01-14 02:45:00,57.2,55.2,27.28,SSE,167,0.0,0.0,93,0.01,,SKC,0.21,VWS V14.01,2013-01-14 07:45:00,
2013-01-14 02:46:00,57.1,55.1,27.28,SSE,167,0.0,0.0,93,0.01,,SKC,0.21,VWS V14.01,2013-01-14 07:46:00,
2013-01-14 02:47:00,57.1,55.1,27.28,SSE,167,0.0,0.0,93,0.01,,SKC,0.21,VWS V14.01,2013-01-14 07:47:00,
2013-01-14 02:48:00,57.1,55.1,27.28,SSE,167,0.0,0.0,93,0.01,,SKC,0.21,VWS V14.01,2013-01-14 07:48:00,
2013-01-14 02:49:00,57.1,55.1,27.28,SSE,167,0.0,0.0,93,0.01,,SKC,0.21,VWS V14.01,2013-01-14 07:49:00,
2013-01-14 02:50:00,57.0,55.0,27.28,SSE,167,0.0,0.0,93,0.01,,SKC,0.21,VWS V14.01,2013-01-14 07:50:00,
2013-01-14 02:51:00,57.0,55.0,27.28,SSE,167,0.0,0.0,93,0.01,,SKC,0.21,VWS V14.01,2013-01-14 07:51:00,
2013-01-14 02:52:00,57.0,55.0,27.28,SSE,167,0.0,0.0,93,0.01,,SKC,0.21,VWS V14.01,2013-01-14 07:52:00,
2013-01-14 02:53:00,57.0,55.0,27.28,SSE,167,0.0,0.0,93,0.01,,SKC,0.21,VWS V14.01,2013-01-14 07:53:00,
2013-01-14 02:54:00,56.9,54.9,27.28,SSE,167,0.0,0.0,93,0.01,,SKC,0.21,VWS V14.01,2013-01-14 07:54:00,
2013-01-14 02:55:00,57.0,55.0,27.28,SSE,167,0.0,0.0,93,0.01,,SKC,0.21,VWS V14.01,2013-01-14 07:55:00,
2013-01-14 02:56:00,56.9,54.9,27.28,SSE,167,0.0,1.0,93,0.01,,SKC,0.21,VWS V14.01,2013-01-14 07:56:00,
2013-01-14 02:57:00,56.9,54.9,27.28,SSE,167,0.0,1.0,93,0.01,,SKC,0.21,VWS V14.01,2013-01-14 07:57:00,
2013-01-14 02:58:00,57.0,55.0,27.28,SSE,167,0.0,1.0,93,0.01,,SKC,0.21,VWS V14.01,2013-01-14 07:58:00,
2013-01-14 02:59:00,57.0,55.0,27.28,SSE,167,0.0,0.0,93,0.01,,SKC,0.21,VWS V14.01,2013-01-14 07:59:00,
2013-01-14 03:00:00,57.0,55.0,27.28,SSE,167,0.0,0.0,93,0.01,,SKC,0.21,VWS V14.01,2013-01-14 08:00:00,
2013-01-14 03:01:00,57.1,55.1,27.28,SSE,167,0.0,1.0,93,0.01,,SKC,0.21,VWS V14.01,2013-01-14 08:01:00,
2013-01-14 03:02:00,57.1,55.4,27.28,SSE,167,1.0,2.0,94,0.01,,SKC,0.21,VWS V14.01,2013-01-14 08:02:00,
2013-01-14 03:03:00,57.2,55.5,27.28,SSE,167,1.0,2.0,94,0.01,,SKC,0.21,VWS V14.01,2013-01-14 08:03:00,
2013-01-14 03:04:00,57.2,55.5,27.28,SSE,167,0.0,2.0,94,0.02,,SKC,0.22,VWS V14.01,2013-01-14 08:04:00,
2013-01-14 03:05:00,57.2,55.5,27.28,SSE,167,1.0,2.0,94,0.02,,SKC,0.22,VWS V14.01,2013-01-14 08:05:00,
2013-01-14 03:06:00,57.2,55.5,27.28,SSE,167,0.0,0.0,94,0.02,,SKC,0.22,VWS V14.01,2013-01-14 08:06:00,
2013-01-14 03:07:00,57.2,55.5,27.28,SSE,167,0.0,0.0,94,0.02,,SKC,0.22,VWS V14.01,2013-01-14 08:07:00,
2013-01-14 03:08:00,57.2,55.5,27.28,SSE,167,0.0,0.0,94,0.01,,SKC,0.22,VWS V14.01,2013-01-14 08:08:00,
2013-01-14 03:09:00,57.1,55.4,27.28,SSE,167,0.0,0.0,94,0.01,,SKC,0.22,VWS V14.01,2013-01-14 08:09:00,
2013-01-14 03:10:00,57.1,55.4,27.28,SSE,167,0.0,0.0,94,0.01,,SKC,0.22,VWS V14.01,2013-01-14 08:10:00,
2013-01-14 03:11:00,57.0,55.0,27.28,SSE,167,0.0,0.0,93,0.01,,SKC,0.22,VWS V14.01,2013-01-14 08:11:00,
2013-01-14 03:12:00,57.0,55.0,27.28,SSE,167,0.0,0.0,93,0.01,,SKC,0.22,VWS V14.01,2013-01-14 08:12:00,
2013-01-14 03:13:00,56.9,54.9,27.28,SSE,167,0.0,0.0,93,0.01,,SKC,0.22,VWS V14.01,2013-01-14 08:13:00,
2013-01-14 03:14:00,56.9,54.9,27.28,SSE,167,0.0,0.0,93,0.01,,SKC,0.22,VWS V14.01,2013-01-14 08:14:00,
2013-01-14 03:15:00,56.9,54.9,27.28,SSE,167,0.0,0.0,93,0.01,,SKC,0.22,VWS V14.01,2013-01-14 08:15:00,
2013-01-14 03:16:00,56.8,55.1,27.28,SSE,167,0.0,0.0,94,0.01,,SKC,0.22,VWS V14.01,2013-01-14 08:16:00,
2013-01-14 03:17:00,56.8,55.1,27.28,SSE,167,0.0,0.0,94,0.01,,SKC,0.22,VWS V14.01,2013-01-14 08:17:00,
2013-01-14 03:18:00,56.8,55.1,27.28,SSE,167,0.0,0.0,94,0.01,,SKC,0.22,VWS V14.01,2013-01-14 08:18:00,
2013-01-14 03:19:00,56.8,55.1,27.28,SSE,167,0.0,0.0,94,0.01,,SKC,0.22,VWS V14.01,2013-01-14 08:19:00,
2013-01-14 03:20:00,56.8,55.1,27.28,SSE,167,0.0,0.0,94,0.01,,SKC,0.22,VWS V14.01,2013-01-14 08:20:00,
2013-01-14 03:21:00,56.7,55.0,27.28,SSE,167,0.0,0.0,94,0.01,,SKC,0.22,VWS V14.01,2013-01-14 08:21:00,
2013-01-14 03:22:00,56.7,55.0,27.28,SSE,167,0.0,0.0,94,0.01,,SKC,0.22,VWS V14.01,2013-01-14 08:22:00,
2013-01-14 03:23:00,56.7,55.0,27.28,SSE,167,0.0,0.0,94,0.01,,SKC,0.22,VWS V14.01,2013-01-14 08:23:00,
2013-01-14 03:24:00,56.6,54.9,27.28,SSE,167,0.0,0.0,94,0.01,,SKC,0.22,VWS V14.01,2013-01-14 08:24:00,
2013-01-14 03:25:00,56.7,55.0,27.28,SSE,167,0.0,0.0,94,0.01,,SKC,0.22,VWS V14.01,2013-01-14 08:25:00,
2013-01-14 03:26:00,56.6,54.9,27.28,SSE,167,0.0,0.0,94,0.01,,SKC,0.22,VWS V14.01,2013-01-14 08:26:00,
2013-01-14 03:27:00,56.6,54.6,27.28,SSE,167,0.0,0.0,93,0.01,,SKC,0.22,VWS V14.01,2013-01-14 08:27:00,
2013-01-14 03:28:00,56.6,54.6,27.28,SSE,167,0.0,0.0,93,0.01,,SKC,0.22,VWS V14.01,2013-01-14 08:28:00,
2013-01-14 03:29:00,56.6,54.6,27.28,SSE,167,0.0,0.0,93,0.01,,SKC,0.22,VWS V14.01,2013-01-14 08:29:00,
2013-01-14 03:30:00,56.6,54.6,27.28,SSE,167,0.0,0.0,93,0.01,,SKC,0.22,VWS V14.01,2013-01-14 08:30:00,
2013-01-14 03:31:00,56.6,54.9,27.28,SSE,167,0.0,1.0,94,0.01,,SKC,0.22,VWS V14.01,2013-01-14 08:31:00,
2013-01-14 03:32:00,56.6,54.9,27.28,SSE,167,0.0,1.0,94,0.01,,SKC,0.22,VWS V14.01,2013-01-14 08:32:00,
2013-01-14 03:33:00,56.6,54.9,27.28,SSE,167,0.0,1.0,94,0.01,,SKC,0.22,VWS V14.01,2013-01-14 08:33:00,
2013-01-14 03:34:00,56.6,54.9,27.28,SSE,167,0.0,0.0,94,0.01,,SKC,0.22,VWS V14.01,2013-01-14 08:34:00,
2013-01-14 03:35:00,56.6,54.9,27.28,SSE,167,0.0,0.0,94,0.01,,SKC,0.22,VWS V14.01,2013-01-14 08:35:00,
2013-01-14 03:36:00,56.6,54.9,27.28,SSE,167,0.0,0.0,94,0.01,,SKC,0.22,VWS V14.01,2013-01-14 08:36:00,
2013-01-14 03:37:00,56.6,54.9,27.28,SSE,167,0.0,0.0,94,0.01,,SKC,0.22,VWS V14.01,2013-01-14 08:37:00,
2013-01-14 03:38:00,56.6,54.9,27.28,SSE,167,0.0,0.0,94,0.01,,SKC,0.22,VWS V14.01,2013-01-14 08:38:00,
2013-01-14 03:39:00,56.5,54.8,27.28,SSE,167,0.0,0.0,94,0.01,,SKC,0.22,VWS V14.01,2013-01-14 08:39:00,
2013-01-14 03:40:00,56.6,54.9,27.28,SSE,167,0.0,0.0,94,0.01,,SKC,0.22,VWS V14.01,2013-01-14 08:40:00,
2013-01-14 03:41:00,56.5,54.8,27.28,SSE,167,0.0,0.0,94,0.01,,SKC,0.22,VWS V14.01,2013-01-14 08:41:00,
2013-01-14 03:42:00,56.5,54.8,27.28,SSE,167,0.0,0.0,94,0.01,,SKC,0.22,VWS V14.01,2013-01-14 08:42:00,
2013-01-14 03:43:00,56.5,54.8,27.28,SSE,167,0.0,0.0,94,0.01,,SKC,0.22,VWS V14.01,2013-01-14 08:43:00,
2013-01-14 03:44:00,56.5,54.8,27.28,SSE,167,0.0,0.0,94,0.01,,SKC,0.22,VWS V14.01,2013-01-14 08:44:00,
2013-01-14 03:45:00,56.5,54.8,27.28,SSE,167,0.0,0.0,94,0.01,,SKC,0.22,VWS V14.01,2013-01-14 08:45:00,
2013-01-14 03:46:00,56.4,54.7,27.28,SSE,167,0.0,0.0,94,0.01,,SKC,0.22,VWS V14.01,2013-01-14 08:46:00,
2013-01-14 03:47:00,56.4,54.7,27.28,SSE,167,0.0,0.0,94,0.01,,SKC,0.22,VWS V14.01,2013-01-14 08:47:00,
2013-01-14 03:48:00,56.4,54.7,27.28,SSE,167,0.0,0.0,94,0.01,,SKC,0.22,VWS V14.01,2013-01-14 08:48:00,
2013-01-14 03:49:00,56.4,54.7,27.28,SSE,167,0.0,0.0,94,0.01,,SKC,0.22,VWS V14.01,2013-01-14 08:49:00,
2013-01-14 03:50:00,56.4,54.7,27.28,SSE,167,0.0,0.0,94,0.01,,SKC,0.22,VWS V14.01,2013-01-14 08:50:00,
2013-01-14 03:51:00,56.4,54.7,27.28,SSE,167,0.0,0.0,94,0.01,,SKC,0.22,VWS V14.01,2013-01-14 08:51:00,
2013-01-14 03:52:00,56.4,54.7,27.28,SSE,167,0.0,0.0,94,0.01,,SKC,0.22,VWS V14.01,2013-01-14 08:52:00,
2013-01-14 03:53:00,56.4,54.7,27.28,SSE,167,0.0,0.0,94,0.01,,SKC,0.22,VWS V14.01,2013-01-14 08:53:00,
2013-01-14 03:54:00,56.4,54.7,27.28,SSE,167,0.0,0.0,94,0.01,,SKC,0.22,VWS V14.01,2013-01-14 08:54:00,
2013-01-14 03:55:00,56.4,54.7,27.28,SSE,167,0.0,0.0,94,0.01,,SKC,0.22,VWS V14.01,2013-01-14 08:55:00,
2013-01-14 03:56:00,56.3,54.6,27.28,SSE,167,0.0,0.0,94,0.01,,SKC,0.22,VWS V14.01,2013-01-14 08:56:00,
2013-01-14 03:57:00,56.3,54.6,27.28,SSE,167,0.0,0.0,94,0.01,,SKC,0.22,VWS V14.01,2013-01-14 08:57:00,
2013-01-14 03:58:00,56.3,54.6,27.28,SSE,167,0.0,0.0,94,0.01,,SKC,0.22,VWS V14.01,2013-01-14 08:58:00,
2013-01-14 03:59:00,56.3,54.6,27.28,SSE,167,0.0,0.0,94,0.01,,SKC,0.22,VWS V14.01,2013-01-14 08:59:00,
2013-01-14 04:00:00,56.3,54.6,27.28,SSE,167,0.0,0.0,94,0.01,,SKC,0.22,VWS V14.01,2013-01-14 09:00:00,
2013-01-14 04:01:00,56.3,54.6,27.28,SSE,167,0.0,0.0,94,0.01,,SKC,0.22,VWS V14.01,2013-01-14 09:01:00,
2013-01-14 04:02:00,56.3,54.6,27.28,SSE,167,0.0,0.0,94,0.01,,SKC,0.22,VWS V14.01,2013-01-14 09:02:00,
2013-01-14 04:03:00,56.3,54.6,27.28,SSE,167,0.0,0.0,94,0.01,,SKC,0.22,VWS V14.01,2013-01-14 09:03:00,
2013-01-14 04:04:00,56.3,54.6,27.28,SSE,167,0.0,0.0,94,0.01,,SKC,0.22,VWS V14.01,2013-01-14 09:04:00,
2013-01-14 04:05:00,56.3,54.6,27.28,SSE,167,0.0,0.0,94,0.01,,SKC,0.22,VWS V14.01,2013-01-14 09:05:00,
2013-01-14 04:06:00,56.3,54.6,27.28,SSE,167,0.0,0.0,94,0.00,,SKC,0.22,VWS V14.01,2013-01-14 09:06:00,
2013-01-14 04:07:00,56.3,54.6,27.28,SSE,167,0.0,0.0,94,0.00,,SKC,0.22,VWS V14.01,2013-01-14 09:07:00,
2013-01-14 04:08:00,56.3,54.6,27.28,SSE,167,0.0,0.0,94,0.00,,SKC,0.22,VWS V14.01,2013-01-14 09:08:00,
2013-01-14 04:09:00,56.3,54.6,27.28,SSE,167,0.0,0.0,94,0.00,,SKC,0.22,VWS V14.01,2013-01-14 09:09:00,
2013-01-14 04:10:00,56.3,54.6,27.28,SSE,167,0.0,0.0,94,0.00,,SKC,0.22,VWS V14.01,2013-01-14 09:10:00,
2013-01-14 04:11:00,56.3,54.6,27.28,SSE,167,0.0,0.0,94,0.00,,SKC,0.22,VWS V14.01,2013-01-14 09:11:00,
2013-01-14 04:12:00,56.4,54.7,27.28,SSE,167,0.0,0.0,94,0.00,,SKC,0.22,VWS V14.01,2013-01-14 09:12:00,
2013-01-14 04:13:00,56.4,54.7,27.28,SSE,167,0.0,0.0,94,0.00,,SKC,0.22,VWS V14.01,2013-01-14 09:13:00,
2013-01-14 04:14:00,56.4,54.7,27.28,SSE,167,0.0,0.0,94,0.00,,SKC,0.22,VWS V14.01,2013-01-14 09:14:00,
2013-01-14 04:15:00,56.4,54.7,27.28,SSE,167,0.0,0.0,94,0.00,,SKC,0.22,VWS V14.01,2013-01-14 09:15:00,
2013-01-14 04:16:00,56.4,54.7,27.28,SSE,167,0.0,0.0,94,0.00,,SKC,0.22,VWS V14.01,2013-01-14 09:16:00,
2013-01-14 04:17:00,56.4,54.7,27.28,SSE,167,0.0,0.0,94,0.00,,SKC,0.22,VWS V14.01,2013-01-14 09:17:00,
2013-01-14 04:18:00,56.4,54.7,27.28,SSE,167,0.0,0.0,94,0.00,,SKC,0.22,VWS V14.01,2013-01-14 09:18:00,
2013-01-14 04:19:00,56.4,54.7,27.28,SSE,167,0.0,0.0,94,0.00,,SKC,0.22,VWS V14.01,2013-01-14 09:19:00,
2013-01-14 04:20:00,56.4,54.7,27.28,SSE,167,0.0,0.0,94,0.00,,SKC,0.22,VWS V14.01,2013-01-14 09:20:00,
2013-01-14 04:21:00,56.4,54.7,27.28,SSE,167,0.0,0.0,94,0.00,,SKC,0.22,VWS V14.01,2013-01-14 09:21:00,
2013-01-14 04:22:00,56.4,54.7,27.28,SSE,167,0.0,0.0,94,0.00,,SKC,0.22,VWS V14.01,2013-01-14 09:22:00,
2013-01-14 04:23:00,56.4,54.7,27.28,SSE,167,0.0,0.0,94,0.00,,SKC,0.22,VWS V14.01,2013-01-14 09:23:00,
2013-01-14 04:24:00,56.4,54.7,27.28,SSE,167,0.0,0.0,94,0.00,,SKC,0.22,VWS V14.01,2013-01-14 09:24:00,
2013-01-14 04:25:00,56.4,54.7,27.28,SSE,167,0.0,0.0,94,0.00,,SKC,0.22,VWS V14.01,2013-01-14 09:25:00,
2013-01-14 04:26:00,56.3,54.6,27.28,SSE,167,0.0,0.0,94,0.00,,SKC,0.22,VWS V14.01,2013-01-14 09:26:00,
2013-01-14 04:27:00,56.3,54.6,27.28,SSE,167,0.0,1.0,94,0.00,,SKC,0.22,VWS V14.01,2013-01-14 09:27:00,
2013-01-14 04:28:00,56.3,54.6,27.28,SSE,167,0.0,1.0,94,0.00,,SKC,0.22,VWS V14.01,2013-01-14 09:28:00,
2013-01-14 04:29:00,56.3,54.6,27.28,SSE,167,0.0,1.0,94,0.00,,SKC,0.22,VWS V14.01,2013-01-14 09:29:00,
2013-01-14 04:30:00,56.3,54.6,27.28,SSE,167,1.0,1.0,94,0.00,,SKC,0.22,VWS V14.01,2013-01-14 09:30:00,
2013-01-14 04:31:00,56.3,54.6,27.28,SSE,167,0.0,2.0,94,0.00,,SKC,0.22,VWS V14.01,2013-01-14 09:31:00,
2013-01-14 04:32:00,56.3,54.6,27.28,SSE,167,0.0,0.0,94,0.00,,SKC,0.22,VWS V14.01,2013-01-14 09:32:00,
2013-01-14 04:33:00,56.2,54.5,27.28,SSE,167,0.0,0.0,94,0.00,,SKC,0.22,VWS V14.01,2013-01-14 09:33:00,
2013-01-14 04:34:00,56.2,54.5,27.28,SSE,167,0.0,1.0,94,0.00,,SKC,0.22,VWS V14.01,2013-01-14 09:34:00,
2013-01-14 04:35:00,56.2,54.5,27.28,SSE,167,1.0,1.0,94,0.00,,SKC,0.22,VWS V14.01,2013-01-14 09:35:00,
2013-01-14 04:36:00,56.2,54.5,27.28,SSE,167,0.0,1.0,94,0.00,,SKC,0.22,VWS V14.01,2013-01-14 09:36:00,
2013-01-14 04:37:00,56.2,54.5,27.28,SSE,167,0.0,1.0,94,0.00,,SKC,0.22,VWS V14.01,2013-01-14 09:37:00,
2013-01-14 04:38:00,56.1,54.4,27.28,SSE,167,0.0,1.0,94,0.00,,SKC,0.22,VWS V14.01,2013-01-14 09:38:00,
2013-01-14 04:39:00,56.1,54.4,27.28,SSE,167,0.0,1.0,94,0.00,,SKC,0.22,VWS V14.01,2013-01-14 09:39:00,
2013-01-14 04:40:00,56.1,54.4,27.28,SSE,167,0.0,0.0,94,0.00,,SKC,0.22,VWS V14.01,2013-01-14 09:40:00,
2013-01-14 04:41:00,56.2,54.5,27.28,SSE,163,0.0,1.0,94,0.00,,SKC,0.22,VWS V14.01,2013-01-14 09:41:00,
2013-01-14 04:42:00,56.2,54.5,27.28,SSE,163,0.0,0.0,94,0.00,,SKC,0.22,VWS V14.01,2013-01-14 09:42:00,
2013-01-14 04:43:00,56.2,54.5,27.28,SSE,163,0.0,0.0,94,0.00,,SKC,0.22,VWS V14.01,2013-01-14 09:43:00,
2013-01-14 04:44:00,56.2,54.5,27.28,SSE,163,0.0,0.0,94,0.00,,SKC,0.22,VWS V14.01,2013-01-14 09:44:00,
2013-01-14 04:45:00,56.2,54.5,27.28,SSE,163,0.0,0.0,94,0.00,,SKC,0.22,VWS V14.01,2013-01-14 09:45:00,
2013-01-14 04:46:00,56.2,54.5,27.28,SSE,163,0.0,1.0,94,0.00,,SKC,0.22,VWS V14.01,2013-01-14 09:46:00,
2013-01-14 04:47:00,56.2,54.5,27.28,SSE,163,0.0,0.0,94,0.00,,SKC,0.22,VWS V14.01,2013-01-14 09:47:00,
2013-01-14 04:48:00,51.4,50.0,27.28,ENE,71,0.0,0.0,95,0.00,,SKC,2.32,VWS V14.01,2013-01-14 09:48:00,
2013-01-14 04:49:00,51.4,50.0,27.28,ENE,71,2.0,2.0,95,0.15,,SKC,2.32,VWS V14.01,2013-01-14 09:49:00,
2013-01-14 04:50:00,56.2,54.5,27.28,SSE,163,0.0,0.0,94,0.00,,SKC,0.22,VWS V14.01,2013-01-14 09:50:00,
2013-01-14 04:51:00,51.4,50.0,27.28,ENE,68,0.0,3.0,95,0.16,,SKC,2.33,VWS V14.01,2013-01-14 09:51:00,
2013-01-14 04:52:00,51.4,50.0,27.28,ENE,68,0.0,3.0,95,0.16,,SKC,2.33,VWS V14.01,2013-01-14 09:52:00,
2013-01-14 04:53:00,51.4,50.0,27.28,ENE,68,0.0,3.0,95,0.16,,SKC,2.33,VWS V14.01,2013-01-14 09:53:00,
2013-01-14 04:54:00,51.4,50.0,27.28,ENE,68,0.0,3.0,95,0.16,,SKC,2.33,VWS V14.01,2013-01-14 09:54:00,
2013-01-14 04:55:00,56.3,54.6,27.28,SSE,163,0.0,0.0,94,0.00,,SKC,0.22,VWS V14.01,2013-01-14 09:55:00,
2013-01-14 04:56:00,51.3,49.9,27.28,ENE,68,0.0,3.0,95,0.16,,SKC,2.33,VWS V14.01,2013-01-14 09:56:00,
2013-01-14 04:57:00,51.3,49.9,27.28,ENE,68,0.0,3.0,95,0.16,,SKC,2.33,VWS V14.01,2013-01-14 09:57:00,
2013-01-14 04:58:00,51.3,49.9,27.28,ENE,68,0.0,3.0,95,0.17,,SKC,2.34,VWS V14.01,2013-01-14 09:58:00,
2013-01-14 04:59:00,51.3,49.9,27.28,ENE,68,0.0,3.0,95,0.17,,SKC,2.34,VWS V14.01,2013-01-14 09:59:00,
2013-01-14 05:00:00,56.3,54.6,27.28,SSE,163,0.0,0.0,94,0.00,,SKC,0.22,VWS V14.01,2013-01-14 10:00:00,
2013-01-14 05:01:00,51.3,49.9,27.28,ENE,68,0.0,3.0,95,0.17,,SKC,2.34,VWS V14.01,2013-01-14 10:01:00,
2013-01-14 05:02:00,51.3,49.9,27.28,ENE,68,0.0,3.0,95,0.17,,SKC,2.34,VWS V14.01,2013-01-14 10:02:00,
2013-01-14 05:03:00,51.3,49.9,27.28,ENE,68,0.0,3.0,95,0.17,,SKC,2.34,VWS V14.01,2013-01-14 10:03:00,
2013-01-14 05:04:00,51.3,49.9,27.28,ENE,68,0.0,3.0,95,0.18,,SKC,2.35,VWS V14.01,2013-01-14 10:04:00,
2013-01-14 05:05:00,56.2,54.5,27.28,SSE,163,0.0,0.0,94,0.00,,SKC,0.22,VWS V14.01,2013-01-14 10:05:00,
2013-01-14 05:06:00,51.3,49.9,27.28,ENE,68,0.0,3.0,95,0.18,,SKC,2.35,VWS V14.01,2013-01-14 10:06:00,
2013-01-14 05:07:00,51.3,49.9,27.28,ENE,68,0.0,3.0,95,0.18,,SKC,2.35,VWS V14.01,2013-01-14 10:07:00,
2013-01-14 05:08:00,51.3,49.9,27.28,ENE,68,0.0,3.0,95,0.18,,SKC,2.35,VWS V14.01,2013-01-14 10:08:00,
2013-01-14 05:09:00,51.3,49.9,27.28,ENE,68,1.0,3.0,95,0.18,,SKC,2.35,VWS V14.01,2013-01-14 10:09:00,
2013-01-14 05:10:00,56.2,54.5,27.28,SSE,163,0.0,0.0,94,0.00,,SKC,0.22,VWS V14.01,2013-01-14 10:10:00,
2013-01-14 05:11:00,51.2,49.8,27.28,ENE,68,0.0,3.0,95,0.18,,SKC,2.35,VWS V14.01,2013-01-14 10:11:00,
2013-01-14 05:12:00,51.2,49.8,27.28,ENE,68,0.0,3.0,95,0.18,,SKC,2.35,VWS V14.01,2013-01-14 10:12:00,
2013-01-14 05:13:00,51.2,49.8,27.28,ENE,68,1.0,3.0,95,0.18,,SKC,2.35,VWS V14.01,2013-01-14 10:13:00,
2013-01-14 05:14:00,51.2,49.8,27.28,ENE,68,0.0,3.0,95,0.18,,SKC,2.35,VWS V14.01,2013-01-14 10:14:00,
2013-01-14 05:15:00,56.1,54.4,27.28,SSE,163,0.0,0.0,94,0.00,,SKC,0.22,VWS V14.01,2013-01-14 10:15:00,
2013-01-14 05:16:00,51.2,49.8,27.28,ENE,68,0.0,3.0,95,0.18,,SKC,2.35,VWS V14.01,2013-01-14 10:16:00,
2013-01-14 05:17:00,51.2,49.8,27.28,ENE,68,0.0,3.0,95,0.19,,SKC,2.36,VWS V14.01,2013-01-14 10:17:00,
2013-01-14 05:18:00,51.2,49.8,27.28,ENE,68,0.0,3.0,95,0.19,,SKC,2.36,VWS V14.01,2013-01-14 10:18:00,
2013-01-14 05:19:00,51.2,49.8,27.28,ENE,68,0.0,3.0,95,0.19,,SKC,2.36,VWS V14.01,2013-01-14 10:19:00,
2013-01-14 05:20:00,56.1,54.4,27.28,SSE,163,0.0,0.0,94,0.00,,SKC,0.22,VWS V14.01,2013-01-14 10:20:00,
2013-01-14 05:21:00,51.2,49.8,27.28,ENE,68,0.0,3.0,95,0.19,,SKC,2.36,VWS V14.01,2013-01-14 10:21:00,
2013-01-14 05:22:00,51.2,49.8,27.28,ENE,68,0.0,3.0,95,0.19,,SKC,2.36,VWS V14.01,2013-01-14 10:22:00,
2013-01-14 05:23:00,51.2,49.8,27.28,ENE,68,0.0,3.0,95,0.19,,SKC,2.36,VWS V14.01,2013-01-14 10:23:00,
2013-01-14 05:24:00,51.2,49.8,27.28,ENE,68,0.0,3.0,95,0.19,,SKC,2.36,VWS V14.01,2013-01-14 10:24:00,
2013-01-14 05:25:00,56.1,54.4,27.28,SSE,163,0.0,0.0,94,0.00,,SKC,0.22,VWS V14.01,2013-01-14 10:25:00,
2013-01-14 05:26:00,51.2,49.8,27.28,ENE,68,0.0,3.0,95,0.19,,SKC,2.36,VWS V14.01,2013-01-14 10:26:00,
2013-01-14 05:27:00,51.2,49.8,27.28,ENE,68,0.0,3.0,95,0.19,,SKC,2.36,VWS V14.01,2013-01-14 10:27:00,
2013-01-14 05:28:00,51.2,49.8,27.28,ENE,68,1.0,3.0,95,0.19,,SKC,2.36,VWS V14.01,2013-01-14 10:28:00,
2013-01-14 05:29:00,51.2,49.8,27.28,ENE,68,0.0,3.0,95,0.19,,SKC,2.36,VWS V14.01,2013-01-14 10:29:00,
2013-01-14 05:30:00,56.1,54.4,27.28,SSE,163,0.0,0.0,94,0.00,,SKC,0.22,VWS V14.01,2013-01-14 10:30:00,
2013-01-14 05:31:00,51.2,49.8,27.28,ENE,68,0.0,3.0,95,0.19,,SKC,2.36,VWS V14.01,2013-01-14 10:31:00,
2013-01-14 05:32:00,51.2,49.8,27.28,ENE,68,1.0,3.0,95,0.19,,SKC,2.36,VWS V14.01,2013-01-14 10:32:00,
2013-01-14 05:33:00,51.2,49.8,27.28,ENE,68,1.0,3.0,95,0.19,,SKC,2.36,VWS V14.01,2013-01-14 10:33:00,
2013-01-14 05:34:00,51.2,49.8,27.28,ENE,68,0.0,3.0,95,0.19,,SKC,2.36,VWS V14.01,2013-01-14 10:34:00,
2013-01-14 05:35:00,56.1,54.4,27.28,SSE,163,0.0,0.0,94,0.00,,SKC,0.22,VWS V14.01,2013-01-14 10:35:00,
2013-01-14 05:36:00,51.2,49.8,27.28,ENE,68,0.0,3.0,95,0.19,,SKC,2.36,VWS V14.01,2013-01-14 10:36:00,
2013-01-14 05:37:00,51.2,49.8,27.28,ENE,68,0.0,3.0,95,0.20,,SKC,2.37,VWS V14.01,2013-01-14 10:37:00,
2013-01-14 05:38:00,51.2,49.8,27.28,ENE,68,2.0,3.0,95,0.20,,SKC,2.37,VWS V14.01,2013-01-14 10:38:00,
2013-01-14 05:39:00,51.2,49.8,27.28,ENE,68,0.0,3.0,95,0.21,,SKC,2.38,VWS V14.01,2013-01-14 10:39:00,
2013-01-14 05:40:00,56.1,54.4,27.28,SSE,163,0.0,0.0,94,0.00,,SKC,0.22,VWS V14.01,2013-01-14 10:40:00,
2013-01-14 05:41:00,51.2,49.8,27.28,ENE,68,0.0,3.0,95,0.21,,SKC,2.38,VWS V14.01,2013-01-14 10:41:00,
2013-01-14 05:42:00,51.1,49.7,27.28,ENE,68,0.0,3.0,95,0.22,,SKC,2.39,VWS V14.01,2013-01-14 10:42:00,
2013-01-14 05:43:00,51.1,49.7,27.28,ENE,68,0.0,3.0,95,0.22,,SKC,2.39,VWS V14.01,2013-01-14 10:43:00,
2013-01-14 05:44:00,51.1,49.7,27.28,ENE,68,0.0,3.0,95,0.22,,SKC,2.39,VWS V14.01,2013-01-14 10:44:00,
2013-01-14 05:45:00,56.1,54.4,27.28,SSE,163,0.0,0.0,94,0.00,,SKC,0.22,VWS V14.01,2013-01-14 10:45:00,
2013-01-14 05:46:00,51.1,49.7,27.28,ENE,68,0.0,3.0,95,0.23,,SKC,2.40,VWS V14.01,2013-01-14 10:46:00,
2013-01-14 05:47:00,51.1,49.7,27.28,ENE,68,0.0,3.0,95,0.23,,SKC,2.40,VWS V14.01,2013-01-14 10:47:00,
2013-01-14 05:48:00,51.1,49.7,27.28,ENE,68,0.0,3.0,95,0.23,,SKC,2.40,VWS V14.01,2013-01-14 10:48:00,
2013-01-14 05:49:00,51.1,49.7,27.28,ENE,68,0.0,3.0,95,0.23,,SKC,2.40,VWS V14.01,2013-01-14 10:49:00,
2013-01-14 05:50:00,56.2,54.5,27.28,SSE,163,0.0,0.0,94,0.00,,SKC,0.22,VWS V14.01,2013-01-14 10:50:00,
2013-01-14 05:51:00,51.1,49.7,27.28,ENE,68,0.0,3.0,95,0.23,,SKC,2.40,VWS V14.01,2013-01-14 10:51:00,
2013-01-14 05:52:00,51.1,49.7,27.28,ENE,68,0.0,3.0,95,0.23,,SKC,2.40,VWS V14.01,2013-01-14 10:52:00,
2013-01-14 05:53:00,51.1,49.7,27.28,ENE,68,0.0,3.0,95,0.23,,SKC,2.40,VWS V14.01,2013-01-14 10:53:00,
2013-01-14 05:54:00,51.1,49.7,27.28,ENE,68,0.0,3.0,95,0.23,,SKC,2.40,VWS V14.01,2013-01-14 10:54:00,
2013-01-14 05:55:00,56.1,54.4,27.28,SSE,163,0.0,0.0,94,0.00,,SKC,0.22,VWS V14.01,2013-01-14 10:55:00,
2013-01-14 05:56:00,51.1,49.7,27.28,ENE,68,0.0,3.0,95,0.23,,SKC,2.40,VWS V14.01,2013-01-14 10:56:00,
2013-01-14 05:57:00,51.1,49.7,27.28,ENE,68,0.0,3.0,95,0.23,,SKC,2.40,VWS V14.01,2013-01-14 10:57:00,
2013-01-14 05:58:00,51.1,49.7,27.28,ENE,68,0.0,3.0,95,0.23,,SKC,2.40,VWS V14.01,2013-01-14 10:58:00,
2013-01-14 05:59:00,51.1,49.7,27.28,ENE,68,0.0,3.0,95,0.23,,SKC,2.40,VWS V14.01,2013-01-14 10:59:00,
2013-01-14 06:00:00,56.1,54.4,27.28,SSE,163,0.0,0.0,94,0.00,,SKC,0.22,VWS V14.01,2013-01-14 11:00:00,
2013-01-14 06:01:00,51.1,49.7,27.28,ENE,68,0.0,3.0,95,0.23,,SKC,2.40,VWS V14.01,2013-01-14 11:01:00,
2013-01-14 06:02:00,51.1,49.7,27.28,ENE,68,0.0,3.0,95,0.23,,SKC,2.40,VWS V14.01,2013-01-14 11:02:00,
2013-01-14 06:03:00,51.1,49.7,27.28,ENE,68,0.0,3.0,95,0.23,,SKC,2.40,VWS V14.01,2013-01-14 11:03:00,
2013-01-14 06:04:00,51.1,49.7,27.28,ENE,68,0.0,3.0,95,0.23,,SKC,2.40,VWS V14.01,2013-01-14 11:04:00,
2013-01-14 06:05:00,56.1,54.4,27.28,SSE,163,0.0,2.0,94,0.00,,SKC,0.22,VWS V14.01,2013-01-14 11:05:00,
2013-01-14 06:06:00,51.1,49.7,27.28,ENE,68,0.0,3.0,95,0.23,,SKC,2.40,VWS V14.01,2013-01-14 11:06:00,
2013-01-14 06:07:00,51.1,49.7,27.28,ENE,68,0.0,3.0,95,0.23,,SKC,2.40,VWS V14.01,2013-01-14 11:07:00,
2013-01-14 06:08:00,51.1,49.7,27.28,ENE,68,0.0,3.0,95,0.23,,SKC,2.40,VWS V14.01,2013-01-14 11:08:00,
2013-01-14 06:09:00,51.1,49.7,27.28,ENE,68,0.0,3.0,95,0.23,,SKC,2.40,VWS V14.01,2013-01-14 11:09:00,
2013-01-14 06:10:00,56.2,54.5,27.28,SSE,163,0.0,0.0,94,0.00,,SKC,0.22,VWS V14.01,2013-01-14 11:10:00,
2013-01-14 06:11:00,51.1,49.7,27.28,ENE,68,0.0,3.0,95,0.23,,SKC,2.40,VWS V14.01,2013-01-14 11:11:00,
2013-01-14 06:12:00,51.1,49.7,27.28,ENE,68,0.0,3.0,95,0.23,,SKC,2.40,VWS V14.01,2013-01-14 11:12:00,
2013-01-14 06:13:00,51.1,49.7,27.28,ENE,68,0.0,3.0,95,0.24,,SKC,2.41,VWS V14.01,2013-01-14 11:13:00,
2013-01-14 06:14:00,51.1,49.7,27.28,ENE,68,0.0,3.0,95,0.24,,SKC,2.41,VWS V14.01,2013-01-14 11:14:00,
2013-01-14 06:15:00,56.3,54.9,27.28,SSE,163,0.0,0.0,95,0.00,,SKC,0.22,VWS V14.01,2013-01-14 11:15:00,
2013-01-14 06:16:00,51.1,49.7,27.28,ENE,68,0.0,3.0,95,0.24,,SKC,2.41,VWS V14.01,2013-01-14 11:16:00,
2013-01-14 06:17:00,51.1,49.7,27.28,ENE,68,0.0,3.0,95,0.24,,SKC,2.41,VWS V14.01,2013-01-14 11:17:00,
2013-01-14 06:18:00,51.1,49.7,27.28,ENE,68,0.0,3.0,95,0.24,,SKC,2.41,VWS V14.01,2013-01-14 11:18:00,
2013-01-14 06:19:00,51.1,49.7,27.28,ENE,68,0.0,3.0,95,0.24,,SKC,2.41,VWS V14.01,2013-01-14 11:19:00,
2013-01-14 06:20:00,56.2,54.5,27.28,SSE,163,0.0,0.0,94,0.00,,SKC,0.22,VWS V14.01,2013-01-14 11:20:00,
2013-01-14 06:21:00,51.2,49.8,27.28,ENE,68,0.0,3.0,95,0.24,,SKC,2.41,VWS V14.01,2013-01-14 11:21:00,
2013-01-14 06:22:00,51.2,49.8,27.28,ENE,68,0.0,3.0,95,0.24,,SKC,2.41,VWS V14.01,2013-01-14 11:22:00,
2013-01-14 06:23:00,51.1,49.7,27.28,ENE,68,0.0,3.0,95,0.24,,SKC,2.41,VWS V14.01,2013-01-14 11:23:00,
2013-01-14 06:24:00,51.2,49.8,27.28,ENE,68,0.0,3.0,95,0.24,,SKC,2.41,VWS V14.01,2013-01-14 11:24:00,
2013-01-14 06:25:00,56.3,54.9,27.28,SSE,163,0.0,0.0,95,0.00,,SKC,0.22,VWS V14.01,2013-01-14 11:25:00,
2013-01-14 06:26:00,51.2,49.8,27.28,ENE,68,0.0,3.0,95,0.24,,SKC,2.41,VWS V14.01,2013-01-14 11:26:00,
2013-01-14 06:27:00,51.2,49.8,27.28,ENE,68,0.0,3.0,95,0.24,,SKC,2.41,VWS V14.01,2013-01-14 11:27:00,
2013-01-14 06:28:00,51.2,49.8,27.28,ENE,68,0.0,3.0,95,0.25,,SKC,2.42,VWS V14.01,2013-01-14 11:28:00,
2013-01-14 06:29:00,51.2,49.8,27.28,ENE,68,0.0,3.0,95,0.25,,SKC,2.42,VWS V14.01,2013-01-14 11:29:00,
2013-01-14 06:30:00,56.3,54.9,27.28,SSE,163,0.0,0.0,95,0.00,,SKC,0.22,VWS V14.01,2013-01-14 11:30:00,
2013-01-14 06:31:00,51.2,49.8,27.28,ENE,68,0.0,3.0,95,0.25,,SKC,2.42,VWS V14.01,2013-01-14 11:31:00,
2013-01-14 06:32:00,51.2,49.8,27.28,ENE,68,0.0,3.0,95,0.25,,SKC,2.42,VWS V14.01,2013-01-14 11:32:00,
2013-01-14 06:33:00,51.2,49.8,27.28,ENE,68,0.0,3.0,95,0.26,,SKC,2.43,VWS V14.01,2013-01-14 11:33:00,
2013-01-14 06:34:00,51.2,49.8,27.28,ENE,68,0.0,3.0,95,0.26,,SKC,2.43,VWS V14.01,2013-01-14 11:34:00,
2013-01-14 06:35:00,56.3,54.9,27.28,SSE,163,0.0,0.0,95,0.00,,SKC,0.22,VWS V14.01,2013-01-14 11:35:00,
2013-01-14 06:36:00,51.2,49.8,27.28,ENE,68,0.0,3.0,95,0.26,,SKC,2.43,VWS V14.01,2013-01-14 11:36:00,
2013-01-14 06:37:00,51.2,49.8,27.28,ENE,68,1.0,3.0,95,0.26,,SKC,2.43,VWS V14.01,2013-01-14 11:37:00,
2013-01-14 06:38:00,51.3,49.9,27.28,ENE,68,1.0,3.0,95,0.26,,SKC,2.43,VWS V14.01,2013-01-14 11:38:00,
2013-01-14 06:39:00,51.3,49.9,27.28,ENE,68,0.0,3.0,95,0.27,,SKC,2.44,VWS V14.01,2013-01-14 11:39:00,
2013-01-14 06:40:00,56.3,54.9,27.28,SSE,163,0.0,0.0,95,0.00,,SKC,0.22,VWS V14.01,2013-01-14 11:40:00,
2013-01-14 06:41:00,51.3,49.9,27.28,ENE,68,0.0,3.0,95,0.27,,SKC,2.44,VWS V14.01,2013-01-14 11:41:00,
2013-01-14 06:42:00,51.3,49.9,27.28,ENE,68,0.0,3.0,95,0.27,,SKC,2.44,VWS V14.01,2013-01-14 11:42:00,
2013-01-14 06:43:00,51.3,49.9,27.28,ENE,68,0.0,3.0,95,0.28,,SKC,2.45,VWS V14.01,2013-01-14 11:43:00,
2013-01-14 06:44:00,51.3,49.9,27.28,ENE,68,0.0,3.0,95,0.28,,SKC,2.45,VWS V14.01,2013-01-14 11:44:00,
2013-01-14 06:45:00,56.3,54.9,27.28,SSE,163,0.0,0.0,95,0.00,,SKC,0.22,VWS V14.01,2013-01-14 11:45:00,
2013-01-14 06:46:00,51.3,49.9,27.28,ENE,68,2.0,3.0,95,0.28,,SKC,2.45,VWS V14.01,2013-01-14 11:46:00,
2013-01-14 06:47:00,51.3,49.9,27.28,ENE,68,0.0,3.0,95,0.29,,SKC,2.46,VWS V14.01,2013-01-14 11:47:00,
2013-01-14 06:48:00,51.2,49.8,27.28,ENE,68,1.0,3.0,95,0.29,,SKC,2.46,VWS V14.01,2013-01-14 11:48:00,
2013-01-14 06:49:00,51.1,49.7,27.28,East,96,5.0,5.0,95,0.29,,SKC,2.46,VWS V14.01,2013-01-14 11:49:00,
2013-01-14 06:50:00,56.2,54.8,27.28,SSE,163,0.0,1.0,95,0.00,,SKC,0.22,VWS V14.01,2013-01-14 11:50:00,
2013-01-14 06:51:00,50.8,49.4,27.28,SSE,148,5.0,7.0,95,0.29,,SKC,2.46,VWS V14.01,2013-01-14 11:51:00,
2013-01-14 06:52:00,50.5,49.1,27.28,ESE,118,4.0,7.0,95,0.30,,SKC,2.47,VWS V14.01,2013-01-14 11:52:00,
2013-01-14 06:53:00,50.4,49.0,27.28,ESE,109,4.0,7.0,95,0.30,,SKC,2.47,VWS V14.01,2013-01-14 11:53:00,
2013-01-14 06:54:00,50.3,48.9,27.28,ESE,111,4.0,7.0,95,0.30,,SKC,2.47,VWS V14.01,2013-01-14 11:54:00,
2013-01-14 06:55:00,56.1,54.7,27.28,SSE,163,0.0,1.0,95,0.00,,SKC,0.22,VWS V14.01,2013-01-14 11:55:00,
2013-01-14 06:56:00,49.9,48.5,27.28,SE,146,4.0,7.0,95,0.30,,SKC,2.47,VWS V14.01,2013-01-14 11:56:00,
2013-01-14 06:57:00,49.8,48.4,27.28,East,97,6.0,7.0,95,0.30,,SKC,2.47,VWS V14.01,2013-01-14 11:57:00,
2013-01-14 06:58:00,49.6,48.0,27.28,ESE,110,5.0,7.0,94,0.30,,SKC,2.47,VWS V14.01,2013-01-14 11:58:00,
2013-01-14 06:59:00,49.4,47.8,27.28,ESE,109,7.0,7.0,94,0.31,,SKC,2.48,VWS V14.01,2013-01-14 11:59:00,
2013-01-14 07:00:00,56.1,54.7,27.28,SSE,163,0.0,0.0,95,0.00,,SKC,0.22,VWS V14.01,2013-01-14 12:00:00,
2013-01-14 07:01:00,49.1,47.5,27.28,East,94,6.0,7.0,94,0.31,,SKC,2.48,VWS V14.01,2013-01-14 12:01:00,
2013-01-14 07:02:00,49.0,47.3,27.28,SE,137,4.0,8.0,94,0.31,,SKC,2.48,VWS V14.01,2013-01-14 12:02:00,
2013-01-14 07:03:00,49.0,47.3,27.28,SE,143,6.0,8.0,94,0.31,,SKC,2.48,VWS V14.01,2013-01-14 12:03:00,
2013-01-14 07:04:00,48.9,47.2,27.28,ESE,117,2.0,8.0,94,0.32,,SKC,2.49,VWS V14.01,2013-01-14 12:04:00,
2013-01-14 07:05:00,56.1,54.7,27.28,SSE,163,0.0,0.0,95,0.00,,SKC,0.22,VWS V14.01,2013-01-14 12:05:00,
2013-01-14 07:06:00,48.7,47.0,27.28,ESE,121,4.0,8.0,94,0.32,,SKC,2.49,VWS V14.01,2013-01-14 12:06:00,
2013-01-14 07:07:00,48.7,47.0,27.28,East,100,4.0,8.0,94,0.32,,SKC,2.49,VWS V14.01,2013-01-14 12:07:00,
2013-01-14 07:08:00,48.6,47.0,27.28,East,99,5.0,8.0,94,0.33,,SKC,2.50,VWS V14.01,2013-01-14 12:08:00,
2013-01-14 07:09:00,48.5,46.9,27.28,ESE,116,4.0,8.0,94,0.33,,SKC,2.50,VWS V14.01,2013-01-14 12:09:00,
2013-01-14 07:10:00,56.2,54.8,27.28,SSE,163,0.0,2.0,95,0.00,,SKC,0.22,VWS V14.01,2013-01-14 12:10:00,
2013-01-14 07:11:00,48.4,46.8,27.28,East,94,7.0,8.0,94,0.33,,SKC,2.50,VWS V14.01,2013-01-14 12:11:00,
2013-01-14 07:12:00,48.3,46.7,27.28,ESE,110,6.0,9.0,94,0.34,,SKC,2.51,VWS V14.01,2013-01-14 12:12:00,
2013-01-14 07:13:00,48.2,46.6,27.28,ESE,104,4.0,9.0,94,0.34,,SKC,2.51,VWS V14.01,2013-01-14 12:13:00,
2013-01-14 07:14:00,48.1,46.5,27.28,ESE,105,2.0,9.0,94,0.35,,SKC,2.52,VWS V14.01,2013-01-14 12:14:00,
2013-01-14 07:15:00,56.1,54.7,27.28,SSE,164,2.0,2.0,95,0.00,,SKC,0.22,VWS V14.01,2013-01-14 12:15:00,
2013-01-14 07:16:00,48.0,46.4,27.28,ESE,105,5.0,9.0,94,0.35,,SKC,2.52,VWS V14.01,2013-01-14 12:16:00,
2013-01-14 07:17:00,48.0,46.4,27.28,ESE,105,5.0,9.0,94,0.35,,SKC,2.52,VWS V14.01,2013-01-14 12:17:00,
2013-01-14 07:18:00,47.9,46.3,27.28,ESE,103,5.0,9.0,94,0.35,,SKC,2.52,VWS V14.01,2013-01-14 12:18:00,
2013-01-14 07:19:00,47.9,46.3,27.28,ESE,103,4.0,9.0,94,0.35,,SKC,2.52,VWS V14.01,2013-01-14 12:19:00,
2013-01-14 07:20:00,56.2,54.8,27.28,SSE,164,0.0,0.0,95,0.00,,SKC,0.22,VWS V14.01,2013-01-14 12:20:00,
2013-01-14 07:21:00,47.9,46.3,27.28,ENE,78,2.0,9.0,94,0.36,,SKC,2.53,VWS V14.01,2013-01-14 12:21:00,
2013-01-14 07:22:00,47.9,46.3,27.28,East,98,1.0,9.0,94,0.36,,SKC,2.53,VWS V14.01,2013-01-14 12:22:00,
2013-01-14 07:23:00,47.9,46.3,27.28,East,98,4.0,9.0,94,0.36,,SKC,2.53,VWS V14.01,2013-01-14 12:23:00,
2013-01-14 07:24:00,47.9,46.3,27.28,East,98,0.0,9.0,94,0.36,,SKC,2.53,VWS V14.01,2013-01-14 12:24:00,
2013-01-14 07:25:00,56.2,54.8,27.28,SSE,164,0.0,0.0,95,0.00,,SKC,0.22,VWS V14.01,2013-01-14 12:25:00,
2013-01-14 07:26:00,47.9,46.3,27.28,East,98,7.0,9.0,94,0.36,,SKC,2.53,VWS V14.01,2013-01-14 12:26:00,
2013-01-14 07:27:00,47.9,46.3,27.28,ESE,105,9.0,9.0,94,0.36,,SKC,2.53,VWS V14.01,2013-01-14 12:27:00,
2013-01-14 07:28:00,47.8,46.2,27.28,ESE,109,6.0,9.0,94,0.36,,SKC,2.53,VWS V14.01,2013-01-14 12:28:00,
2013-01-14 07:29:00,47.8,46.2,27.28,East,92,6.0,9.0,94,0.36,,SKC,2.53,VWS V14.01,2013-01-14 12:29:00,
2013-01-14 07:30:00,56.2,54.8,27.28,SSE,164,0.0,0.0,95,0.00,,SKC,0.22,VWS V14.01,2013-01-14 12:30:00,
2013-01-14 07:31:00,47.8,46.2,27.28,East,92,5.0,9.0,94,0.36,,SKC,2.53,VWS V14.01,2013-01-14 12:31:00,
2013-01-14 07:32:00,47.8,46.2,27.28,East,92,2.0,9.0,94,0.36,,SKC,2.53,VWS V14.01,2013-01-14 12:32:00,
2013-01-14 07:33:00,47.8,46.2,27.28,East,93,4.0,9.0,94,0.36,,SKC,2.53,VWS V14.01,2013-01-14 12:33:00,
2013-01-14 07:34:00,47.8,46.2,27.28,ESE,110,0.0,9.0,94,0.36,,SKC,2.53,VWS V14.01,2013-01-14 12:34:00,
2013-01-14 07:35:00,56.3,54.9,27.28,SSE,164,1.0,2.0,95,0.00,,SKC,0.22,VWS V14.01,2013-01-14 12:35:00,
2013-01-14 07:36:00,47.8,46.2,27.28,ESE,110,6.0,9.0,94,0.36,,SKC,2.53,VWS V14.01,2013-01-14 12:36:00,
2013-01-14 07:37:00,47.8,46.2,27.28,East,87,4.0,9.0,94,0.36,,SKC,2.53,VWS V14.01,2013-01-14 12:37:00,
2013-01-14 07:38:00,47.8,46.2,27.28,East,87,0.0,9.0,94,0.36,,SKC,2.53,VWS V14.01,2013-01-14 12:38:00,
2013-01-14 07:39:00,47.9,46.3,27.28,East,87,0.0,9.0,94,0.36,,SKC,2.53,VWS V14.01,2013-01-14 12:39:00,
2013-01-14 07:40:00,56.3,54.9,27.28,SSE,164,0.0,0.0,95,0.01,,SKC,0.23,VWS V14.01,2013-01-14 12:40:00,
2013-01-14 07:41:00,47.9,46.3,27.28,East,87,4.0,9.0,94,0.36,,SKC,2.53,VWS V14.01,2013-01-14 12:41:00,
2013-01-14 07:42:00,47.9,46.3,27.28,East,95,5.0,9.0,94,0.36,,SKC,2.53,VWS V14.01,2013-01-14 12:42:00,
2013-01-14 07:43:00,47.9,46.3,27.28,ESE,107,2.0,9.0,94,0.36,,SKC,2.53,VWS V14.01,2013-01-14 12:43:00,
2013-01-14 07:44:00,47.9,46.3,27.28,ESE,107,1.0,9.0,94,0.36,,SKC,2.53,VWS V14.01,2013-01-14 12:44:00,
2013-01-14 07:45:00,56.2,54.8,27.28,SSE,164,0.0,0.0,95,0.01,,SKC,0.23,VWS V14.01,2013-01-14 12:45:00,
2013-01-14 07:46:00,47.9,46.3,27.28,ESE,109,2.0,9.0,94,0.36,,SKC,2.53,VWS V14.01,2013-01-14 12:46:00,
2013-01-14 07:47:00,47.9,46.3,27.28,ESE,109,2.0,9.0,94,0.36,,SKC,2.53,VWS V14.01,2013-01-14 12:47:00,
2013-01-14 07:48:00,47.9,46.3,27.28,ESE,109,1.0,9.0,94,0.36,,SKC,2.53,VWS V14.01,2013-01-14 12:48:00,
2013-01-14 07:49:00,47.9,46.3,27.28,ESE,107,5.0,9.0,94,0.36,,SKC,2.53,VWS V14.01,2013-01-14 12:49:00,
2013-01-14 07:50:00,56.2,54.8,27.28,SSE,164,0.0,0.0,95,0.02,,SKC,0.24,VWS V14.01,2013-01-14 12:50:00,
2013-01-14 07:51:00,47.9,46.3,27.28,ESE,107,2.0,9.0,94,0.36,,SKC,2.53,VWS V14.01,2013-01-14 12:51:00,
2013-01-14 07:52:00,47.9,46.3,27.28,ESE,109,2.0,9.0,94,0.36,,SKC,2.53,VWS V14.01,2013-01-14 12:52:00,
2013-01-14 07:53:00,48.0,46.4,27.28,ESE,109,2.0,9.0,94,0.36,,SKC,2.53,VWS V14.01,2013-01-14 12:53:00,
2013-01-14 07:54:00,47.9,46.3,27.28,ESE,109,0.0,9.0,94,0.36,,SKC,2.53,VWS V14.01,2013-01-14 12:54:00,
2013-01-14 07:55:00,56.2,54.8,27.28,SSE,161,0.0,0.0,95,0.02,,SKC,0.24,VWS V14.01,2013-01-14 12:55:00,
2013-01-14 07:56:00,48.0,46.4,27.28,ESE,109,1.0,9.0,94,0.36,,SKC,2.53,VWS V14.01,2013-01-14 12:56:00,
2013-01-14 07:57:00,48.0,46.4,27.28,ESE,109,2.0,9.0,94,0.36,,SKC,2.53,VWS V14.01,2013-01-14 12:57:00,
2013-01-14 07:58:00,48.0,46.4,27.28,ESE,109,2.0,9.0,94,0.36,,SKC,2.53,VWS V14.01,2013-01-14 12:58:00,
2013-01-14 07:59:00,48.0,46.4,27.28,ESE,109,0.0,9.0,94,0.36,,SKC,2.53,VWS V14.01,2013-01-14 12:59:00,
2013-01-14 08:00:00,56.2,54.8,27.28,SSE,162,0.0,0.0,95,0.02,,SKC,0.24,VWS V14.01,2013-01-14 13:00:00,
2013-01-14 08:01:00,48.0,46.4,27.28,ESE,109,0.0,9.0,94,0.36,,SKC,2.53,VWS V14.01,2013-01-14 13:01:00,
2013-01-14 08:02:00,48.1,46.5,27.28,ESE,109,0.0,9.0,94,0.36,,SKC,2.53,VWS V14.01,2013-01-14 13:02:00,
2013-01-14 08:03:00,48.1,46.5,27.28,ESE,109,0.0,9.0,94,0.36,,SKC,2.53,VWS V14.01,2013-01-14 13:03:00,
2013-01-14 08:04:00,48.1,46.5,27.28,ESE,109,1.0,9.0,94,0.36,,SKC,2.53,VWS V14.01,2013-01-14 13:04:00,
2013-01-14 08:05:00,56.1,54.7,27.28,SSE,162,1.0,2.0,95,0.02,,SKC,0.24,VWS V14.01,2013-01-14 13:05:00,
2013-01-14 08:06:00,48.1,46.5,27.28,East,93,4.0,9.0,94,0.36,,SKC,2.53,VWS V14.01,2013-01-14 13:06:00,
2013-01-14 08:07:00,48.1,46.5,27.28,East,93,1.0,9.0,94,0.36,,SKC,2.53,VWS V14.01,2013-01-14 13:07:00,
2013-01-14 08:08:00,48.0,46.4,27.28,East,93,2.0,9.0,94,0.36,,SKC,2.53,VWS V14.01,2013-01-14 13:08:00,
2013-01-14 08:09:00,48.0,46.4,27.28,East,92,4.0,9.0,94,0.37,,SKC,2.54,VWS V14.01,2013-01-14 13:09:00,
2013-01-14 08:10:00,56.1,54.7,27.28,SSE,162,0.0,0.0,95,0.02,,SKC,0.24,VWS V14.01,2013-01-14 13:10:00,
2013-01-14 08:11:00,48.1,46.5,27.28,East,92,0.0,9.0,94,0.38,,SKC,2.55,VWS V14.01,2013-01-14 13:11:00,
2013-01-14 08:12:00,48.1,46.5,27.28,East,93,0.0,9.0,94,0.38,,SKC,2.55,VWS V14.01,2013-01-14 13:12:00,
2013-01-14 08:13:00,48.1,46.5,27.28,East,93,1.0,9.0,94,0.39,,SKC,2.56,VWS V14.01,2013-01-14 13:13:00,
2013-01-14 08:14:00,48.1,46.5,27.28,East,93,2.0,9.0,94,0.39,,SKC,2.56,VWS V14.01,2013-01-14 13:14:00,
2013-01-14 08:15:00,56.1,54.7,27.28,SSE,161,0.0,0.0,95,0.02,,SKC,0.24,VWS V14.01,2013-01-14 13:15:00,
2013-01-14 08:16:00,48.1,46.5,27.28,East,92,5.0,9.0,94,0.40,,SKC,2.57,VWS V14.01,2013-01-14 13:16:00,
2013-01-14 08:17:00,48.1,46.5,27.28,East,97,4.0,9.0,94,0.41,,SKC,2.58,VWS V14.01,2013-01-14 13:17:00,
2013-01-14 08:18:00,48.0,46.4,27.28,East,97,0.0,9.0,94,0.41,,SKC,2.58,VWS V14.01,2013-01-14 13:18:00,
2013-01-14 08:19:00,48.0,46.4,27.28,East,97,2.0,9.0,94,0.41,,SKC,2.58,VWS V14.01,2013-01-14 13:19:00,
2013-01-14 08:20:00,56.1,54.7,27.28,SSE,161,0.0,0.0,95,0.02,,SKC,0.24,VWS V14.01,2013-01-14 13:20:00,
2013-01-14 08:21:00,48.0,46.4,27.28,East,98,4.0,9.0,94,0.42,,SKC,2.59,VWS V14.01,2013-01-14 13:21:00,
2013-01-14 08:22:00,48.0,46.4,27.28,ESE,114,0.0,9.0,94,0.43,,SKC,2.60,VWS V14.01,2013-01-14 13:22:00,
2013-01-14 08:23:00,48.0,46.4,27.28,ESE,114,0.0,9.0,94,0.44,,SKC,2.61,VWS V14.01,2013-01-14 13:23:00,
2013-01-14 08:24:00,48.0,46.4,27.28,ESE,115,2.0,9.0,94,0.44,,SKC,2.61,VWS V14.01,2013-01-14 13:24:00,
2013-01-14 08:25:00,56.0,54.6,27.28,SSE,161,0.0,0.0,95,0.02,,SKC,0.24,VWS V14.01,2013-01-14 13:25:00,
2013-01-14 08:26:00,47.9,46.3,27.28,ESE,115,0.0,9.0,94,0.44,,SKC,2.61,VWS V14.01,2013-01-14 13:26:00,
2013-01-14 08:27:00,47.9,46.3,27.28,ESE,114,0.0,9.0,94,0.44,,SKC,2.61,VWS V14.01,2013-01-14 13:27:00,
2013-01-14 08:28:00,47.9,46.3,27.28,ESE,115,0.0,9.0,94,0.45,,SKC,2.62,VWS V14.01,2013-01-14 13:28:00,
2013-01-14 08:29:00,47.9,46.3,27.28,ESE,115,4.0,9.0,94,0.45,,SKC,2.62,VWS V14.01,2013-01-14 13:29:00,
2013-01-14 08:30:00,56.0,54.6,27.28,SSE,162,0.0,0.0,95,0.02,,SKC,0.24,VWS V14.01,2013-01-14 13:30:00,
2013-01-14 08:31:00,47.9,46.3,27.28,ESE,114,0.0,9.0,94,0.45,,SKC,2.62,VWS V14.01,2013-01-14 13:31:00,
2013-01-14 08:32:00,47.9,46.3,27.28,ESE,115,1.0,9.0,94,0.46,,SKC,2.63,VWS V14.01,2013-01-14 13:32:00,
2013-01-14 08:33:00,47.9,46.3,27.28,ESE,115,0.0,9.0,94,0.46,,SKC,2.63,VWS V14.01,2013-01-14 13:33:00,
2013-01-14 08:34:00,47.9,46.3,27.28,ESE,115,0.0,9.0,94,0.46,,SKC,2.63,VWS V14.01,2013-01-14 13:34:00,
2013-01-14 08:35:00,56.0,54.6,27.28,SSE,162,0.0,0.0,95,0.03,,SKC,0.25,VWS V14.01,2013-01-14 13:35:00,
2013-01-14 08:36:00,47.9,46.3,27.28,ESE,114,0.0,9.0,94,0.46,,SKC,2.63,VWS V14.01,2013-01-14 13:36:00,
2013-01-14 08:37:00,47.9,46.3,27.28,ESE,115,0.0,9.0,94,0.46,,SKC,2.63,VWS V14.01,2013-01-14 13:37:00,
2013-01-14 08:38:00,47.9,46.3,27.28,ESE,115,0.0,9.0,94,0.47,,SKC,2.64,VWS V14.01,2013-01-14 13:38:00,
2013-01-14 08:39:00,47.9,46.3,27.28,ESE,114,0.0,9.0,94,0.47,,SKC,2.64,VWS V14.01,2013-01-14 13:39:00,
2013-01-14 08:40:00,55.9,54.5,27.28,SSE,161,0.0,0.0,95,0.06,,SKC,0.29,VWS V14.01,2013-01-14 13:40:00,
2013-01-14 08:41:00,47.9,46.3,27.28,ESE,114,0.0,9.0,94,0.47,,SKC,2.64,VWS V14.01,2013-01-14 13:41:00,
2013-01-14 08:42:00,47.9,46.3,27.28,ESE,114,0.0,9.0,94,0.48,,SKC,2.65,VWS V14.01,2013-01-14 13:42:00,
2013-01-14 08:43:00,47.9,46.3,27.28,ESE,115,5.0,9.0,94,0.48,,SKC,2.65,VWS V14.01,2013-01-14 13:43:00,
2013-01-14 08:44:00,47.9,46.3,27.28,SE,125,4.0,9.0,94,0.48,,SKC,2.65,VWS V14.01,2013-01-14 13:44:00,
2013-01-14 08:45:00,55.9,54.5,27.28,SSE,161,0.0,0.0,95,0.08,,SKC,0.31,VWS V14.01,2013-01-14 13:45:00,
2013-01-14 08:46:00,47.8,46.2,27.28,SE,126,2.0,9.0,94,0.49,,SKC,2.66,VWS V14.01,2013-01-14 13:46:00,
2013-01-14 08:47:00,47.8,46.2,27.28,SE,126,0.0,9.0,94,0.49,,SKC,2.66,VWS V14.01,2013-01-14 13:47:00,
2013-01-14 08:48:00,47.8,46.2,27.28,SE,126,2.0,9.0,94,0.50,,SKC,2.67,VWS V14.01,2013-01-14 13:48:00,
2013-01-14 08:49:00,47.8,46.2,27.28,SE,126,0.0,9.0,94,0.50,,SKC,2.67,VWS V14.01,2013-01-14 13:49:00,
2013-01-14 08:50:00,55.9,54.5,27.28,SSE,161,0.0,0.0,95,0.07,,SKC,0.31,VWS V14.01,2013-01-14 13:50:00,
2013-01-14 08:51:00,47.8,46.2,27.28,SE,125,0.0,9.0,94,0.50,,SKC,2.67,VWS V14.01,2013-01-14 13:51:00,
2013-01-14 08:52:00,47.8,46.2,27.28,SE,126,0.0,9.0,94,0.51,,SKC,2.68,VWS V14.01,2013-01-14 13:52:00,
2013-01-14 08:53:00,47.8,46.2,27.28,SE,126,0.0,9.0,94,0.51,,SKC,2.68,VWS V14.01,2013-01-14 13:53:00,
2013-01-14 08:54:00,47.8,46.2,27.28,SE,126,0.0,9.0,94,0.51,,SKC,2.68,VWS V14.01,2013-01-14 13:54:00,
2013-01-14 08:55:00,55.9,54.5,27.28,SSE,162,0.0,0.0,95,0.07,,SKC,0.31,VWS V14.01,2013-01-14 13:55:00,
2013-01-14 08:56:00,47.7,46.1,27.28,SE,126,0.0,9.0,94,0.51,,SKC,2.68,VWS V14.01,2013-01-14 13:56:00,
2013-01-14 08:57:00,47.7,46.1,27.28,SE,126,0.0,9.0,94,0.51,,SKC,2.68,VWS V14.01,2013-01-14 13:57:00,
2013-01-14 08:58:00,47.7,46.1,27.28,SE,126,0.0,9.0,94,0.52,,SKC,2.69,VWS V14.01,2013-01-14 13:58:00,
2013-01-14 08:59:00,47.7,46.1,27.28,SE,125,4.0,9.0,94,0.52,,SKC,2.69,VWS V14.01,2013-01-14 13:59:00,
2013-01-14 09:00:00,56.0,54.6,27.28,SSE,162,0.0,0.0,95,0.07,,SKC,0.31,VWS V14.01,2013-01-14 14:00:00,
2013-01-14 09:01:00,47.6,46.0,27.28,SE,125,0.0,9.0,94,0.52,,SKC,2.69,VWS V14.01,2013-01-14 14:01:00,
2013-01-14 09:02:00,47.6,46.0,27.28,SE,126,0.0,9.0,94,0.53,,SKC,2.70,VWS V14.01,2013-01-14 14:02:00,
2013-01-14 09:03:00,47.6,46.0,27.28,SE,126,4.0,9.0,94,0.53,,SKC,2.70,VWS V14.01,2013-01-14 14:03:00,
2013-01-14 09:04:00,47.5,45.9,27.28,SE,126,1.0,9.0,94,0.53,,SKC,2.70,VWS V14.01,2013-01-14 14:04:00,
2013-01-14 09:05:00,56.0,54.6,27.28,SSE,162,0.0,0.0,95,0.07,,SKC,0.31,VWS V14.01,2013-01-14 14:05:00,
2013-01-14 09:06:00,47.4,45.8,27.28,SE,126,0.0,9.0,94,0.54,,SKC,2.71,VWS V14.01,2013-01-14 14:06:00,
2013-01-14 09:07:00,47.4,45.8,27.28,SE,126,0.0,9.0,94,0.54,,SKC,2.71,VWS V14.01,2013-01-14 14:07:00,
2013-01-14 09:08:00,47.4,45.8,27.28,SE,126,1.0,9.0,94,0.55,,SKC,2.72,VWS V14.01,2013-01-14 14:08:00,
2013-01-14 09:09:00,47.4,45.8,27.28,SE,126,0.0,9.0,94,0.55,,SKC,2.72,VWS V14.01,2013-01-14 14:09:00,
2013-01-14 09:10:00,56.0,54.6,27.28,SSE,161,0.0,0.0,95,0.07,,SKC,0.31,VWS V14.01,2013-01-14 14:10:00,
2013-01-14 09:11:00,47.3,45.7,27.28,SE,126,0.0,9.0,94,0.55,,SKC,2.72,VWS V14.01,2013-01-14 14:11:00,
2013-01-14 09:12:00,47.3,45.7,27.28,ESE,123,4.0,9.0,94,0.55,,SKC,2.72,VWS V14.01,2013-01-14 14:12:00,
2013-01-14 09:13:00,47.3,45.7,27.28,ESE,123,5.0,9.0,94,0.55,,SKC,2.72,VWS V14.01,2013-01-14 14:13:00,
2013-01-14 09:14:00,47.2,45.6,27.28,ESE,115,4.0,9.0,94,0.55,,SKC,2.72,VWS V14.01,2013-01-14 14:14:00,
2013-01-14 09:15:00,56.0,54.6,27.28,SSE,161,0.0,0.0,95,0.09,,SKC,0.33,VWS V14.01,2013-01-14 14:15:00,
2013-01-14 09:16:00,47.0,45.4,27.28,ESE,115,1.0,9.0,94,0.56,,SKC,2.73,VWS V14.01,2013-01-14 14:16:00,
2013-01-14 09:17:00,47.0,45.4,27.28,ESE,119,4.0,9.0,94,0.56,,SKC,2.73,VWS V14.01,2013-01-14 14:17:00,
2013-01-14 09:18:00,46.9,45.0,27.28,ESE,118,0.0,9.0,93,0.56,,SKC,2.73,VWS V14.01,2013-01-14 14:18:00,
2013-01-14 09:19:00,46.8,44.9,27.28,ESE,118,0.0,9.0,93,0.56,,SKC,2.73,VWS V14.01,2013-01-14 14:19:00,
2013-01-14 09:20:00,56.0,54.6,27.28,SSE,162,0.0,0.0,95,0.11,,SKC,0.35,VWS V14.01,2013-01-14 14:20:00,
2013-01-14 09:21:00,46.7,44.8,27.28,ESE,117,0.0,9.0,93,0.56,,SKC,2.73,VWS V14.01,2013-01-14 14:21:00,
2013-01-14 09:22:00,46.6,44.7,27.28,ESE,117,4.0,9.0,93,0.56,,SKC,2.73,VWS V14.01,2013-01-14 14:22:00,
2013-01-14 09:23:00,46.5,44.6,27.28,SE,126,6.0,9.0,93,0.56,,SKC,2.73,VWS V14.01,2013-01-14 14:23:00,
2013-01-14 09:24:00,46.3,44.4,27.28,ESE,119,2.0,9.0,93,0.56,,SKC,2.73,VWS V14.01,2013-01-14 14:24:00,
2013-01-14 09:25:00,55.9,54.5,27.28,SSE,162,2.0,2.0,95,0.15,,SKC,0.39,VWS V14.01,2013-01-14 14:25:00,
2013-01-14 09:26:00,46.1,44.2,27.28,ESE,113,2.0,9.0,93,0.56,,SKC,2.73,VWS V14.01,2013-01-14 14:26:00,
2013-01-14 09:27:00,46.0,44.1,27.28,ESE,113,0.0,9.0,93,0.56,,SKC,2.73,VWS V14.01,2013-01-14 14:27:00,
2013-01-14 09:28:00,45.9,44.0,27.28,ESE,113,1.0,9.0,93,0.56,,SKC,2.73,VWS V14.01,2013-01-14 14:28:00,
2013-01-14 09:29:00,45.8,43.9,27.28,ESE,113,0.0,9.0,93,0.56,,SKC,2.73,VWS V14.01,2013-01-14 14:29:00,
2013-01-14 09:30:00,55.8,54.4,27.28,SSE,162,0.0,0.0,95,0.17,,SKC,0.41,VWS V14.01,2013-01-14 14:30:00,
2013-01-14 09:31:00,45.8,43.9,27.28,ESE,113,0.0,9.0,93,0.56,,SKC,2.73,VWS V14.01,2013-01-14 14:31:00,
2013-01-14 09:32:00,45.7,43.8,27.28,ESE,113,1.0,9.0,93,0.56,,SKC,2.73,VWS V14.01,2013-01-14 14:32:00,
2013-01-14 09:33:00,45.6,43.7,27.28,ESE,113,4.0,9.0,93,0.56,,SKC,2.73,VWS V14.01,2013-01-14 14:33:00,
2013-01-14 09:34:00,55.7,54.3,27.28,SSE,162,0.0,0.0,95,0.19,,SKC,0.44,VWS V14.01,2013-01-14 14:34:00,
2013-01-14 09:35:00,45.5,43.6,27.28,ESE,113,2.0,9.0,93,0.56,,SKC,2.73,VWS V14.01,2013-01-14 14:35:00,
2013-01-14 09:36:00,45.4,43.5,27.28,ESE,113,2.0,9.0,93,0.56,,SKC,2.73,VWS V14.01,2013-01-14 14:36:00,
2013-01-14 09:37:00,45.4,43.5,27.28,ESE,106,2.0,9.0,93,0.56,,SKC,2.73,VWS V14.01,2013-01-14 14:37:00,
2013-01-14 09:38:00,45.3,43.4,27.28,ESE,106,1.0,9.0,93,0.56,,SKC,2.73,VWS V14.01,2013-01-14 14:38:00,
2013-01-14 09:39:00,55.6,54.2,27.28,SSE,161,0.0,0.0,95,0.18,,SKC,0.46,VWS V14.01,2013-01-14 14:39:00,
2013-01-14 09:40:00,45.2,43.3,27.28,ESE,106,0.0,9.0,93,0.56,,SKC,2.73,VWS V14.01,2013-01-14 14:40:00,
2013-01-14 09:41:00,45.1,43.2,27.28,ESE,106,2.0,9.0,93,0.56,,SKC,2.73,VWS V14.01,2013-01-14 14:41:00,
2013-01-14 09:42:00,45.1,43.2,27.28,ESE,106,1.0,9.0,93,0.56,,SKC,2.73,VWS V14.01,2013-01-14 14:42:00,
2013-01-14 09:43:00,45.0,43.1,27.28,ESE,106,5.0,9.0,93,0.56,,SKC,2.73,VWS V14.01,2013-01-14 14:43:00,
2013-01-14 09:44:00,55.6,54.2,27.28,SSE,161,0.0,1.0,95,0.20,,SKC,0.50,VWS V14.01,2013-01-14 14:44:00,
2013-01-14 09:45:00,45.0,43.1,27.28,ESE,107,2.0,9.0,93,0.56,,SKC,2.73,VWS V14.01,2013-01-14 14:45:00,
2013-01-14 09:46:00,45.0,43.1,27.28,ESE,107,1.0,9.0,93,0.56,,SKC,2.73,VWS V14.01,2013-01-14 14:46:00,
2013-01-14 09:47:00,45.0,43.1,27.28,ESE,106,1.0,9.0,93,0.56,,SKC,2.73,VWS V14.01,2013-01-14 14:47:00,
2013-01-14 09:48:00,45.0,43.1,27.28,ESE,107,2.0,9.0,93,0.56,,SKC,2.73,VWS V14.01,2013-01-14 14:48:00,
2013-01-14 09:49:00,55.5,54.1,27.28,SSE,162,0.0,0.0,95,0.21,,SKC,0.52,VWS V14.01,2013-01-14 14:49:00,
2013-01-14 09:50:00,44.9,43.0,27.28,ESE,107,0.0,9.0,93,0.56,,SKC,2.73,VWS V14.01,2013-01-14 14:50:00,
2013-01-14 09:51:00,44.9,43.0,27.28,ESE,107,0.0,9.0,93,0.56,,SKC,2.73,VWS V14.01,2013-01-14 14:51:00,
2013-01-14 09:52:00,44.9,43.0,27.28,ESE,107,0.0,9.0,93,0.56,,SKC,2.73,VWS V14.01,2013-01-14 14:52:00,
2013-01-14 09:53:00,44.9,43.0,27.28,ESE,107,0.0,9.0,93,0.56,,SKC,2.73,VWS V14.01,2013-01-14 14:53:00,
2013-01-14 09:54:00,55.5,54.1,27.28,SSE,162,0.0,0.0,95,0.22,,SKC,0.53,VWS V14.01,2013-01-14 14:54:00,
2013-01-14 09:55:00,44.9,43.0,27.28,ESE,107,0.0,9.0,93,0.56,,SKC,2.73,VWS V14.01,2013-01-14 14:55:00,
2013-01-14 09:56:00,44.9,43.0,27.28,ESE,106,0.0,9.0,93,0.56,,SKC,2.73,VWS V14.01,2013-01-14 14:56:00,
2013-01-14 09:57:00,44.9,43.0,27.28,ESE,106,0.0,9.0,93,0.56,,SKC,2.73,VWS V14.01,2013-01-14 14:57:00,
2013-01-14 09:58:00,44.9,43.0,27.28,ESE,107,0.0,9.0,93,0.56,,SKC,2.73,VWS V14.01,2013-01-14 14:58:00,
2013-01-14 09:59:00,55.4,54.0,27.28,SSE,162,2.0,2.0,95,0.23,,SKC,0.54,VWS V14.01,2013-01-14 14:59:00,
2013-01-14 10:00:00,44.9,43.0,27.28,ESE,107,1.0,9.0,93,0.56,,SKC,2.73,VWS V14.01,2013-01-14 15:00:00,
2013-01-14 10:01:00,44.9,43.0,27.28,ESE,106,0.0,9.0,93,0.56,,SKC,2.73,VWS V14.01,2013-01-14 15:01:00,
2013-01-14 10:02:00,44.9,43.0,27.28,ESE,106,0.0,9.0,93,0.56,,SKC,2.73,VWS V14.01,2013-01-14 15:02:00,
2013-01-14 10:03:00,44.9,43.0,27.28,ESE,106,0.0,9.0,93,0.56,,SKC,2.73,VWS V14.01,2013-01-14 15:03:00,
2013-01-14 10:04:00,55.4,54.0,27.28,SSE,162,1.0,2.0,95,0.27,,SKC,0.58,VWS V14.01,2013-01-14 15:04:00,
2013-01-14 10:05:00,44.9,43.0,27.28,ESE,107,0.0,9.0,93,0.56,,SKC,2.73,VWS V14.01,2013-01-14 15:05:00,
2013-01-14 10:06:00,44.9,43.0,27.28,ESE,107,0.0,9.0,93,0.56,,SKC,2.73,VWS V14.01,2013-01-14 15:06:00,
2013-01-14 10:07:00,44.9,43.0,27.28,ESE,107,0.0,9.0,93,0.56,,SKC,2.73,VWS V14.01,2013-01-14 15:07:00,
2013-01-14 10:08:00,44.9,43.0,27.28,ESE,107,0.0,9.0,93,0.56,,SKC,2.73,VWS V14.01,2013-01-14 15:08:00,
2013-01-14 10:09:00,55.2,53.8,27.28,SSE,161,1.0,1.0,95,0.29,,SKC,0.60,VWS V14.01,2013-01-14 15:09:00,
2013-01-14 10:10:00,44.9,43.0,27.28,ESE,106,0.0,9.0,93,0.56,,SKC,2.73,VWS V14.01,2013-01-14 15:10:00,
2013-01-14 10:11:00,44.8,42.9,27.28,ESE,106,0.0,9.0,93,0.56,,SKC,2.73,VWS V14.01,2013-01-14 15:11:00,
2013-01-14 10:12:00,44.9,43.0,27.28,ESE,106,1.0,9.0,93,0.56,,SKC,2.73,VWS V14.01,2013-01-14 15:12:00,
2013-01-14 10:13:00,44.8,42.9,27.28,ESE,106,0.0,9.0,93,0.56,,SKC,2.73,VWS V14.01,2013-01-14 15:13:00,
2013-01-14 10:14:00,55.0,53.6,27.28,SSE,162,0.0,0.0,95,0.28,,SKC,0.61,VWS V14.01,2013-01-14 15:14:00,
2013-01-14 10:15:00,44.8,42.9,27.28,ESE,107,0.0,9.0,93,0.56,,SKC,2.73,VWS V14.01,2013-01-14 15:15:00,
2013-01-14 10:16:00,44.8,42.9,27.28,ESE,107,0.0,9.0,93,0.56,,SKC,2.73,VWS V14.01,2013-01-14 15:16:00,
2013-01-14 10:17:00,44.8,42.9,27.28,ESE,106,0.0,9.0,93,0.56,,SKC,2.73,VWS V14.01,2013-01-14 15:17:00,
2013-01-14 10:18:00,44.8,42.9,27.28,ESE,106,0.0,9.0,93,0.56,,SKC,2.73,VWS V14.01,2013-01-14 15:18:00,
2013-01-14 10:19:00,54.9,53.5,27.28,SSE,162,0.0,0.0,95,0.29,,SKC,0.64,VWS V14.01,2013-01-14 15:19:00,
2013-01-14 10:20:00,44.8,42.9,27.28,ESE,107,0.0,9.0,93,0.56,,SKC,2.73,VWS V14.01,2013-01-14 15:20:00,
2013-01-14 10:21:00,44.8,42.9,27.28,ESE,107,0.0,9.0,93,0.56,,SKC,2.73,VWS V14.01,2013-01-14 15:21:00,
2013-01-14 10:22:00,44.7,42.8,27.28,ESE,107,0.0,9.0,93,0.56,,SKC,2.73,VWS V14.01,2013-01-14 15:22:00,
2013-01-14 10:23:00,44.8,42.9,27.28,ESE,107,0.0,9.0,93,0.57,,SKC,2.74,VWS V14.01,2013-01-14 15:23:00,
2013-01-14 10:24:00,54.8,53.4,27.28,SSE,162,0.0,1.0,95,0.27,,SKC,0.66,VWS V14.01,2013-01-14 15:24:00,
2013-01-14 10:25:00,44.7,42.8,27.28,ESE,106,0.0,9.0,93,0.57,,SKC,2.74,VWS V14.01,2013-01-14 15:25:00,
2013-01-14 10:26:00,44.8,42.9,27.28,ESE,107,0.0,9.0,93,0.57,,SKC,2.74,VWS V14.01,2013-01-14 15:26:00,
2013-01-14 10:27:00,44.7,42.8,27.28,ESE,107,0.0,9.0,93,0.57,,SKC,2.74,VWS V14.01,2013-01-14 15:27:00,
2013-01-14 10:28:00,44.7,42.8,27.28,ESE,107,0.0,9.0,93,0.57,,SKC,2.74,VWS V14.01,2013-01-14 15:28:00,
2013-01-14 10:29:00,54.6,53.2,27.28,SSE,162,1.0,1.0,95,0.26,,SKC,0.67,VWS V14.01,2013-01-14 15:29:00,
2013-01-14 10:30:00,44.7,42.8,27.28,ESE,106,0.0,9.0,93,0.57,,SKC,2.74,VWS V14.01,2013-01-14 15:30:00,
2013-01-14 10:31:00,44.7,42.8,27.28,ESE,106,0.0,9.0,93,0.57,,SKC,2.74,VWS V14.01,2013-01-14 15:31:00,
2013-01-14 10:32:00,44.7,42.8,27.28,ESE,107,0.0,9.0,93,0.57,,SKC,2.74,VWS V14.01,2013-01-14 15:32:00,
2013-01-14 10:33:00,44.7,42.8,27.28,ESE,106,0.0,9.0,93,0.57,,SKC,2.74,VWS V14.01,2013-01-14 15:33:00,
2013-01-14 10:34:00,54.6,53.2,27.28,SSE,161,0.0,0.0,95,0.25,,SKC,0.69,VWS V14.01,2013-01-14 15:34:00,
2013-01-14 10:35:00,44.7,42.8,27.28,ESE,107,0.0,9.0,93,0.57,,SKC,2.74,VWS V14.01,2013-01-14 15:35:00,
2013-01-14 10:36:00,44.7,42.8,27.28,ESE,107,0.0,9.0,93,0.57,,SKC,2.74,VWS V14.01,2013-01-14 15:36:00,
2013-01-14 10:37:00,44.7,42.8,27.28,ESE,107,0.0,9.0,93,0.57,,SKC,2.74,VWS V14.01,2013-01-14 15:37:00,
2013-01-14 10:38:00,44.7,42.8,27.28,ESE,106,0.0,9.0,93,0.57,,SKC,2.74,VWS V14.01,2013-01-14 15:38:00,
2013-01-14 10:39:00,54.4,53.0,27.28,SSE,162,0.0,0.0,95,0.27,,SKC,0.72,VWS V14.01,2013-01-14 15:39:00,
2013-01-14 10:40:00,44.8,42.9,27.28,ESE,107,0.0,9.0,93,0.57,,SKC,2.74,VWS V14.01,2013-01-14 15:40:00,
2013-01-14 10:41:00,44.8,42.9,27.28,ESE,106,0.0,9.0,93,0.57,,SKC,2.74,VWS V14.01,2013-01-14 15:41:00,
2013-01-14 10:42:00,44.8,42.9,27.28,ESE,106,0.0,9.0,93,0.58,,SKC,2.75,VWS V14.01,2013-01-14 15:42:00,
2013-01-14 10:43:00,44.8,42.9,27.28,ESE,107,0.0,9.0,93,0.58,,SKC,2.75,VWS V14.01,2013-01-14 15:43:00,
2013-01-14 10:44:00,54.4,53.0,27.28,SSE,161,1.0,1.0,95,0.25,,SKC,0.75,VWS V14.01,2013-01-14 15:44:00,
2013-01-14 10:45:00,44.8,42.9,27.28,ESE,106,0.0,9.0,93,0.58,,SKC,2.75,VWS V14.01,2013-01-14 15:45:00,
2013-01-14 10:46:00,44.8,42.9,27.28,ESE,106,0.0,9.0,93,0.58,,SKC,2.75,VWS V14.01,2013-01-14 15:46:00,
2013-01-14 10:47:00,44.8,42.9,27.28,ESE,107,0.0,9.0,93,0.58,,SKC,2.75,VWS V14.01,2013-01-14 15:47:00,
2013-01-14 10:48:00,44.7,42.8,27.28,ESE,106,0.0,9.0,93,0.58,,SKC,2.75,VWS V14.01,2013-01-14 15:48:00,
2013-01-14 10:49:00,54.3,52.6,27.28,SSE,161,0.0,0.0,94,0.27,,SKC,0.79,VWS V14.01,2013-01-14 15:49:00,
2013-01-14 10:50:00,44.7,42.8,27.28,ESE,107,0.0,9.0,93,0.58,,SKC,2.75,VWS V14.01,2013-01-14 15:50:00,
2013-01-14 10:51:00,44.7,42.8,27.28,ESE,107,0.0,9.0,93,0.58,,SKC,2.75,VWS V14.01,2013-01-14 15:51:00,
2013-01-14 10:52:00,44.7,42.8,27.28,ESE,107,0.0,9.0,93,0.58,,SKC,2.75,VWS V14.01,2013-01-14 15:52:00,
2013-01-14 10:53:00,44.7,42.8,27.28,ESE,106,0.0,9.0,93,0.58,,SKC,2.75,VWS V14.01,2013-01-14 15:53:00,
2013-01-14 10:54:00,54.2,52.5,27.28,SSE,161,1.0,4.0,94,0.28,,SKC,0.81,VWS V14.01,2013-01-14 15:54:00,
2013-01-14 10:55:00,44.7,42.8,27.28,ESE,106,0.0,9.0,93,0.58,,SKC,2.75,VWS V14.01,2013-01-14 15:55:00,
2013-01-14 10:56:00,44.7,42.8,27.28,ESE,107,0.0,9.0,93,0.58,,SKC,2.75,VWS V14.01,2013-01-14 15:56:00,
2013-01-14 10:57:00,44.7,42.8,27.28,ESE,106,0.0,9.0,93,0.58,,SKC,2.75,VWS V14.01,2013-01-14 15:57:00,
2013-01-14 10:58:00,44.7,42.8,27.28,ESE,106,1.0,9.0,93,0.58,,SKC,2.75,VWS V14.01,2013-01-14 15:58:00,
2013-01-14 10:59:00,54.1,52.4,27.28,East,80,3.0,3.0,94,0.30,,SKC,0.84,VWS V14.01,2013-01-14 15:59:00,
2013-01-14 11:00:00,44.7,42.8,27.28,ESE,107,0.0,9.0,93,0.58,,SKC,2.75,VWS V14.01,2013-01-14 16:00:00,
2013-01-14 11:01:00,44.6,42.7,27.28,ESE,107,0.0,9.0,93,0.58,,SKC,2.75,VWS V14.01,2013-01-14 16:01:00,
2013-01-14 11:02:00,44.6,42.7,27.28,ESE,107,0.0,9.0,93,0.58,,SKC,2.75,VWS V14.01,2013-01-14 16:02:00,
2013-01-14 11:03:00,44.6,42.7,27.28,ESE,107,0.0,9.0,93,0.58,,SKC,2.75,VWS V14.01,2013-01-14 16:03:00,
2013-01-14 11:04:00,53.9,52.5,27.28,East,80,1.0,1.0,95,0.29,,SKC,0.86,VWS V14.01,2013-01-14 16:04:00,
2013-01-14 11:05:00,44.6,42.7,27.28,ESE,106,0.0,9.0,93,0.59,,SKC,2.76,VWS V14.01,2013-01-14 16:05:00,
2013-01-14 11:06:00,44.6,42.7,27.28,ESE,106,0.0,9.0,93,0.59,,SKC,2.76,VWS V14.01,2013-01-14 16:06:00,
2013-01-14 11:07:00,44.6,42.7,27.28,ESE,107,0.0,9.0,93,0.59,,SKC,2.76,VWS V14.01,2013-01-14 16:07:00,
2013-01-14 11:08:00,44.6,42.7,27.28,ESE,106,0.0,9.0,93,0.59,,SKC,2.76,VWS V14.01,2013-01-14 16:08:00,
2013-01-14 11:09:00,53.7,52.3,27.28,East,96,1.0,4.0,95,0.27,,SKC,0.87,VWS V14.01,2013-01-14 16:09:00,
2013-01-14 11:10:00,44.6,42.7,27.28,ESE,106,0.0,9.0,93,0.59,,SKC,2.76,VWS V14.01,2013-01-14 16:10:00,
2013-01-14 11:11:00,44.6,42.7,27.28,ESE,106,0.0,9.0,93,0.59,,SKC,2.76,VWS V14.01,2013-01-14 16:11:00,
2013-01-14 11:12:00,44.6,42.7,27.28,ESE,107,1.0,9.0,93,0.59,,SKC,2.76,VWS V14.01,2013-01-14 16:12:00,
2013-01-14 11:13:00,44.5,42.6,27.28,ESE,107,1.0,9.0,93,0.59,,SKC,2.76,VWS V14.01,2013-01-14 16:13:00,
2013-01-14 11:14:00,53.7,52.0,27.28,East,95,0.0,0.0,94,0.30,,SKC,0.91,VWS V14.01,2013-01-14 16:14:00,
2013-01-14 11:15:00,44.6,42.7,27.28,ESE,107,0.0,9.0,93,0.59,,SKC,2.76,VWS V14.01,2013-01-14 16:15:00,
2013-01-14 11:16:00,44.6,42.7,27.28,ESE,107,0.0,9.0,93,0.59,,SKC,2.76,VWS V14.01,2013-01-14 16:16:00,
2013-01-14 11:17:00,44.6,42.7,27.28,ESE,107,0.0,9.0,93,0.59,,SKC,2.76,VWS V14.01,2013-01-14 16:17:00,
2013-01-14 11:18:00,44.6,42.7,27.28,ESE,106,0.0,9.0,93,0.59,,SKC,2.76,VWS V14.01,2013-01-14 16:18:00,
2013-01-14 11:19:00,53.6,51.9,27.28,East,95,4.0,4.0,94,0.31,,SKC,0.94,VWS V14.01,2013-01-14 16:19:00,
2013-01-14 11:20:00,44.6,42.7,27.28,ESE,107,2.0,9.0,93,0.60,,SKC,2.77,VWS V14.01,2013-01-14 16:20:00,
2013-01-14 11:21:00,44.6,42.7,27.28,ESE,107,0.0,9.0,93,0.60,,SKC,2.77,VWS V14.01,2013-01-14 16:21:00,
2013-01-14 11:22:00,44.6,42.7,27.28,ESE,107,0.0,9.0,93,0.60,,SKC,2.77,VWS V14.01,2013-01-14 16:22:00,
2013-01-14 11:23:00,44.6,42.7,27.28,ESE,106,0.0,9.0,93,0.60,,SKC,2.77,VWS V14.01,2013-01-14 16:23:00,
2013-01-14 11:24:00,52.9,51.2,27.28,East,98,2.0,4.0,94,0.32,,SKC,0.97,VWS V14.01,2013-01-14 16:24:00,
2013-01-14 11:25:00,44.6,42.7,27.28,ESE,107,0.0,9.0,93,0.60,,SKC,2.77,VWS V14.01,2013-01-14 16:25:00,
2013-01-14 11:26:00,44.6,42.7,27.28,ESE,106,0.0,9.0,93,0.60,,SKC,2.77,VWS V14.01,2013-01-14 16:26:00,
2013-01-14 11:27:00,44.6,42.7,27.28,ESE,106,0.0,9.0,93,0.60,,SKC,2.77,VWS V14.01,2013-01-14 16:27:00,
2013-01-14 11:28:00,44.7,42.8,27.28,ESE,107,0.0,9.0,93,0.60,,SKC,2.77,VWS V14.01,2013-01-14 16:28:00,
2013-01-14 11:29:00,52.6,50.9,27.28,East,98,0.0,0.0,94,0.34,,SKC,1.01,VWS V14.01,2013-01-14 16:29:00,
2013-01-14 11:30:00,44.7,42.8,27.28,ESE,107,1.0,9.0,93,0.60,,SKC,2.77,VWS V14.01,2013-01-14 16:30:00,
2013-01-14 11:31:00,44.7,42.8,27.28,ESE,107,0.0,9.0,93,0.60,,SKC,2.77,VWS V14.01,2013-01-14 16:31:00,
2013-01-14 11:32:00,44.7,42.8,27.28,ESE,107,1.0,9.0,93,0.60,,SKC,2.77,VWS V14.01,2013-01-14 16:32:00,
2013-01-14 11:33:00,44.7,42.8,27.28,ESE,107,2.0,9.0,93,0.60,,SKC,2.77,VWS V14.01,2013-01-14 16:33:00,
2013-01-14 11:34:00,52.4,50.7,27.28,East,98,0.0,0.0,94,0.34,,SKC,1.03,VWS V14.01,2013-01-14 16:34:00,
2013-01-14 11:35:00,44.7,42.8,27.28,ESE,106,1.0,9.0,93,0.60,,SKC,2.77,VWS V14.01,2013-01-14 16:35:00,
2013-01-14 11:36:00,44.7,42.8,27.28,ESE,107,0.0,9.0,93,0.60,,SKC,2.77,VWS V14.01,2013-01-14 16:36:00,
2013-01-14 11:37:00,44.7,42.8,27.28,ESE,107,0.0,9.0,93,0.60,,SKC,2.77,VWS V14.01,2013-01-14 16:37:00,
2013-01-14 11:38:00,44.8,42.9,27.28,ESE,106,0.0,9.0,93,0.60,,SKC,2.77,VWS V14.01,2013-01-14 16:38:00,
2013-01-14 11:39:00,52.4,50.7,27.28,East,98,0.0,0.0,94,0.33,,SKC,1.05,VWS V14.01,2013-01-14 16:39:00,
2013-01-14 11:40:00,44.8,42.9,27.28,ESE,107,0.0,9.0,93,0.60,,SKC,2.77,VWS V14.01,2013-01-14 16:40:00,
2013-01-14 11:41:00,44.8,43.2,27.28,ESE,107,0.0,9.0,94,0.60,,SKC,2.77,VWS V14.01,2013-01-14 16:41:00,
2013-01-14 11:42:00,44.8,42.9,27.28,ESE,107,0.0,9.0,93,0.60,,SKC,2.77,VWS V14.01,2013-01-14 16:42:00,
2013-01-14 11:43:00,44.9,43.0,27.28,ESE,107,0.0,9.0,93,0.60,,SKC,2.77,VWS V14.01,2013-01-14 16:43:00,
2013-01-14 11:44:00,52.4,50.7,27.28,East,98,0.0,0.0,94,0.32,,SKC,1.07,VWS V14.01,2013-01-14 16:44:00,
2013-01-14 11:45:00,44.9,43.0,27.28,ESE,106,0.0,9.0,93,0.60,,SKC,2.77,VWS V14.01,2013-01-14 16:45:00,
2013-01-14 11:46:00,44.9,43.0,27.28,ESE,107,0.0,9.0,93,0.60,,SKC,2.77,VWS V14.01,2013-01-14 16:46:00,
2013-01-14 11:47:00,44.9,43.0,27.28,ESE,106,0.0,9.0,93,0.60,,SKC,2.77,VWS V14.01,2013-01-14 16:47:00,
2013-01-14 11:48:00,44.9,43.0,27.28,ESE,107,0.0,9.0,93,0.60,,SKC,2.77,VWS V14.01,2013-01-14 16:48:00,
2013-01-14 11:49:00,52.5,50.8,27.28,East,98,0.0,0.0,94,0.30,,SKC,1.09,VWS V14.01,2013-01-14 16:49:00,
2013-01-14 11:50:00,45.0,43.4,27.28,ESE,107,0.0,9.0,94,0.60,,SKC,2.77,VWS V14.01,2013-01-14 16:50:00,
2013-01-14 11:51:00,45.0,43.4,27.28,ESE,107,0.0,9.0,94,0.60,,SKC,2.77,VWS V14.01,2013-01-14 16:51:00,
2013-01-14 11:52:00,45.0,43.4,27.28,ESE,107,0.0,9.0,94,0.60,,SKC,2.77,VWS V14.01,2013-01-14 16:52:00,
2013-01-14 11:53:00,45.0,43.4,27.28,ESE,106,0.0,9.0,94,0.60,,SKC,2.77,VWS V14.01,2013-01-14 16:53:00,
2013-01-14 11:54:00,52.3,50.6,27.28,East,98,0.0,0.0,94,0.29,,SKC,1.10,VWS V14.01,2013-01-14 16:54:00,
2013-01-14 11:55:00,45.0,43.4,27.28,ESE,107,0.0,9.0,94,0.60,,SKC,2.77,VWS V14.01,2013-01-14 16:55:00,
2013-01-14 11:56:00,45.0,43.4,27.28,ESE,107,0.0,9.0,94,0.60,,SKC,2.77,VWS V14.01,2013-01-14 16:56:00,
2013-01-14 11:57:00,45.0,43.4,27.28,ESE,107,0.0,9.0,94,0.60,,SKC,2.77,VWS V14.01,2013-01-14 16:57:00,
2013-01-14 11:58:00,45.0,43.4,27.28,ESE,107,0.0,9.0,94,0.60,,SKC,2.77,VWS V14.01,2013-01-14 16:58:00,
2013-01-14 11:59:00,52.1,50.4,27.28,East,98,1.0,2.0,94,0.27,,SKC,1.11,VWS V14.01,2013-01-14 16:59:00,
2013-01-14 12:00:00,45.0,43.4,27.28,ESE,107,0.0,9.0,94,0.60,,SKC,2.77,VWS V14.01,2013-01-14 17:00:00,
2013-01-14 12:01:00,45.0,43.4,27.28,ESE,107,0.0,9.0,94,0.60,,SKC,2.77,VWS V14.01,2013-01-14 17:01:00,
2013-01-14 12:02:00,45.0,43.4,27.28,ESE,107,0.0,9.0,94,0.60,,SKC,2.77,VWS V14.01,2013-01-14 17:02:00,
2013-01-14 12:03:00,45.0,43.4,27.28,ESE,107,0.0,9.0,94,0.60,,SKC,2.77,VWS V14.01,2013-01-14 17:03:00,
2013-01-14 12:04:00,51.9,50.2,27.28,East,98,0.0,0.0,94,0.26,,SKC,1.12,VWS V14.01,2013-01-14 17:04:00,
2013-01-14 12:05:00,45.1,43.5,27.28,ESE,106,0.0,9.0,94,0.60,,SKC,2.77,VWS V14.01,2013-01-14 17:05:00,
2013-01-14 12:06:00,45.1,43.5,27.28,ESE,107,0.0,9.0,94,0.60,,SKC,2.77,VWS V14.01,2013-01-14 17:06:00,
2013-01-14 12:07:00,45.1,43.5,27.28,ESE,106,0.0,9.0,94,0.60,,SKC,2.77,VWS V14.01,2013-01-14 17:07:00,
2013-01-14 12:08:00,45.1,43.5,27.28,ESE,107,0.0,9.0,94,0.60,,SKC,2.77,VWS V14.01,2013-01-14 17:08:00,
2013-01-14 12:09:00,51.9,50.2,27.28,East,98,1.0,1.0,94,0.27,,SKC,1.14,VWS V14.01,2013-01-14 17:09:00,
2013-01-14 12:10:00,45.1,43.5,27.28,ESE,107,0.0,9.0,94,0.60,,SKC,2.77,VWS V14.01,2013-01-14 17:10:00,
2013-01-14 12:11:00,45.1,43.5,27.28,ESE,107,0.0,9.0,94,0.61,,SKC,2.78,VWS V14.01,2013-01-14 17:11:00,
2013-01-14 12:12:00,45.1,43.5,27.28,ESE,106,0.0,9.0,94,0.61,,SKC,2.78,VWS V14.01,2013-01-14 17:12:00,
2013-01-14 12:13:00,45.1,43.5,27.28,ESE,107,0.0,9.0,94,0.61,,SKC,2.78,VWS V14.01,2013-01-14 17:13:00,
2013-01-14 12:14:00,51.8,50.1,27.28,East,98,0.0,0.0,94,0.26,,SKC,1.17,VWS V14.01,2013-01-14 17:14:00,
2013-01-14 12:15:00,45.1,43.5,27.28,ESE,107,0.0,9.0,94,0.61,,SKC,2.78,VWS V14.01,2013-01-14 17:15:00,
2013-01-14 12:16:00,45.1,43.5,27.28,ESE,106,1.0,9.0,94,0.61,,SKC,2.78,VWS V14.01,2013-01-14 17:16:00,
2013-01-14 12:17:00,45.1,43.5,27.28,ESE,106,0.0,9.0,94,0.61,,SKC,2.78,VWS V14.01,2013-01-14 17:17:00,
2013-01-14 12:18:00,45.1,43.5,27.28,ESE,107,0.0,9.0,94,0.61,,SKC,2.78,VWS V14.01,2013-01-14 17:18:00,
2013-01-14 12:19:00,51.7,50.0,27.28,East,98,0.0,0.0,94,0.26,,SKC,1.20,VWS V14.01,2013-01-14 17:19:00,
2013-01-14 12:20:00,45.1,43.5,27.28,ESE,107,0.0,9.0,94,0.61,,SKC,2.78,VWS V14.01,2013-01-14 17:20:00,
2013-01-14 12:21:00,45.1,43.5,27.28,ESE,106,0.0,9.0,94,0.61,,SKC,2.78,VWS V14.01,2013-01-14 17:21:00,
2013-01-14 12:22:00,45.1,43.5,27.28,ESE,107,0.0,9.0,94,0.61,,SKC,2.78,VWS V14.01,2013-01-14 17:22:00,
2013-01-14 12:23:00,45.1,43.5,27.28,ESE,107,0.0,9.0,94,0.61,,SKC,2.78,VWS V14.01,2013-01-14 17:23:00,
2013-01-14 12:24:00,51.5,49.8,27.28,East,98,0.0,0.0,94,0.25,,SKC,1.22,VWS V14.01,2013-01-14 17:24:00,
2013-01-14 12:25:00,45.1,43.5,27.28,ESE,107,0.0,9.0,94,0.61,,SKC,2.78,VWS V14.01,2013-01-14 17:25:00,
2013-01-14 12:26:00,45.1,43.5,27.28,ESE,107,0.0,9.0,94,0.61,,SKC,2.78,VWS V14.01,2013-01-14 17:26:00,
2013-01-14 12:27:00,45.1,43.5,27.28,ESE,107,0.0,9.0,94,0.61,,SKC,2.78,VWS V14.01,2013-01-14 17:27:00,
2013-01-14 12:28:00,45.1,43.5,27.28,ESE,107,0.0,9.0,94,0.61,,SKC,2.78,VWS V14.01,2013-01-14 17:28:00,
2013-01-14 12:29:00,51.5,49.8,27.28,East,98,0.0,0.0,94,0.23,,SKC,1.23,VWS V14.01,2013-01-14 17:29:00,
2013-01-14 12:30:00,45.1,43.5,27.28,ESE,106,1.0,9.0,94,0.61,,SKC,2.78,VWS V14.01,2013-01-14 17:30:00,
2013-01-14 12:31:00,45.1,43.5,27.28,ESE,107,0.0,9.0,94,0.61,,SKC,2.78,VWS V14.01,2013-01-14 17:31:00,
2013-01-14 12:32:00,45.1,43.5,27.28,ESE,107,0.0,9.0,94,0.61,,SKC,2.78,VWS V14.01,2013-01-14 17:32:00,
2013-01-14 12:33:00,45.1,43.5,27.28,ESE,107,0.0,9.0,94,0.62,,SKC,2.79,VWS V14.01,2013-01-14 17:33:00,
2013-01-14 12:34:00,51.4,49.7,27.28,East,98,0.0,0.0,94,0.22,,SKC,1.25,VWS V14.01,2013-01-14 17:34:00,
2013-01-14 12:35:00,45.1,43.5,27.28,ESE,107,0.0,9.0,94,0.62,,SKC,2.79,VWS V14.01,2013-01-14 17:35:00,
2013-01-14 12:36:00,45.1,43.5,27.28,ESE,107,0.0,9.0,94,0.62,,SKC,2.79,VWS V14.01,2013-01-14 17:36:00,
2013-01-14 12:37:00,45.1,43.5,27.28,ESE,107,0.0,9.0,94,0.62,,SKC,2.79,VWS V14.01,2013-01-14 17:37:00,
2013-01-14 12:38:00,45.1,43.5,27.28,ESE,107,0.0,9.0,94,0.62,,SKC,2.79,VWS V14.01,2013-01-14 17:38:00,
2013-01-14 12:39:00,51.4,49.7,27.28,East,98,0.0,0.0,94,0.24,,SKC,1.28,VWS V14.01,2013-01-14 17:39:00,
2013-01-14 12:40:00,45.2,43.6,27.28,ESE,106,0.0,9.0,94,0.62,,SKC,2.79,VWS V14.01,2013-01-14 17:40:00,
2013-01-14 12:41:00,45.1,43.5,27.28,ESE,106,0.0,9.0,94,0.62,,SKC,2.79,VWS V14.01,2013-01-14 17:41:00,
2013-01-14 12:42:00,45.1,43.5,27.28,ESE,107,0.0,9.0,94,0.62,,SKC,2.79,VWS V14.01,2013-01-14 17:42:00,
2013-01-14 12:43:00,45.1,43.5,27.28,ESE,107,0.0,9.0,94,0.62,,SKC,2.79,VWS V14.01,2013-01-14 17:43:00,
2013-01-14 12:44:00,51.4,49.7,27.28,East,98,1.0,2.0,94,0.27,,SKC,1.33,VWS V14.01,2013-01-14 17:44:00,
2013-01-14 12:45:00,45.1,43.5,27.28,ESE,107,2.0,9.0,94,0.62,,SKC,2.79,VWS V14.01,2013-01-14 17:45:00,
2013-01-14 12:46:00,45.1,43.5,27.28,ESE,107,1.0,9.0,94,0.62,,SKC,2.79,VWS V14.01,2013-01-14 17:46:00,
2013-01-14 12:47:00,45.1,43.5,27.28,ESE,107,4.0,9.0,94,0.62,,SKC,2.79,VWS V14.01,2013-01-14 17:47:00,
2013-01-14 12:48:00,45.1,43.5,27.28,ESE,107,2.0,9.0,94,0.62,,SKC,2.79,VWS V14.01,2013-01-14 17:48:00,
2013-01-14 12:49:00,51.4,49.7,27.28,East,98,0.0,1.0,94,0.27,,SKC,1.36,VWS V14.01,2013-01-14 17:49:00,
2013-01-14 12:50:00,45.1,43.5,27.28,ESE,106,1.0,9.0,94,0.62,,SKC,2.79,VWS V14.01,2013-01-14 17:50:00,
2013-01-14 12:51:00,45.1,43.5,27.28,ESE,107,0.0,9.0,94,0.62,,SKC,2.79,VWS V14.01,2013-01-14 17:51:00,
2013-01-14 12:52:00,45.1,43.5,27.28,ESE,107,1.0,9.0,94,0.62,,SKC,2.79,VWS V14.01,2013-01-14 17:52:00,
2013-01-14 12:53:00,45.1,43.5,27.28,ESE,107,0.0,9.0,94,0.63,,SKC,2.80,VWS V14.01,2013-01-14 17:53:00,
2013-01-14 12:54:00,51.5,49.8,27.28,East,98,0.0,2.0,94,0.29,,SKC,1.39,VWS V14.01,2013-01-14 17:54:00,
2013-01-14 12:55:00,45.1,43.5,27.28,ESE,106,0.0,9.0,94,0.63,,SKC,2.80,VWS V14.01,2013-01-14 17:55:00,
2013-01-14 12:56:00,45.1,43.5,27.28,ESE,106,0.0,9.0,94,0.63,,SKC,2.80,VWS V14.01,2013-01-14 17:56:00,
2013-01-14 12:57:00,45.1,43.5,27.28,ESE,107,0.0,9.0,94,0.63,,SKC,2.80,VWS V14.01,2013-01-14 17:57:00,
2013-01-14 12:58:00,45.1,43.5,27.28,ESE,107,1.0,9.0,94,0.64,,SKC,2.81,VWS V14.01,2013-01-14 17:58:00,
2013-01-14 12:59:00,51.3,49.6,27.28,East,97,0.0,1.0,94,0.29,,SKC,1.40,VWS V14.01,2013-01-14 17:59:00,
2013-01-14 13:00:00,45.1,43.5,27.28,ESE,107,0.0,9.0,94,0.64,,SKC,2.81,VWS V14.01,2013-01-14 18:00:00,
2013-01-14 13:01:00,45.1,43.5,27.28,ESE,107,0.0,9.0,94,0.64,,SKC,2.81,VWS V14.01,2013-01-14 18:01:00,
2013-01-14 13:02:00,45.1,43.5,27.28,ESE,106,1.0,9.0,94,0.64,,SKC,2.81,VWS V14.01,2013-01-14 18:02:00,
2013-01-14 13:03:00,45.0,43.4,27.28,ESE,106,0.0,9.0,94,0.64,,SKC,2.81,VWS V14.01,2013-01-14 18:03:00,
2013-01-14 13:04:00,51.2,49.5,27.28,East,97,0.0,0.0,94,0.32,,SKC,1.44,VWS V14.01,2013-01-14 18:04:00,
2013-01-14 13:05:00,45.0,43.4,27.28,ESE,107,0.0,9.0,94,0.65,,SKC,2.82,VWS V14.01,2013-01-14 18:05:00,
2013-01-14 13:06:00,45.0,43.4,27.28,ESE,107,1.0,9.0,94,0.65,,SKC,2.82,VWS V14.01,2013-01-14 18:06:00,
2013-01-14 13:07:00,45.0,43.4,27.28,ESE,107,0.0,9.0,94,0.65,,SKC,2.82,VWS V14.01,2013-01-14 18:07:00,
2013-01-14 13:08:00,45.0,43.4,27.28,ESE,106,0.0,9.0,94,0.65,,SKC,2.82,VWS V14.01,2013-01-14 18:08:00,
2013-01-14 13:09:00,51.2,49.5,27.28,East,97,0.0,0.0,94,0.33,,SKC,1.46,VWS V14.01,2013-01-14 18:09:00,
2013-01-14 13:10:00,45.0,43.4,27.28,ESE,106,0.0,9.0,94,0.65,,SKC,2.82,VWS V14.01,2013-01-14 18:10:00,
2013-01-14 13:11:00,45.0,43.4,27.28,ESE,107,2.0,9.0,94,0.65,,SKC,2.82,VWS V14.01,2013-01-14 18:11:00,
2013-01-14 13:12:00,45.0,43.4,27.28,ESE,107,2.0,9.0,94,0.65,,SKC,2.82,VWS V14.01,2013-01-14 18:12:00,
2013-01-14 13:13:00,45.0,43.4,27.28,ESE,113,0.0,9.0,94,0.66,,SKC,2.83,VWS V14.01,2013-01-14 18:13:00,
2013-01-14 13:14:00,51.1,49.4,27.28,East,97,1.0,2.0,94,0.34,,SKC,1.50,VWS V14.01,2013-01-14 18:14:00,
2013-01-14 13:15:00,45.0,43.4,27.28,SSE,160,2.0,9.0,94,0.66,,SKC,2.83,VWS V14.01,2013-01-14 18:15:00,
2013-01-14 13:16:00,45.0,43.4,27.28,WSW,242,2.0,9.0,94,0.66,,SKC,2.83,VWS V14.01,2013-01-14 18:16:00,
2013-01-14 13:17:00,45.0,43.4,27.28,WSW,242,0.0,9.0,94,0.66,,SKC,2.83,VWS V14.01,2013-01-14 18:17:00,
2013-01-14 13:18:00,45.0,43.4,27.28,South,179,1.0,9.0,94,0.66,,SKC,2.83,VWS V14.01,2013-01-14 18:18:00,
2013-01-14 13:19:00,51.1,49.4,27.28,East,97,0.0,0.0,94,0.33,,SKC,1.52,VWS V14.01,2013-01-14 18:19:00,
2013-01-14 13:20:00,44.9,43.3,27.28,West,263,1.0,9.0,94,0.66,,SKC,2.83,VWS V14.01,2013-01-14 18:20:00,
2013-01-14 13:21:00,44.9,43.3,27.28,West,280,0.0,9.0,94,0.66,,SKC,2.83,VWS V14.01,2013-01-14 18:21:00,
2013-01-14 13:22:00,44.9,43.3,27.28,West,281,0.0,9.0,94,0.67,,SKC,2.84,VWS V14.01,2013-01-14 18:22:00,
2013-01-14 13:23:00,44.9,43.3,27.28,West,280,1.0,9.0,94,0.67,,SKC,2.84,VWS V14.01,2013-01-14 18:23:00,
2013-01-14 13:24:00,51.1,49.4,27.28,East,97,1.0,4.0,94,0.34,,SKC,1.55,VWS V14.01,2013-01-14 18:24:00,
2013-01-14 13:25:00,44.8,43.2,27.28,West,280,0.0,9.0,94,0.67,,SKC,2.84,VWS V14.01,2013-01-14 18:25:00,
2013-01-14 13:26:00,44.8,43.2,27.28,West,281,0.0,9.0,94,0.67,,SKC,2.84,VWS V14.01,2013-01-14 18:26:00,
2013-01-14 13:27:00,44.8,43.2,27.28,West,281,1.0,9.0,94,0.67,,SKC,2.84,VWS V14.01,2013-01-14 18:27:00,
2013-01-14 13:28:00,44.8,43.2,27.28,West,281,0.0,9.0,94,0.67,,SKC,2.84,VWS V14.01,2013-01-14 18:28:00,
2013-01-14 13:29:00,51.2,49.5,27.28,East,97,0.0,0.0,94,0.38,,SKC,1.60,VWS V14.01,2013-01-14 18:29:00,
2013-01-14 13:30:00,44.8,43.2,27.28,West,281,1.0,9.0,94,0.67,,SKC,2.84,VWS V14.01,2013-01-14 18:30:00,
2013-01-14 13:31:00,44.7,43.1,27.28,NE,46,0.0,9.0,94,0.67,,SKC,2.84,VWS V14.01,2013-01-14 18:31:00,
2013-01-14 13:32:00,44.7,43.1,27.28,NE,45,1.0,9.0,94,0.67,,SKC,2.84,VWS V14.01,2013-01-14 18:32:00,
2013-01-14 13:33:00,44.7,43.1,27.28,NE,46,0.0,9.0,94,0.67,,SKC,2.84,VWS V14.01,2013-01-14 18:33:00,
2013-01-14 13:34:00,51.1,49.4,27.28,East,97,0.0,2.0,94,0.41,,SKC,1.65,VWS V14.01,2013-01-14 18:34:00,
2013-01-14 13:35:00,44.7,43.1,27.28,NE,46,3.0,9.0,94,0.67,,SKC,2.84,VWS V14.01,2013-01-14 18:35:00,
2013-01-14 13:36:00,44.7,43.1,27.28,NE,45,1.0,9.0,94,0.67,,SKC,2.84,VWS V14.01,2013-01-14 18:36:00,
2013-01-14 13:37:00,44.7,43.1,27.28,NE,45,1.0,9.0,94,0.67,,SKC,2.84,VWS V14.01,2013-01-14 18:37:00,
2013-01-14 13:38:00,44.7,43.1,27.28,NE,46,0.0,9.0,94,0.67,,SKC,2.84,VWS V14.01,2013-01-14 18:38:00,
2013-01-14 13:39:00,51.1,49.4,27.28,East,97,0.0,0.0,94,0.41,,SKC,1.69,VWS V14.01,2013-01-14 18:39:00,
2013-01-14 13:40:00,44.6,43.0,27.28,NE,46,2.0,9.0,94,0.67,,SKC,2.84,VWS V14.01,2013-01-14 18:40:00,
2013-01-14 13:41:00,44.7,43.1,27.28,NE,46,0.0,9.0,94,0.67,,SKC,2.84,VWS V14.01,2013-01-14 18:41:00,
2013-01-14 13:42:00,44.7,43.1,27.28,NE,46,0.0,9.0,94,0.67,,SKC,2.84,VWS V14.01,2013-01-14 18:42:00,
2013-01-14 13:43:00,44.6,43.0,27.28,NE,45,0.0,9.0,94,0.67,,SKC,2.84,VWS V14.01,2013-01-14 18:43:00,
2013-01-14 13:44:00,51.1,49.4,27.28,East,97,0.0,0.0,94,0.39,,SKC,1.72,VWS V14.01,2013-01-14 18:44:00,
2013-01-14 13:45:00,44.6,43.0,27.28,NE,46,1.0,9.0,94,0.67,,SKC,2.84,VWS V14.01,2013-01-14 18:45:00,
2013-01-14 13:46:00,44.6,43.0,27.28,NE,46,0.0,9.0,94,0.67,,SKC,2.84,VWS V14.01,2013-01-14 18:46:00,
2013-01-14 13:47:00,44.6,43.0,27.28,NE,46,0.0,9.0,94,0.67,,SKC,2.84,VWS V14.01,2013-01-14 18:47:00,
2013-01-14 13:48:00,44.6,43.0,27.28,NE,46,0.0,9.0,94,0.67,,SKC,2.84,VWS V14.01,2013-01-14 18:48:00,
2013-01-14 13:49:00,51.1,49.4,27.28,East,97,0.0,0.0,94,0.38,,SKC,1.74,VWS V14.01,2013-01-14 18:49:00,
2013-01-14 13:50:00,44.6,43.0,27.28,NE,46,0.0,9.0,94,0.67,,SKC,2.84,VWS V14.01,2013-01-14 18:50:00,
2013-01-14 13:51:00,44.6,43.0,27.28,NE,46,0.0,9.0,94,0.67,,SKC,2.84,VWS V14.01,2013-01-14 18:51:00,
2013-01-14 13:52:00,44.6,43.0,27.28,NE,46,2.0,9.0,94,0.67,,SKC,2.84,VWS V14.01,2013-01-14 18:52:00,
2013-01-14 13:53:00,44.6,43.0,27.28,NE,46,2.0,9.0,94,0.67,,SKC,2.84,VWS V14.01,2013-01-14 18:53:00,
2013-01-14 13:54:00,51.2,49.5,27.28,East,96,0.0,0.0,94,0.39,,SKC,1.77,VWS V14.01,2013-01-14 18:54:00,
2013-01-14 13:55:00,44.6,43.0,27.28,NE,46,0.0,9.0,94,0.67,,SKC,2.84,VWS V14.01,2013-01-14 18:55:00,
2013-01-14 13:56:00,44.6,43.0,27.28,NE,46,0.0,9.0,94,0.67,,SKC,2.84,VWS V14.01,2013-01-14 18:56:00,
2013-01-14 13:57:00,44.6,43.0,27.28,NE,45,0.0,9.0,94,0.67,,SKC,2.84,VWS V14.01,2013-01-14 18:57:00,
2013-01-14 13:58:00,44.6,43.0,27.28,NE,46,1.0,9.0,94,0.67,,SKC,2.84,VWS V14.01,2013-01-14 18:58:00,
2013-01-14 13:59:00,51.2,49.5,27.28,East,96,0.0,0.0,94,0.39,,SKC,1.79,VWS V14.01,2013-01-14 18:59:00,
2013-01-14 14:00:00,44.6,43.0,27.28,NE,45,2.0,9.0,94,0.67,,SKC,2.84,VWS V14.01,2013-01-14 19:00:00,
2013-01-14 14:01:00,44.6,43.0,27.28,NE,46,1.0,9.0,94,0.67,,SKC,2.84,VWS V14.01,2013-01-14 19:01:00,
2013-01-14 14:02:00,44.6,43.0,27.28,NE,45,1.0,9.0,94,0.67,,SKC,2.84,VWS V14.01,2013-01-14 19:02:00,
2013-01-14 14:03:00,44.6,43.0,27.28,NE,46,1.0,9.0,94,0.67,,SKC,2.84,VWS V14.01,2013-01-14 19:03:00,
2013-01-14 14:04:00,51.3,49.9,27.28,East,97,0.0,0.0,95,0.38,,SKC,1.81,VWS V14.01,2013-01-14 19:04:00,
2013-01-14 14:05:00,44.6,43.0,27.28,NE,46,0.0,9.0,94,0.67,,SKC,2.84,VWS V14.01,2013-01-14 19:05:00,
2013-01-14 14:06:00,44.6,43.0,27.28,NE,46,1.0,9.0,94,0.67,,SKC,2.84,VWS V14.01,2013-01-14 19:06:00,
2013-01-14 14:07:00,44.6,43.0,27.28,NE,46,0.0,9.0,94,0.67,,SKC,2.84,VWS V14.01,2013-01-14 19:07:00,
2013-01-14 14:08:00,44.6,43.0,27.28,NE,46,0.0,9.0,94,0.67,,SKC,2.84,VWS V14.01,2013-01-14 19:08:00,
2013-01-14 14:09:00,51.3,49.9,27.28,East,96,0.0,0.0,95,0.37,,SKC,1.82,VWS V14.01,2013-01-14 19:09:00,
2013-01-14 14:10:00,44.6,43.0,27.28,NE,46,0.0,9.0,94,0.67,,SKC,2.84,VWS V14.01,2013-01-14 19:10:00,
2013-01-14 14:11:00,44.6,43.0,27.28,NE,46,0.0,9.0,94,0.67,,SKC,2.84,VWS V14.01,2013-01-14 19:11:00,
2013-01-14 14:12:00,44.6,43.0,27.28,NE,46,0.0,9.0,94,0.67,,SKC,2.84,VWS V14.01,2013-01-14 19:12:00,
2013-01-14 14:13:00,44.6,43.0,27.28,NE,46,0.0,9.0,94,0.67,,SKC,2.84,VWS V14.01,2013-01-14 19:13:00,
2013-01-14 14:14:00,51.3,49.9,27.28,East,97,0.0,0.0,95,0.37,,SKC,1.86,VWS V14.01,2013-01-14 19:14:00,
2013-01-14 14:15:00,44.7,43.1,27.28,NE,46,0.0,9.0,94,0.67,,SKC,2.84,VWS V14.01,2013-01-14 19:15:00,
2013-01-14 14:16:00,44.7,43.1,27.28,NE,46,0.0,9.0,94,0.67,,SKC,2.84,VWS V14.01,2013-01-14 19:16:00,
2013-01-14 14:17:00,44.7,43.1,27.28,NE,46,0.0,9.0,94,0.67,,SKC,2.84,VWS V14.01,2013-01-14 19:17:00,
2013-01-14 14:18:00,44.7,43.1,27.28,NE,45,0.0,9.0,94,0.67,,SKC,2.84,VWS V14.01,2013-01-14 19:18:00,
2013-01-14 14:19:00,51.3,49.9,27.28,East,96,0.0,0.0,95,0.35,,SKC,1.87,VWS V14.01,2013-01-14 19:19:00,
2013-01-14 14:20:00,44.7,43.1,27.28,NE,46,0.0,9.0,94,0.67,,SKC,2.84,VWS V14.01,2013-01-14 19:20:00,
2013-01-14 14:21:00,44.7,43.1,27.28,NE,46,0.0,9.0,94,0.68,,SKC,2.85,VWS V14.01,2013-01-14 19:21:00,
2013-01-14 14:22:00,44.7,43.1,27.28,NE,46,0.0,9.0,94,0.68,,SKC,2.85,VWS V14.01,2013-01-14 19:22:00,
2013-01-14 14:23:00,44.7,43.1,27.28,NE,46,0.0,9.0,94,0.68,,SKC,2.85,VWS V14.01,2013-01-14 19:23:00,
2013-01-14 14:24:00,51.2,49.8,27.28,East,96,0.0,1.0,95,0.33,,SKC,1.88,VWS V14.01,2013-01-14 19:24:00,
2013-01-14 14:25:00,44.7,43.1,27.28,NE,45,1.0,9.0,94,0.68,,SKC,2.85,VWS V14.01,2013-01-14 19:25:00,
2013-01-14 14:26:00,44.7,43.1,27.28,NE,46,0.0,9.0,94,0.68,,SKC,2.85,VWS V14.01,2013-01-14 19:26:00,
2013-01-14 14:27:00,44.7,43.1,27.28,NE,46,0.0,9.0,94,0.68,,SKC,2.85,VWS V14.01,2013-01-14 19:27:00,
2013-01-14 14:28:00,44.7,43.1,27.28,NE,46,0.0,9.0,94,0.68,,SKC,2.85,VWS V14.01,2013-01-14 19:28:00,
2013-01-14 14:29:00,51.3,49.9,27.28,East,96,2.0,2.0,95,0.31,,SKC,1.90,VWS V14.01,2013-01-14 19:29:00,
2013-01-14 14:30:00,44.8,43.2,27.28,NE,45,0.0,9.0,94,0.68,,SKC,2.85,VWS V14.01,2013-01-14 19:30:00,
2013-01-14 14:31:00,44.8,43.2,27.28,NE,46,1.0,9.0,94,0.68,,SKC,2.85,VWS V14.01,2013-01-14 19:31:00,
2013-01-14 14:32:00,44.8,43.2,27.28,NE,46,0.0,9.0,94,0.68,,SKC,2.85,VWS V14.01,2013-01-14 19:32:00,
2013-01-14 14:33:00,44.8,43.2,27.28,NE,45,1.0,9.0,94,0.68,,SKC,2.85,VWS V14.01,2013-01-14 19:33:00,
2013-01-14 14:34:00,51.4,50.0,27.28,East,97,0.0,0.0,95,0.30,,SKC,1.94,VWS V14.01,2013-01-14 19:34:00,
2013-01-14 14:35:00,44.8,43.2,27.28,NE,45,0.0,9.0,94,0.68,,SKC,2.85,VWS V14.01,2013-01-14 19:35:00,
2013-01-14 14:36:00,44.8,43.2,27.28,NE,46,0.0,9.0,94,0.68,,SKC,2.85,VWS V14.01,2013-01-14 19:36:00,
2013-01-14 14:37:00,44.7,43.1,27.28,NE,45,0.0,9.0,94,0.68,,SKC,2.85,VWS V14.01,2013-01-14 19:37:00,
2013-01-14 14:38:00,44.8,43.2,27.28,NE,46,1.0,9.0,94,0.69,,SKC,2.86,VWS V14.01,2013-01-14 19:38:00,
2013-01-14 14:39:00,51.4,50.0,27.28,East,97,0.0,0.0,95,0.26,,SKC,1.95,VWS V14.01,2013-01-14 19:39:00,
2013-01-14 14:40:00,44.8,43.2,27.28,NE,46,0.0,9.0,94,0.69,,SKC,2.86,VWS V14.01,2013-01-14 19:40:00,
2013-01-14 14:41:00,44.8,43.2,27.28,NE,46,2.0,9.0,94,0.69,,SKC,2.86,VWS V14.01,2013-01-14 19:41:00,
2013-01-14 14:42:00,44.9,43.3,27.28,NE,46,0.0,9.0,94,0.69,,SKC,2.86,VWS V14.01,2013-01-14 19:42:00,
2013-01-14 14:43:00,44.8,43.2,27.28,NE,46,0.0,9.0,94,0.69,,SKC,2.86,VWS V14.01,2013-01-14 19:43:00,
2013-01-14 14:44:00,51.3,49.9,27.28,East,97,1.0,2.0,95,0.24,,SKC,1.95,VWS V14.01,2013-01-14 19:44:00,
2013-01-14 14:45:00,44.9,43.3,27.28,NE,46,0.0,9.0,94,0.69,,SKC,2.86,VWS V14.01,2013-01-14 19:45:00,
2013-01-14 14:46:00,44.9,43.3,27.28,NE,46,0.0,9.0,94,0.69,,SKC,2.86,VWS V14.01,2013-01-14 19:46:00,
2013-01-14 14:47:00,44.9,43.3,27.28,NE,46,0.0,9.0,94,0.70,,SKC,2.87,VWS V14.01,2013-01-14 19:47:00,
2013-01-14 14:48:00,44.9,43.3,27.28,NE,46,0.0,9.0,94,0.70,,SKC,2.87,VWS V14.01,2013-01-14 19:48:00,
2013-01-14 14:49:00,51.2,49.8,27.28,ENE,71,0.0,1.0,95,0.24,,SKC,1.98,VWS V14.01,2013-01-14 19:49:00,
2013-01-14 14:50:00,44.9,43.3,27.28,NE,45,0.0,9.0,94,0.70,,SKC,2.87,VWS V14.01,2013-01-14 19:50:00,
2013-01-14 14:51:00,44.9,43.3,27.28,NE,46,0.0,9.0,94,0.70,,SKC,2.87,VWS V14.01,2013-01-14 19:51:00,
2013-01-14 14:52:00,44.9,43.3,27.28,NE,46,0.0,9.0,94,0.70,,SKC,2.87,VWS V14.01,2013-01-14 19:52:00,
2013-01-14 14:53:00,44.9,43.3,27.28,NE,45,0.0,9.0,94,0.70,,SKC,2.87,VWS V14.01,2013-01-14 19:53:00,
2013-01-14 14:54:00,51.2,49.8,27.28,ENE,71,0.0,0.0,95,0.24,,SKC,2.01,VWS V14.01,2013-01-14 19:54:00,
2013-01-14 14:55:00,44.9,43.3,27.28,NE,46,0.0,9.0,94,0.70,,SKC,2.87,VWS V14.01,2013-01-14 19:55:00,
2013-01-14 14:56:00,44.9,43.3,27.28,NE,46,0.0,9.0,94,0.70,,SKC,2.87,VWS V14.01,2013-01-14 19:56:00,
2013-01-14 14:57:00,44.9,43.3,27.28,NE,46,0.0,9.0,94,0.71,,SKC,2.88,VWS V14.01,2013-01-14 19:57:00,
2013-01-14 14:58:00,45.0,43.4,27.28,NE,45,0.0,9.0,94,0.71,,SKC,2.88,VWS V14.01,2013-01-14 19:58:00,
2013-01-14 14:59:00,51.2,49.8,27.28,ENE,71,0.0,0.0,95,0.24,,SKC,2.03,VWS V14.01,2013-01-14 19:59:00,
2013-01-14 15:00:00,45.0,43.4,27.28,NE,46,0.0,9.0,94,0.71,,SKC,2.88,VWS V14.01,2013-01-14 20:00:00,
2013-01-14 15:01:00,45.0,43.4,27.28,NE,46,0.0,9.0,94,0.71,,SKC,2.88,VWS V14.01,2013-01-14 20:01:00,
2013-01-14 15:02:00,45.0,43.4,27.28,NE,46,0.0,9.0,94,0.71,,SKC,2.88,VWS V14.01,2013-01-14 20:02:00,
2013-01-14 15:03:00,45.0,43.4,27.28,NE,46,0.0,9.0,94,0.71,,SKC,2.88,VWS V14.01,2013-01-14 20:03:00,
2013-01-14 15:04:00,51.2,49.8,27.28,ENE,71,0.0,1.0,95,0.24,,SKC,2.05,VWS V14.01,2013-01-14 20:04:00,
2013-01-14 15:05:00,45.0,43.4,27.28,NE,45,0.0,9.0,94,0.71,,SKC,2.88,VWS V14.01,2013-01-14 20:05:00,
2013-01-14 15:06:00,45.0,43.4,27.28,NE,45,0.0,9.0,94,0.71,,SKC,2.88,VWS V14.01,2013-01-14 20:06:00,
2013-01-14 15:07:00,45.0,43.4,27.28,NE,46,0.0,9.0,94,0.71,,SKC,2.88,VWS V14.01,2013-01-14 20:07:00,
2013-01-14 15:08:00,45.0,43.4,27.28,NE,46,0.0,9.0,94,0.71,,SKC,2.88,VWS V14.01,2013-01-14 20:08:00,
2013-01-14 15:09:00,51.1,49.4,27.28,ENE,71,0.0,0.0,94,0.25,,SKC,2.07,VWS V14.01,2013-01-14 20:09:00,
2013-01-14 15:10:00,45.0,43.4,27.28,NE,46,0.0,9.0,94,0.71,,SKC,2.88,VWS V14.01,2013-01-14 20:10:00,
2013-01-14 15:11:00,45.0,43.4,27.28,NE,46,0.0,9.0,94,0.71,,SKC,2.88,VWS V14.01,2013-01-14 20:11:00,
2013-01-14 15:12:00,45.0,43.4,27.28,NE,45,0.0,9.0,94,0.71,,SKC,2.88,VWS V14.01,2013-01-14 20:12:00,
2013-01-14 15:13:00,45.1,43.5,27.28,NE,46,0.0,9.0,94,0.71,,SKC,2.88,VWS V14.01,2013-01-14 20:13:00,
2013-01-14 15:14:00,51.2,49.8,27.28,ENE,71,0.0,0.0,95,0.24,,SKC,2.09,VWS V14.01,2013-01-14 20:14:00,
2013-01-14 15:15:00,45.1,43.5,27.28,NE,46,0.0,9.0,94,0.71,,SKC,2.88,VWS V14.01,2013-01-14 20:15:00,
2013-01-14 15:16:00,45.1,43.5,27.28,NE,46,0.0,9.0,94,0.71,,SKC,2.88,VWS V14.01,2013-01-14 20:16:00,
2013-01-14 15:17:00,45.1,43.5,27.28,NE,46,0.0,9.0,94,0.71,,SKC,2.88,VWS V14.01,2013-01-14 20:17:00,
2013-01-14 15:18:00,45.1,43.5,27.28,NE,45,0.0,9.0,94,0.71,,SKC,2.88,VWS V14.01,2013-01-14 20:18:00,
2013-01-14 15:19:00,51.2,49.8,27.28,ENE,71,0.0,0.0,95,0.24,,SKC,2.11,VWS V14.01,2013-01-14 20:19:00,
2013-01-14 15:20:00,45.1,43.5,27.28,NE,46,0.0,9.0,94,0.71,,SKC,2.88,VWS V14.01,2013-01-14 20:20:00,
2013-01-14 15:21:00,45.1,43.5,27.28,NE,46,0.0,9.0,94,0.71,,SKC,2.88,VWS V14.01,2013-01-14 20:21:00,
2013-01-14 15:22:00,45.1,43.5,27.28,NE,46,0.0,9.0,94,0.71,,SKC,2.88,VWS V14.01,2013-01-14 20:22:00,
2013-01-14 15:23:00,45.2,43.6,27.28,NE,45,0.0,9.0,94,0.71,,SKC,2.88,VWS V14.01,2013-01-14 20:23:00,
2013-01-14 15:24:00,51.3,49.9,27.28,ENE,71,0.0,0.0,95,0.26,,SKC,2.13,VWS V14.01,2013-01-14 20:24:00,
2013-01-14 15:25:00,45.2,43.6,27.28,NE,45,0.0,9.0,94,0.71,,SKC,2.88,VWS V14.01,2013-01-14 20:25:00,
2013-01-14 15:26:00,45.2,43.6,27.28,NE,46,0.0,9.0,94,0.72,,SKC,2.89,VWS V14.01,2013-01-14 20:26:00,
2013-01-14 15:27:00,45.2,43.6,27.28,NE,46,0.0,9.0,94,0.72,,SKC,2.89,VWS V14.01,2013-01-14 20:27:00,
2013-01-14 15:28:00,45.2,43.6,27.28,NE,45,0.0,9.0,94,0.72,,SKC,2.89,VWS V14.01,2013-01-14 20:28:00,
2013-01-14 15:29:00,51.4,50.0,27.28,ENE,71,0.0,0.0,95,0.24,,SKC,2.14,VWS V14.01,2013-01-14 20:29:00,
2013-01-14 15:30:00,45.2,43.6,27.28,NE,46,0.0,9.0,94,0.72,,SKC,2.89,VWS V14.01,2013-01-14 20:30:00,
2013-01-14 15:31:00,45.3,43.7,27.28,NE,45,0.0,9.0,94,0.72,,SKC,2.89,VWS V14.01,2013-01-14 20:31:00,
2013-01-14 15:32:00,45.3,43.7,27.28,NE,45,0.0,9.0,94,0.72,,SKC,2.89,VWS V14.01,2013-01-14 20:32:00,
2013-01-14 15:33:00,45.3,43.7,27.28,NE,45,0.0,9.0,94,0.72,,SKC,2.89,VWS V14.01,2013-01-14 20:33:00,
2013-01-14 15:34:00,51.5,50.1,27.28,ENE,71,0.0,0.0,95,0.22,,SKC,2.15,VWS V14.01,2013-01-14 20:34:00,
2013-01-14 15:35:00,45.3,43.7,27.28,NE,46,0.0,9.0,94,0.72,,SKC,2.89,VWS V14.01,2013-01-14 20:35:00,
2013-01-14 15:36:00,45.3,43.7,27.28,NE,46,0.0,9.0,94,0.72,,SKC,2.89,VWS V14.01,2013-01-14 20:36:00,
2013-01-14 15:37:00,45.3,43.7,27.28,NE,45,0.0,9.0,94,0.72,,SKC,2.89,VWS V14.01,2013-01-14 20:37:00,
2013-01-14 15:38:00,45.4,43.8,27.28,NE,45,0.0,9.0,94,0.73,,SKC,2.90,VWS V14.01,2013-01-14 20:38:00,
2013-01-14 15:39:00,51.5,50.1,27.28,ENE,71,0.0,0.0,95,0.21,,SKC,2.16,VWS V14.01,2013-01-14 20:39:00,
2013-01-14 15:40:00,45.4,43.8,27.28,NE,45,0.0,9.0,94,0.73,,SKC,2.90,VWS V14.01,2013-01-14 20:40:00,
2013-01-14 15:41:00,45.4,43.8,27.28,NE,45,0.0,9.0,94,0.73,,SKC,2.90,VWS V14.01,2013-01-14 20:41:00,
2013-01-14 15:42:00,45.4,43.8,27.28,NE,46,0.0,9.0,94,0.73,,SKC,2.90,VWS V14.01,2013-01-14 20:42:00,
2013-01-14 15:43:00,45.4,43.8,27.28,NE,45,0.0,9.0,94,0.73,,SKC,2.90,VWS V14.01,2013-01-14 20:43:00,
2013-01-14 15:44:00,51.5,50.1,27.28,ENE,71,0.0,0.0,95,0.21,,SKC,2.16,VWS V14.01,2013-01-14 20:44:00,
2013-01-14 15:45:00,45.5,44.2,27.28,NE,45,0.0,9.0,95,0.73,,SKC,2.90,VWS V14.01,2013-01-14 20:45:00,
2013-01-14 15:46:00,45.5,44.2,27.28,NE,45,0.0,9.0,95,0.73,,SKC,2.90,VWS V14.01,2013-01-14 20:46:00,
2013-01-14 15:47:00,45.5,44.2,27.28,NE,45,0.0,9.0,95,0.73,,SKC,2.90,VWS V14.01,2013-01-14 20:47:00,
2013-01-14 15:48:00,45.5,44.2,27.28,NE,46,0.0,9.0,95,0.73,,SKC,2.90,VWS V14.01,2013-01-14 20:48:00,
2013-01-14 15:49:00,51.5,50.1,27.28,ENE,71,0.0,0.0,95,0.20,,SKC,2.17,VWS V14.01,2013-01-14 20:49:00,
2013-01-14 15:50:00,45.5,44.2,27.28,NE,45,0.0,9.0,95,0.74,,SKC,2.91,VWS V14.01,2013-01-14 20:50:00,
2013-01-14 15:51:00,45.5,43.9,27.28,NE,46,0.0,9.0,94,0.74,,SKC,2.91,VWS V14.01,2013-01-14 20:51:00,
2013-01-14 15:52:00,45.5,43.9,27.28,NE,46,0.0,9.0,94,0.74,,SKC,2.91,VWS V14.01,2013-01-14 20:52:00,
2013-01-14 15:53:00,45.5,43.9,27.28,NE,46,0.0,9.0,94,0.74,,SKC,2.91,VWS V14.01,2013-01-14 20:53:00,
2013-01-14 15:54:00,51.6,50.2,27.28,ENE,71,0.0,0.0,95,0.17,,SKC,2.17,VWS V14.01,2013-01-14 20:54:00,
2013-01-14 15:55:00,45.5,43.9,27.28,NE,46,0.0,9.0,94,0.74,,SKC,2.91,VWS V14.01,2013-01-14 20:55:00,
2013-01-14 15:56:00,45.5,43.9,27.28,NE,45,0.0,9.0,94,0.74,,SKC,2.91,VWS V14.01,2013-01-14 20:56:00,
2013-01-14 15:57:00,45.5,43.9,27.28,NE,46,0.0,9.0,94,0.74,,SKC,2.91,VWS V14.01,2013-01-14 20:57:00,
2013-01-14 15:58:00,45.5,43.9,27.28,NE,46,0.0,9.0,94,0.74,,SKC,2.91,VWS V14.01,2013-01-14 20:58:00,
2013-01-14 15:59:00,51.6,50.2,27.28,ENE,71,0.0,1.0,95,0.14,,SKC,2.17,VWS V14.01,2013-01-14 20:59:00,
2013-01-14 16:00:00,45.5,43.9,27.28,NE,46,0.0,9.0,94,0.74,,SKC,2.91,VWS V14.01,2013-01-14 21:00:00,
2013-01-14 16:01:00,45.6,44.0,27.28,NE,46,0.0,9.0,94,0.74,,SKC,2.91,VWS V14.01,2013-01-14 21:01:00,
2013-01-14 16:02:00,45.6,44.0,27.28,NE,46,0.0,9.0,94,0.74,,SKC,2.91,VWS V14.01,2013-01-14 21:02:00,
2013-01-14 16:03:00,45.6,44.0,27.28,NE,46,0.0,9.0,94,0.74,,SKC,2.91,VWS V14.01,2013-01-14 21:03:00,
2013-01-14 16:04:00,51.5,50.1,27.28,ENE,71,0.0,1.0,95,0.14,,SKC,2.19,VWS V14.01,2013-01-14 21:04:00,
2013-01-14 16:05:00,45.6,44.2,27.28,NE,46,0.0,9.0,95,0.74,,SKC,2.91,VWS V14.01,2013-01-14 21:05:00,
2013-01-14 16:06:00,45.6,44.2,27.28,NE,46,0.0,9.0,95,0.74,,SKC,2.91,VWS V14.01,2013-01-14 21:06:00,
2013-01-14 16:07:00,45.6,44.2,27.28,NE,45,0.0,9.0,95,0.74,,SKC,2.91,VWS V14.01,2013-01-14 21:07:00,
2013-01-14 16:08:00,45.6,44.2,27.28,NE,46,0.0,9.0,95,0.75,,SKC,2.92,VWS V14.01,2013-01-14 21:08:00,
2013-01-14 16:09:00,51.5,50.1,27.28,ENE,71,0.0,0.0,95,0.14,,SKC,2.21,VWS V14.01,2013-01-14 21:09:00,
2013-01-14 16:10:00,45.7,44.3,27.28,NE,45,0.0,9.0,95,0.75,,SKC,2.92,VWS V14.01,2013-01-14 21:10:00,
2013-01-14 16:11:00,45.7,44.3,27.28,NE,45,0.0,9.0,95,0.75,,SKC,2.92,VWS V14.01,2013-01-14 21:11:00,
2013-01-14 16:12:00,45.7,44.3,27.28,NE,46,0.0,9.0,95,0.75,,SKC,2.92,VWS V14.01,2013-01-14 21:12:00,
2013-01-14 16:13:00,45.7,44.3,27.28,NE,46,0.0,9.0,95,0.75,,SKC,2.92,VWS V14.01,2013-01-14 21:13:00,
2013-01-14 16:14:00,51.4,50.0,27.28,ENE,71,0.0,0.0,95,0.14,,SKC,2.23,VWS V14.01,2013-01-14 21:14:00,
2013-01-14 16:15:00,45.7,44.3,27.28,NE,45,0.0,9.0,95,0.75,,SKC,2.92,VWS V14.01,2013-01-14 21:15:00,
2013-01-14 16:16:00,45.8,44.5,27.28,NE,46,0.0,9.0,95,0.75,,SKC,2.92,VWS V14.01,2013-01-14 21:16:00,
2013-01-14 16:17:00,45.8,44.5,27.28,NE,45,0.0,9.0,95,0.76,,SKC,2.93,VWS V14.01,2013-01-14 21:17:00,
2013-01-14 16:18:00,45.8,44.5,27.28,NE,45,0.0,9.0,95,0.76,,SKC,2.93,VWS V14.01,2013-01-14 21:18:00,
2013-01-14 16:19:00,51.4,50.0,27.28,ENE,71,0.0,0.0,95,0.14,,SKC,2.25,VWS V14.01,2013-01-14 21:19:00,
2013-01-14 16:20:00,45.8,44.5,27.28,NE,45,0.0,9.0,95,0.76,,SKC,2.93,VWS V14.01,2013-01-14 21:20:00,
2013-01-14 16:21:00,45.8,44.5,27.28,NE,45,0.0,9.0,95,0.76,,SKC,2.93,VWS V14.01,2013-01-14 21:21:00,
2013-01-14 16:22:00,45.8,44.5,27.28,NE,45,0.0,9.0,95,0.76,,SKC,2.93,VWS V14.01,2013-01-14 21:22:00,
2013-01-14 16:23:00,45.8,44.5,27.28,NE,46,0.0,9.0,95,0.76,,SKC,2.93,VWS V14.01,2013-01-14 21:23:00,
2013-01-14 16:24:00,51.4,50.0,27.28,ENE,71,0.0,0.0,95,0.15,,SKC,2.27,VWS V14.01,2013-01-14 21:24:00,
2013-01-14 16:25:00,45.8,44.5,27.28,NE,46,0.0,9.0,95,0.77,,SKC,2.94,VWS V14.01,2013-01-14 21:25:00,
2013-01-14 16:26:00,45.8,44.5,27.28,NE,46,0.0,9.0,95,0.77,,SKC,2.94,VWS V14.01,2013-01-14 21:26:00,
2013-01-14 16:27:00,45.8,44.5,27.28,NE,45,0.0,9.0,95,0.77,,SKC,2.94,VWS V14.01,2013-01-14 21:27:00,
2013-01-14 16:28:00,45.8,44.5,27.28,NE,45,0.0,9.0,95,0.77,,SKC,2.94,VWS V14.01,2013-01-14 21:28:00,
2013-01-14 16:29:00,51.4,50.0,27.28,ENE,71,0.0,0.0,95,0.13,,SKC,2.27,VWS V14.01,2013-01-14 21:29:00,
2013-01-14 16:30:00,45.9,44.5,27.28,NE,46,0.0,9.0,95,0.77,,SKC,2.94,VWS V14.01,2013-01-14 21:30:00,
2013-01-14 16:31:00,45.9,44.5,27.28,NE,46,0.0,9.0,95,0.77,,SKC,2.94,VWS V14.01,2013-01-14 21:31:00,
2013-01-14 16:32:00,45.9,44.5,27.28,NE,46,0.0,9.0,95,0.77,,SKC,2.94,VWS V14.01,2013-01-14 21:32:00,
2013-01-14 16:33:00,45.9,44.5,27.28,NE,46,0.0,9.0,95,0.78,,SKC,2.95,VWS V14.01,2013-01-14 21:33:00,
2013-01-14 16:34:00,51.4,50.0,27.28,ENE,71,0.0,1.0,95,0.13,,SKC,2.28,VWS V14.01,2013-01-14 21:34:00,
2013-01-14 16:35:00,45.9,44.5,27.28,NE,45,0.0,9.0,95,0.78,,SKC,2.95,VWS V14.01,2013-01-14 21:35:00,
2013-01-14 16:36:00,45.9,44.5,27.28,NE,46,0.0,9.0,95,0.78,,SKC,2.95,VWS V14.01,2013-01-14 21:36:00,
2013-01-14 16:37:00,45.9,44.5,27.28,NE,45,0.0,9.0,95,0.78,,SKC,2.95,VWS V14.01,2013-01-14 21:37:00,
2013-01-14 16:38:00,45.9,44.5,27.28,NE,46,0.0,9.0,95,0.78,,SKC,2.95,VWS V14.01,2013-01-14 21:38:00,
2013-01-14 16:39:00,51.4,50.0,27.28,ENE,71,0.0,0.0,95,0.13,,SKC,2.29,VWS V14.01,2013-01-14 21:39:00,
2013-01-14 16:40:00,46.0,44.7,27.28,NE,46,0.0,9.0,95,0.78,,SKC,2.95,VWS V14.01,2013-01-14 21:40:00,
2013-01-14 16:41:00,46.0,44.7,27.28,NE,46,0.0,9.0,95,0.78,,SKC,2.95,VWS V14.01,2013-01-14 21:41:00,
2013-01-14 16:42:00,46.0,44.7,27.28,NE,46,0.0,9.0,95,0.78,,SKC,2.95,VWS V14.01,2013-01-14 21:42:00,
2013-01-14 16:43:00,46.0,44.7,27.28,NE,46,0.0,9.0,95,0.78,,SKC,2.95,VWS V14.01,2013-01-14 21:43:00,
2013-01-14 16:44:00,51.4,50.0,27.28,ENE,71,0.0,0.0,95,0.15,,SKC,2.31,VWS V14.01,2013-01-14 21:44:00,
2013-01-14 16:45:00,46.0,44.7,27.28,NE,46,0.0,9.0,95,0.78,,SKC,2.95,VWS V14.01,2013-01-14 21:45:00,
2013-01-14 16:46:00,46.1,44.8,27.28,NE,46,0.0,0.0,95,0.79,,SKC,2.96,VWS V14.01,2013-01-14 21:46:00,
2013-01-14 16:47:00,46.1,44.8,27.28,NE,45,0.0,0.0,95,0.79,,SKC,2.96,VWS V14.01,2013-01-14 21:47:00,
2013-01-14 16:48:00,46.1,44.8,27.28,NE,46,0.0,1.0,95,0.79,,SKC,2.96,VWS V14.01,2013-01-14 21:48:00,
2013-01-14 16:49:00,46.1,44.8,27.28,NE,46,0.0,0.0,95,0.79,,SKC,2.96,VWS V14.01,2013-01-14 21:49:00,
2013-01-14 16:50:00,46.1,44.8,27.28,NE,45,0.0,0.0,95,0.79,,SKC,2.96,VWS V14.01,2013-01-14 21:50:00,
2013-01-14 16:51:00,46.1,44.8,27.28,NE,46,0.0,0.0,95,0.79,,SKC,2.96,VWS V14.01,2013-01-14 21:51:00,
2013-01-14 16:52:00,46.1,44.8,27.28,NE,46,0.0,0.0,95,0.79,,SKC,2.96,VWS V14.01,2013-01-14 21:52:00,
2013-01-14 16:53:00,46.1,44.8,27.28,NE,46,0.0,0.0,95,0.79,,SKC,2.96,VWS V14.01,2013-01-14 21:53:00,
2013-01-14 16:54:00,46.1,44.8,27.28,NE,46,0.0,0.0,95,0.79,,SKC,2.96,VWS V14.01,2013-01-14 21:54:00,
2013-01-14 16:55:00,46.2,44.8,27.28,NE,46,0.0,0.0,95,0.79,,SKC,2.96,VWS V14.01,2013-01-14 21:55:00,
2013-01-14 16:56:00,46.2,44.8,27.28,NE,46,0.0,0.0,95,0.79,,SKC,2.96,VWS V14.01,2013-01-14 21:56:00,
2013-01-14 16:57:00,46.2,44.8,27.28,NE,46,0.0,0.0,95,0.79,,SKC,2.96,VWS V14.01,2013-01-14 21:57:00,
2013-01-14 16:58:00,46.2,44.8,27.28,NE,46,0.0,0.0,95,0.79,,SKC,2.96,VWS V14.01,2013-01-14 21:58:00,
2013-01-14 16:59:00,46.2,44.8,27.28,NE,46,0.0,0.0,95,0.78,,SKC,2.96,VWS V14.01,2013-01-14 21:59:00,
2013-01-14 17:00:00,46.2,44.8,27.28,NE,46,0.0,0.0,95,0.78,,SKC,2.96,VWS V14.01,2013-01-14 22:00:00,
2013-01-14 17:01:00,46.2,44.8,27.28,NE,46,0.0,0.0,95,0.78,,SKC,2.96,VWS V14.01,2013-01-14 22:01:00,
2013-01-14 17:02:00,46.2,44.8,27.28,NE,45,0.0,0.0,95,0.77,,SKC,2.96,VWS V14.01,2013-01-14 22:02:00,
2013-01-14 17:03:00,46.2,44.8,27.28,NE,46,0.0,0.0,95,0.77,,SKC,2.96,VWS V14.01,2013-01-14 22:03:00,
2013-01-14 17:04:00,46.2,44.8,27.28,NE,46,0.0,0.0,95,0.76,,SKC,2.96,VWS V14.01,2013-01-14 22:04:00,
2013-01-14 17:05:00,46.3,45.0,27.28,NE,46,0.0,0.0,95,0.76,,SKC,2.96,VWS V14.01,2013-01-14 22:05:00,
2013-01-14 17:06:00,46.3,45.0,27.28,NE,46,0.0,0.0,95,0.75,,SKC,2.96,VWS V14.01,2013-01-14 22:06:00,
2013-01-14 17:07:00,46.3,45.0,27.28,NE,46,0.0,0.0,95,0.75,,SKC,2.96,VWS V14.01,2013-01-14 22:07:00,
2013-01-14 17:08:00,46.3,45.0,27.28,NE,46,0.0,0.0,95,0.75,,SKC,2.97,VWS V14.01,2013-01-14 22:08:00,
2013-01-14 17:09:00,46.3,45.0,27.28,NE,46,0.0,0.0,95,0.75,,SKC,2.97,VWS V14.01,2013-01-14 22:09:00,
2013-01-14 17:10:00,46.3,45.0,27.28,NE,45,0.0,0.0,95,0.75,,SKC,2.97,VWS V14.01,2013-01-14 22:10:00,
2013-01-14 17:11:00,46.3,45.0,27.28,NE,46,0.0,0.0,95,0.74,,SKC,2.97,VWS V14.01,2013-01-14 22:11:00,
2013-01-14 17:12:00,46.4,45.0,27.28,NE,46,0.0,0.0,95,0.74,,SKC,2.97,VWS V14.01,2013-01-14 22:12:00,
2013-01-14 17:13:00,46.4,45.0,27.28,NE,46,0.0,0.0,95,0.75,,SKC,2.98,VWS V14.01,2013-01-14 22:13:00,
2013-01-14 17:14:00,46.4,45.0,27.28,NE,46,0.0,0.0,95,0.75,,SKC,2.98,VWS V14.01,2013-01-14 22:14:00,
2013-01-14 17:15:00,46.4,45.0,27.28,NE,46,0.0,0.0,95,0.74,,SKC,2.98,VWS V14.01,2013-01-14 22:15:00,
2013-01-14 17:16:00,46.4,45.0,27.28,NE,46,0.0,0.0,95,0.75,,SKC,2.99,VWS V14.01,2013-01-14 22:16:00,
2013-01-14 17:17:00,46.4,45.0,27.28,NE,46,0.0,0.0,95,0.75,,SKC,2.99,VWS V14.01,2013-01-14 22:17:00,
2013-01-14 17:18:00,46.4,45.0,27.28,NE,46,0.0,0.0,95,0.74,,SKC,2.99,VWS V14.01,2013-01-14 22:18:00,
2013-01-14 17:19:00,46.4,45.0,27.28,NE,46,0.0,0.0,95,0.74,,SKC,2.99,VWS V14.01,2013-01-14 22:19:00,
2013-01-14 17:20:00,46.4,45.0,27.28,NE,45,0.0,0.0,95,0.73,,SKC,2.99,VWS V14.01,2013-01-14 22:20:00,
2013-01-14 17:21:00,46.4,45.0,27.28,NE,46,0.0,0.0,95,0.74,,SKC,3.00,VWS V14.01,2013-01-14 22:21:00,
2013-01-14 17:22:00,46.4,45.0,27.28,NE,46,0.0,0.0,95,0.74,,SKC,3.00,VWS V14.01,2013-01-14 22:22:00,
2013-01-14 17:23:00,46.4,45.0,27.28,NE,46,0.0,0.0,95,0.73,,SKC,3.00,VWS V14.01,2013-01-14 22:23:00,
2013-01-14 17:24:00,46.4,45.0,27.28,NE,46,0.0,0.0,95,0.73,,SKC,3.00,VWS V14.01,2013-01-14 22:24:00,
2013-01-14 17:25:00,46.4,45.0,27.28,NE,45,0.0,0.0,95,0.73,,SKC,3.00,VWS V14.01,2013-01-14 22:25:00,
2013-01-14 17:26:00,46.4,45.0,27.28,NE,46,0.0,0.0,95,0.73,,SKC,3.00,VWS V14.01,2013-01-14 22:26:00,
2013-01-14 17:27:00,46.5,45.2,27.28,NE,46,0.0,0.0,95,0.73,,SKC,3.00,VWS V14.01,2013-01-14 22:27:00,
2013-01-14 17:28:00,46.4,45.0,27.28,NE,46,0.0,0.0,95,0.74,,SKC,3.01,VWS V14.01,2013-01-14 22:28:00,
2013-01-14 17:29:00,46.5,45.2,27.28,NE,46,0.0,0.0,95,0.73,,SKC,3.01,VWS V14.01,2013-01-14 22:29:00,
2013-01-14 17:30:00,46.5,45.2,27.28,NE,45,0.0,0.0,95,0.73,,SKC,3.01,VWS V14.01,2013-01-14 22:30:00,
2013-01-14 17:31:00,46.5,45.2,27.28,NE,46,0.0,0.0,95,0.74,,SKC,3.02,VWS V14.01,2013-01-14 22:31:00,
2013-01-14 17:32:00,46.5,45.2,27.28,NE,46,0.0,0.0,95,0.74,,SKC,3.02,VWS V14.01,2013-01-14 22:32:00,
2013-01-14 17:33:00,46.6,45.2,27.28,NE,46,0.0,0.0,95,0.74,,SKC,3.02,VWS V14.01,2013-01-14 22:33:00,
2013-01-14 17:34:00,46.6,45.2,27.28,NE,46,0.0,0.0,95,0.74,,SKC,3.03,VWS V14.01,2013-01-14 22:34:00,
2013-01-14 17:35:00,46.6,45.2,27.28,NE,46,0.0,0.0,95,0.74,,SKC,3.03,VWS V14.01,2013-01-14 22:35:00,
2013-01-14 17:36:00,46.6,45.2,27.28,NE,46,0.0,0.0,95,0.74,,SKC,3.03,VWS V14.01,2013-01-14 22:36:00,
2013-01-14 17:37:00,46.7,45.3,27.28,NE,45,0.0,0.0,95,0.74,,SKC,3.03,VWS V14.01,2013-01-14 22:37:00,
2013-01-14 17:38:00,46.7,45.3,27.28,NE,45,0.0,0.0,95,0.74,,SKC,3.04,VWS V14.01,2013-01-14 22:38:00,
2013-01-14 17:39:00,46.7,45.3,27.28,NE,46,0.0,0.0,95,0.75,,SKC,3.05,VWS V14.01,2013-01-14 22:39:00,
2013-01-14 17:40:00,46.7,45.3,27.28,NE,46,0.0,0.0,95,0.75,,SKC,3.05,VWS V14.01,2013-01-14 22:40:00,
2013-01-14 17:41:00,46.7,45.3,27.28,NE,46,0.0,0.0,95,0.75,,SKC,3.05,VWS V14.01,2013-01-14 22:41:00,
2013-01-14 17:42:00,46.7,45.3,27.28,NE,45,0.0,0.0,95,0.74,,SKC,3.05,VWS V14.01,2013-01-14 22:42:00,
2013-01-14 17:43:00,46.7,45.3,27.28,NE,45,0.0,0.0,95,0.75,,SKC,3.06,VWS V14.01,2013-01-14 22:43:00,
2013-01-14 17:44:00,46.7,45.3,27.28,NE,46,0.0,0.0,95,0.74,,SKC,3.06,VWS V14.01,2013-01-14 22:44:00,
2013-01-14 17:45:00,46.7,45.3,27.28,NE,45,0.0,0.0,95,0.74,,SKC,3.06,VWS V14.01,2013-01-14 22:45:00,
2013-01-14 17:46:00,46.7,45.3,27.28,NE,45,0.0,0.0,95,0.12,,SKC,3.07,VWS V14.01,2013-01-14 22:46:00,
2013-01-14 17:47:00,46.7,45.3,27.28,NE,45,0.0,0.0,95,0.11,,SKC,3.07,VWS V14.01,2013-01-14 22:47:00,
2013-01-14 17:48:00,46.7,45.3,27.28,NE,46,0.0,0.0,95,0.11,,SKC,3.07,VWS V14.01,2013-01-14 22:48:00,
2013-01-14 17:49:00,46.8,45.5,27.28,NE,46,0.0,0.0,95,0.12,,SKC,3.08,VWS V14.01,2013-01-14 22:49:00,
2013-01-14 17:50:00,46.7,45.3,27.28,NE,45,0.0,0.0,95,0.13,,SKC,3.09,VWS V14.01,2013-01-14 22:50:00,
2013-01-14 17:51:00,46.7,45.3,27.28,NE,46,0.0,0.0,95,0.13,,SKC,3.09,VWS V14.01,2013-01-14 22:51:00,
2013-01-14 17:52:00,46.7,45.3,27.28,NE,46,0.0,0.0,95,0.14,,SKC,3.10,VWS V14.01,2013-01-14 22:52:00,
2013-01-14 17:53:00,46.7,45.3,27.28,NE,46,0.0,0.0,95,0.14,,SKC,3.10,VWS V14.01,2013-01-14 22:53:00,
2013-01-14 17:54:00,46.7,45.3,27.28,NE,46,0.0,0.0,95,0.15,,SKC,3.11,VWS V14.01,2013-01-14 22:54:00,
2013-01-14 17:55:00,46.7,45.3,27.28,NE,45,0.0,0.0,95,0.16,,SKC,3.12,VWS V14.01,2013-01-14 22:55:00,
2013-01-14 17:56:00,46.8,45.5,27.28,NE,45,0.0,0.0,95,0.16,,SKC,3.12,VWS V14.01,2013-01-14 22:56:00,
2013-01-14 17:57:00,46.8,45.5,27.28,NE,46,0.0,0.0,95,0.17,,SKC,3.13,VWS V14.01,2013-01-14 22:57:00,
2013-01-14 17:58:00,46.8,45.5,27.28,NE,46,0.0,0.0,95,0.17,,SKC,3.13,VWS V14.01,2013-01-14 22:58:00,
2013-01-14 17:59:00,46.8,45.5,27.28,NE,45,0.0,0.0,95,0.18,,SKC,3.14,VWS V14.01,2013-01-14 22:59:00,
2013-01-14 18:00:00,46.8,45.5,27.28,NE,46,0.0,0.0,95,0.18,,SKC,3.14,VWS V14.01,2013-01-14 23:00:00,
2013-01-14 18:01:00,46.8,45.5,27.28,NE,45,0.0,0.0,95,0.19,,SKC,3.15,VWS V14.01,2013-01-14 23:01:00,
2013-01-14 18:02:00,46.9,45.5,27.28,NE,45,0.0,0.0,95,0.19,,SKC,3.15,VWS V14.01,2013-01-14 23:02:00,
2013-01-14 18:03:00,46.9,45.5,27.28,NE,46,0.0,0.0,95,0.19,,SKC,3.15,VWS V14.01,2013-01-14 23:03:00,
2013-01-14 18:04:00,46.9,45.5,27.28,NE,46,0.0,0.0,95,0.20,,SKC,3.16,VWS V14.01,2013-01-14 23:04:00,
2013-01-14 18:05:00,46.9,45.5,27.28,NE,46,0.0,0.0,95,0.20,,SKC,3.16,VWS V14.01,2013-01-14 23:05:00,
2013-01-14 18:06:00,46.9,45.5,27.28,NE,46,0.0,0.0,95,0.21,,SKC,3.17,VWS V14.01,2013-01-14 23:06:00,
2013-01-14 18:07:00,47.0,45.7,27.28,NE,46,0.0,0.0,95,0.21,,SKC,3.17,VWS V14.01,2013-01-14 23:07:00,
2013-01-14 18:08:00,47.0,45.7,27.28,NE,45,0.0,0.0,95,0.21,,SKC,3.17,VWS V14.01,2013-01-14 23:08:00,
2013-01-14 18:09:00,47.0,45.7,27.28,NE,45,0.0,0.0,95,0.21,,SKC,3.18,VWS V14.01,2013-01-14 23:09:00,
2013-01-14 18:10:00,47.0,45.7,27.28,NE,46,0.0,0.0,95,0.21,,SKC,3.18,VWS V14.01,2013-01-14 23:10:00,
2013-01-14 18:11:00,47.0,45.7,27.28,NE,46,0.0,0.0,95,0.21,,SKC,3.18,VWS V14.01,2013-01-14 23:11:00,
2013-01-14 18:12:00,47.0,45.7,27.28,NE,46,0.0,0.0,95,0.22,,SKC,3.19,VWS V14.01,2013-01-14 23:12:00,
2013-01-14 18:13:00,47.1,45.7,27.28,NE,46,0.0,0.0,95,0.22,,SKC,3.19,VWS V14.01,2013-01-14 23:13:00,
2013-01-14 18:14:00,47.1,45.7,27.28,NE,45,0.0,0.0,95,0.22,,SKC,3.20,VWS V14.01,2013-01-14 23:14:00,
2013-01-14 18:15:00,47.1,45.7,27.28,NE,46,0.0,0.0,95,0.22,,SKC,3.20,VWS V14.01,2013-01-14 23:15:00,
2013-01-14 18:16:00,47.1,45.7,27.28,NE,46,0.0,0.0,95,0.23,,SKC,3.21,VWS V14.01,2013-01-14 23:16:00,
2013-01-14 18:17:00,47.1,45.7,27.28,NE,45,0.0,0.0,95,0.22,,SKC,3.21,VWS V14.01,2013-01-14 23:17:00,
2013-01-14 18:18:00,47.2,45.8,27.28,NE,46,0.0,0.0,95,0.23,,SKC,3.22,VWS V14.01,2013-01-14 23:18:00,
2013-01-14 18:19:00,47.2,45.8,27.28,NE,45,0.0,0.0,95,0.23,,SKC,3.22,VWS V14.01,2013-01-14 23:19:00,
2013-01-14 18:20:00,47.2,45.8,27.28,NE,45,0.0,0.0,95,0.24,,SKC,3.23,VWS V14.01,2013-01-14 23:20:00,
2013-01-14 18:21:00,47.2,45.8,27.28,NE,45,0.0,0.0,95,0.23,,SKC,3.23,VWS V14.01,2013-01-14 23:21:00,
2013-01-14 18:22:00,47.2,45.8,27.28,NE,46,0.0,0.0,95,0.23,,SKC,3.23,VWS V14.01,2013-01-14 23:22:00,
2013-01-14 18:23:00,47.2,45.8,27.28,NE,45,0.0,0.0,95,0.24,,SKC,3.24,VWS V14.01,2013-01-14 23:23:00,
2013-01-14 18:24:00,47.2,45.8,27.28,NE,45,0.0,0.0,95,0.24,,SKC,3.24,VWS V14.01,2013-01-14 23:24:00,
2013-01-14 18:25:00,47.3,45.9,27.28,NE,46,0.0,0.0,95,0.24,,SKC,3.24,VWS V14.01,2013-01-14 23:25:00,
2013-01-14 18:26:00,47.3,45.9,27.28,NE,45,0.0,0.0,95,0.24,,SKC,3.24,VWS V14.01,2013-01-14 23:26:00,
2013-01-14 18:27:00,47.3,45.9,27.28,NE,46,0.0,0.0,95,0.25,,SKC,3.25,VWS V14.01,2013-01-14 23:27:00,
2013-01-14 18:28:00,47.3,45.9,27.28,NE,46,0.0,0.0,95,0.25,,SKC,3.25,VWS V14.01,2013-01-14 23:28:00,
2013-01-14 18:29:00,47.3,45.9,27.28,NE,46,0.0,0.0,95,0.24,,SKC,3.25,VWS V14.01,2013-01-14 23:29:00,
2013-01-14 18:30:00,47.3,45.9,27.28,NE,45,0.0,0.0,95,0.25,,SKC,3.26,VWS V14.01,2013-01-14 23:30:00,
2013-01-14 18:31:00,47.3,45.9,27.28,NE,46,0.0,0.0,95,0.25,,SKC,3.26,VWS V14.01,2013-01-14 23:31:00,
2013-01-14 18:32:00,47.3,45.9,27.28,NE,46,0.0,0.0,95,0.24,,SKC,3.26,VWS V14.01,2013-01-14 23:32:00,
2013-01-14 18:33:00,47.3,45.9,27.28,NE,45,0.0,0.0,95,0.25,,SKC,3.27,VWS V14.01,2013-01-14 23:33:00,
2013-01-14 18:34:00,47.3,45.9,27.28,NE,46,0.0,0.0,95,0.25,,SKC,3.27,VWS V14.01,2013-01-14 23:34:00,
2013-01-14 18:35:00,47.3,45.9,27.28,NE,46,0.0,0.0,95,0.24,,SKC,3.27,VWS V14.01,2013-01-14 23:35:00,
2013-01-14 18:36:00,47.3,45.9,27.28,NE,45,0.0,0.0,95,0.24,,SKC,3.27,VWS V14.01,2013-01-14 23:36:00,
2013-01-14 18:37:00,47.3,45.9,27.28,NE,45,0.0,0.0,95,0.24,,SKC,3.27,VWS V14.01,2013-01-14 23:37:00,
2013-01-14 18:38:00,47.3,45.9,27.28,NE,46,0.0,0.0,95,0.25,,SKC,3.28,VWS V14.01,2013-01-14 23:38:00,
2013-01-14 18:39:00,47.4,46.0,27.28,NE,46,0.0,0.0,95,0.24,,SKC,3.28,VWS V14.01,2013-01-14 23:39:00,
2013-01-14 18:40:00,47.4,46.0,27.28,NE,46,0.0,0.0,95,0.23,,SKC,3.28,VWS V14.01,2013-01-14 23:40:00,
2013-01-14 18:41:00,47.3,45.9,27.28,NE,46,0.0,0.0,95,0.23,,SKC,3.28,VWS V14.01,2013-01-14 23:41:00,
2013-01-14 18:42:00,47.3,45.9,27.28,NE,45,0.0,0.0,95,0.24,,SKC,3.29,VWS V14.01,2013-01-14 23:42:00,
2013-01-14 18:43:00,47.3,45.9,27.28,NE,46,0.0,0.0,95,0.24,,SKC,3.29,VWS V14.01,2013-01-14 23:43:00,
2013-01-14 18:44:00,47.3,45.9,27.28,NE,46,0.0,0.0,95,0.23,,SKC,3.29,VWS V14.01,2013-01-14 23:44:00,
2013-01-14 18:45:00,47.4,46.0,27.28,NE,46,0.0,0.0,95,0.24,,SKC,3.30,VWS V14.01,2013-01-14 23:45:00,
2013-01-14 18:46:00,47.4,46.0,27.28,NE,46,0.0,0.0,95,0.24,,SKC,3.30,VWS V14.01,2013-01-14 23:46:00,
2013-01-14 18:47:00,47.3,45.9,27.28,NE,45,0.0,0.0,95,0.23,,SKC,3.30,VWS V14.01,2013-01-14 23:47:00,
2013-01-14 18:48:00,47.4,46.0,27.28,NE,46,0.0,0.0,95,0.23,,SKC,3.30,VWS V14.01,2013-01-14 23:48:00,
2013-01-14 18:49:00,47.4,46.0,27.28,NE,46,0.0,0.0,95,0.23,,SKC,3.30,VWS V14.01,2013-01-14 23:49:00,
2013-01-14 18:50:00,47.4,46.0,27.28,NE,45,0.0,0.0,95,0.22,,SKC,3.30,VWS V14.01,2013-01-14 23:50:00,
2013-01-14 18:51:00,47.4,46.0,27.28,NE,46,0.0,0.0,95,0.21,,SKC,3.30,VWS V14.01,2013-01-14 23:51:00,
2013-01-14 18:52:00,47.4,46.0,27.28,NE,46,0.0,0.0,95,0.22,,SKC,3.31,VWS V14.01,2013-01-14 23:52:00,
2013-01-14 18:53:00,47.4,46.0,27.28,NE,45,0.0,0.0,95,0.21,,SKC,3.31,VWS V14.01,2013-01-14 23:53:00,
2013-01-14 18:54:00,47.4,46.0,27.28,NE,46,0.0,0.0,95,0.21,,SKC,3.31,VWS V14.01,2013-01-14 23:54:00,
2013-01-14 18:55:00,47.4,46.0,27.28,NE,46,0.0,0.0,95,0.20,,SKC,3.31,VWS V14.01,2013-01-14 23:55:00,
2013-01-14 18:56:00,47.4,46.0,27.28,NE,46,0.0,0.0,95,0.19,,SKC,3.31,VWS V14.01,2013-01-14 23:56:00,
2013-01-14 18:57:00,47.4,46.0,27.28,NE,46,0.0,0.0,95,0.19,,SKC,3.31,VWS V14.01,2013-01-14 23:57:00,
2013-01-14 18:58:00,47.4,46.0,27.28,NE,46,0.0,0.0,95,0.18,,SKC,3.31,VWS V14.01,2013-01-14 23:58:00,
2013-01-14 18:59:00,47.5,46.1,27.28,NE,46,0.0,0.0,95,0.18,,SKC,3.31,VWS V14.01,2013-01-14 23:59:00,
2013-01-14 19:00:00,47.5,46.1,27.28,NE,46,0.0,0.0,95,0.17,,SKC,3.31,VWS V14.01,2013-01-15 00:00:00,
2013-01-14 19:01:00,47.5,46.1,27.28,NE,46,0.0,0.0,95,0.17,,SKC,3.31,VWS V14.01,2013-01-15 00:01:00,
2013-01-14 19:02:00,47.5,46.1,27.28,NE,46,0.0,0.0,95,0.16,,SKC,3.31,VWS V14.01,2013-01-15 00:02:00,
2013-01-14 19:03:00,47.5,46.1,27.28,NE,46,0.0,0.0,95,0.16,,SKC,3.31,VWS V14.01,2013-01-15 00:03:00,
2013-01-14 19:04:00,47.6,46.2,27.28,NE,45,0.0,0.0,95,0.16,,SKC,3.31,VWS V14.01,2013-01-15 00:04:00,
2013-01-14 19:05:00,47.6,46.2,27.28,NE,45,0.0,0.0,95,0.15,,SKC,3.31,VWS V14.01,2013-01-15 00:05:00,
2013-01-14 19:06:00,47.6,46.2,27.28,NE,45,0.0,0.0,95,0.15,,SKC,3.31,VWS V14.01,2013-01-15 00:06:00,
2013-01-14 19:07:00,47.6,46.2,27.28,NE,45,0.0,0.0,95,0.14,,SKC,3.31,VWS V14.01,2013-01-15 00:07:00,
2013-01-14 19:08:00,47.6,46.2,27.28,NE,46,0.0,0.0,95,0.14,,SKC,3.31,VWS V14.01,2013-01-15 00:08:00,
2013-01-14 19:09:00,47.6,46.2,27.28,NE,45,0.0,0.0,95,0.14,,SKC,3.31,VWS V14.01,2013-01-15 00:09:00,
2013-01-14 19:10:00,47.7,46.3,27.28,NE,45,0.0,0.0,95,0.14,,SKC,3.32,VWS V14.01,2013-01-15 00:10:00,
2013-01-14 19:11:00,47.7,46.3,27.28,NE,46,0.0,0.0,95,0.14,,SKC,3.32,VWS V14.01,2013-01-15 00:11:00,
2013-01-14 19:12:00,47.7,46.3,27.28,NE,45,0.0,0.0,95,0.14,,SKC,3.32,VWS V14.01,2013-01-15 00:12:00,
2013-01-14 19:13:00,47.7,46.3,27.28,NE,46,0.0,0.0,95,0.13,,SKC,3.32,VWS V14.01,2013-01-15 00:13:00,
2013-01-14 19:14:00,47.8,46.4,27.28,NE,45,0.0,0.0,95,0.14,,SKC,3.33,VWS V14.01,2013-01-15 00:14:00,
2013-01-14 19:15:00,47.8,46.4,27.28,NE,46,0.0,0.0,95,0.13,,SKC,3.33,VWS V14.01,2013-01-15 00:15:00,
2013-01-14 19:16:00,47.8,46.4,27.28,NE,46,0.0,0.0,95,0.13,,SKC,3.33,VWS V14.01,2013-01-15 00:16:00,
2013-01-14 19:17:00,47.8,46.4,27.28,NE,45,0.0,0.0,95,0.13,,SKC,3.34,VWS V14.01,2013-01-15 00:17:00,
2013-01-14 19:18:00,47.8,46.4,27.28,NE,45,0.0,0.0,95,0.13,,SKC,3.34,VWS V14.01,2013-01-15 00:18:00,
2013-01-14 19:19:00,47.8,46.4,27.28,NE,46,0.0,1.0,95,0.13,,SKC,3.35,VWS V14.01,2013-01-15 00:19:00,
2013-01-14 19:20:00,47.9,46.5,27.28,NE,46,1.0,2.0,95,0.14,,SKC,3.36,VWS V14.01,2013-01-15 00:20:00,
2013-01-14 19:21:00,47.9,46.5,27.28,NE,46,0.0,2.0,95,0.13,,SKC,3.36,VWS V14.01,2013-01-15 00:21:00,
2013-01-14 19:22:00,47.9,46.5,27.28,NE,45,0.0,0.0,95,0.14,,SKC,3.37,VWS V14.01,2013-01-15 00:22:00,
2013-01-14 19:23:00,47.9,46.5,27.28,NE,45,0.0,0.0,95,0.14,,SKC,3.37,VWS V14.01,2013-01-15 00:23:00,
2013-01-14 19:24:00,47.9,46.5,27.28,NE,46,0.0,0.0,95,0.14,,SKC,3.38,VWS V14.01,2013-01-15 00:24:00,
2013-01-14 19:25:00,47.9,46.5,27.28,NE,46,0.0,0.0,95,0.15,,SKC,3.39,VWS V14.01,2013-01-15 00:25:00,
2013-01-14 19:26:00,47.9,46.5,27.28,NE,45,0.0,0.0,95,0.15,,SKC,3.39,VWS V14.01,2013-01-15 00:26:00,
2013-01-14 19:27:00,47.9,46.5,27.28,NE,46,0.0,0.0,95,0.14,,SKC,3.39,VWS V14.01,2013-01-15 00:27:00,
2013-01-14 19:28:00,48.0,46.6,27.28,NE,45,0.0,0.0,95,0.15,,SKC,3.40,VWS V14.01,2013-01-15 00:28:00,
2013-01-14 19:29:00,48.0,46.6,27.28,NE,46,0.0,0.0,95,0.15,,SKC,3.40,VWS V14.01,2013-01-15 00:29:00,
2013-01-14 19:30:00,48.0,46.6,27.28,NE,46,0.0,0.0,95,0.16,,SKC,3.41,VWS V14.01,2013-01-15 00:30:00,
2013-01-14 19:31:00,48.0,46.6,27.28,NE,46,0.0,0.0,95,0.15,,SKC,3.41,VWS V14.01,2013-01-15 00:31:00,
2013-01-14 19:32:00,48.0,46.6,27.28,NE,45,0.0,0.0,95,0.16,,SKC,3.42,VWS V14.01,2013-01-15 00:32:00,
2013-01-14 19:33:00,48.0,46.6,27.28,NE,45,0.0,1.0,95,0.16,,SKC,3.42,VWS V14.01,2013-01-15 00:33:00,
2013-01-14 19:34:00,48.0,46.6,27.28,NE,45,0.0,0.0,95,0.16,,SKC,3.43,VWS V14.01,2013-01-15 00:34:00,
2013-01-14 19:35:00,48.0,46.6,27.28,NE,45,0.0,0.0,95,0.16,,SKC,3.43,VWS V14.01,2013-01-15 00:35:00,
2013-01-14 19:36:00,48.1,46.7,27.28,NE,46,0.0,0.0,95,0.17,,SKC,3.44,VWS V14.01,2013-01-15 00:36:00,
2013-01-14 19:37:00,48.1,46.7,27.28,NE,46,0.0,0.0,95,0.17,,SKC,3.44,VWS V14.01,2013-01-15 00:37:00,
2013-01-14 19:38:00,48.1,46.7,27.28,NE,45,0.0,0.0,95,0.17,,SKC,3.44,VWS V14.01,2013-01-15 00:38:00,
2013-01-14 19:39:00,48.1,46.7,27.28,NE,46,0.0,0.0,95,0.17,,SKC,3.45,VWS V14.01,2013-01-15 00:39:00,
2013-01-14 19:40:00,48.1,46.7,27.28,NE,45,0.0,0.0,95,0.17,,SKC,3.45,VWS V14.01,2013-01-15 00:40:00,
2013-01-14 19:41:00,48.1,46.7,27.28,NE,45,0.0,0.0,95,0.17,,SKC,3.45,VWS V14.01,2013-01-15 00:41:00,
2013-01-14 19:42:00,48.1,46.7,27.28,NE,46,0.0,0.0,95,0.18,,SKC,3.46,VWS V14.01,2013-01-15 00:42:00,
2013-01-14 19:43:00,48.1,46.7,27.28,NE,45,0.0,0.0,95,0.18,,SKC,3.47,VWS V14.01,2013-01-15 00:43:00,
2013-01-14 19:44:00,48.1,46.7,27.28,NE,46,0.0,0.0,95,0.18,,SKC,3.47,VWS V14.01,2013-01-15 00:44:00,
2013-01-14 19:45:00,48.2,46.8,27.28,NE,46,0.0,0.0,95,0.19,,SKC,3.48,VWS V14.01,2013-01-15 00:45:00,
2013-01-14 19:46:00,48.2,46.8,27.28,NE,46,0.0,0.0,95,0.18,,SKC,3.48,VWS V14.01,2013-01-15 00:46:00,
2013-01-14 19:47:00,48.2,47.9,27.28,NE,46,0.0,0.0,99,0.19,,SKC,3.49,VWS V14.01,2013-01-15 00:47:00,
2013-01-14 19:48:00,48.2,46.8,27.28,NE,46,0.0,0.0,95,0.19,,SKC,3.49,VWS V14.01,2013-01-15 00:48:00,
2013-01-14 19:49:00,48.2,46.8,27.28,NE,45,0.0,1.0,95,0.19,,SKC,3.49,VWS V14.01,2013-01-15 00:49:00,
2013-01-14 19:50:00,48.3,46.9,27.28,NE,46,0.0,0.0,95,0.19,,SKC,3.49,VWS V14.01,2013-01-15 00:50:00,
2013-01-14 19:51:00,48.3,46.9,27.28,NE,46,0.0,0.0,95,0.20,,SKC,3.50,VWS V14.01,2013-01-15 00:51:00,
2013-01-14 19:52:00,48.3,46.9,27.28,NE,46,0.0,1.0,95,0.20,,SKC,3.50,VWS V14.01,2013-01-15 00:52:00,
2013-01-14 19:53:00,48.3,46.9,27.28,NE,46,0.0,0.0,95,0.19,,SKC,3.50,VWS V14.01,2013-01-15 00:53:00,
2013-01-14 19:54:00,48.3,46.9,27.28,NE,45,0.0,0.0,95,0.20,,SKC,3.51,VWS V14.01,2013-01-15 00:54:00,
2013-01-14 19:55:00,48.3,46.9,27.28,NE,45,0.0,0.0,95,0.20,,SKC,3.51,VWS V14.01,2013-01-15 00:55:00,
2013-01-14 19:56:00,48.4,47.0,27.28,NE,46,0.0,0.0,95,0.20,,SKC,3.51,VWS V14.01,2013-01-15 00:56:00,
2013-01-14 19:57:00,48.4,47.0,27.28,NE,45,0.0,0.0,95,0.20,,SKC,3.51,VWS V14.01,2013-01-15 00:57:00,
2013-01-14 19:58:00,48.4,47.0,27.28,NE,45,0.0,0.0,95,0.21,,SKC,3.52,VWS V14.01,2013-01-15 00:58:00,
2013-01-14 19:59:00,48.5,47.1,27.28,NE,46,0.0,0.0,95,0.21,,SKC,3.52,VWS V14.01,2013-01-15 00:59:00,
2013-01-14 20:00:00,48.4,47.0,27.28,NE,46,0.0,0.0,95,0.21,,SKC,3.52,VWS V14.01,2013-01-15 01:00:00,
2013-01-14 20:01:00,48.4,47.0,27.28,NE,46,0.0,0.0,95,0.21,,SKC,3.52,VWS V14.01,2013-01-15 01:01:00,
2013-01-14 20:02:00,48.5,47.1,27.28,NE,46,0.0,0.0,95,0.21,,SKC,3.52,VWS V14.01,2013-01-15 01:02:00,
2013-01-14 20:03:00,48.5,47.1,27.28,NE,46,0.0,0.0,95,0.22,,SKC,3.53,VWS V14.01,2013-01-15 01:03:00,
2013-01-14 20:04:00,48.5,47.1,27.28,NE,45,0.0,0.0,95,0.22,,SKC,3.53,VWS V14.01,2013-01-15 01:04:00,
2013-01-14 20:05:00,48.5,47.1,27.28,NE,46,0.0,0.0,95,0.22,,SKC,3.53,VWS V14.01,2013-01-15 01:05:00,
2013-01-14 20:06:00,48.5,47.1,27.28,NE,46,1.0,1.0,95,0.22,,SKC,3.53,VWS V14.01,2013-01-15 01:06:00,
2013-01-14 20:07:00,48.6,47.2,27.28,NE,46,0.0,1.0,95,0.22,,SKC,3.53,VWS V14.01,2013-01-15 01:07:00,
2013-01-14 20:08:00,48.6,47.2,27.28,NE,46,0.0,0.0,95,0.23,,SKC,3.54,VWS V14.01,2013-01-15 01:08:00,
2013-01-14 20:09:00,48.6,47.2,27.28,NE,46,0.0,1.0,95,0.23,,SKC,3.54,VWS V14.01,2013-01-15 01:09:00,
2013-01-14 20:10:00,48.7,47.3,27.28,NE,45,2.0,2.0,95,0.23,,SKC,3.54,VWS V14.01,2013-01-15 01:10:00,
2013-01-14 20:11:00,48.7,47.3,27.28,NE,45,0.0,2.0,95,0.22,,SKC,3.54,VWS V14.01,2013-01-15 01:11:00,
2013-01-14 20:12:00,48.8,47.4,27.28,NE,46,0.0,0.0,95,0.23,,SKC,3.55,VWS V14.01,2013-01-15 01:12:00,
2013-01-14 20:13:00,48.8,47.4,27.28,NE,46,0.0,0.0,95,0.23,,SKC,3.55,VWS V14.01,2013-01-15 01:13:00,
2013-01-14 20:14:00,48.8,47.4,27.28,NE,46,0.0,0.0,95,0.23,,SKC,3.55,VWS V14.01,2013-01-15 01:14:00,
2013-01-14 20:15:00,48.8,47.4,27.28,NE,45,0.0,0.0,95,0.22,,SKC,3.55,VWS V14.01,2013-01-15 01:15:00,
2013-01-14 20:16:00,48.8,47.4,27.28,NE,46,1.0,1.0,95,0.23,,SKC,3.56,VWS V14.01,2013-01-15 01:16:00,
2013-01-14 20:17:00,48.9,47.5,27.28,NE,45,0.0,1.0,95,0.22,,SKC,3.56,VWS V14.01,2013-01-15 01:17:00,
2013-01-14 20:18:00,48.9,47.5,27.28,NE,46,0.0,0.0,95,0.22,,SKC,3.56,VWS V14.01,2013-01-15 01:18:00,
2013-01-14 20:19:00,48.9,47.5,27.28,NE,46,0.0,0.0,95,0.22,,SKC,3.56,VWS V14.01,2013-01-15 01:19:00,
2013-01-14 20:20:00,48.9,47.5,27.28,NE,45,0.0,0.0,95,0.21,,SKC,3.56,VWS V14.01,2013-01-15 01:20:00,
2013-01-14 20:21:00,48.9,47.5,27.28,NE,46,0.0,0.0,95,0.21,,SKC,3.57,VWS V14.01,2013-01-15 01:21:00,
2013-01-14 20:22:00,49.0,47.6,27.28,NE,45,0.0,0.0,95,0.21,,SKC,3.57,VWS V14.01,2013-01-15 01:22:00,
2013-01-14 20:23:00,49.0,47.6,27.28,NE,46,0.0,0.0,95,0.20,,SKC,3.57,VWS V14.01,2013-01-15 01:23:00,
2013-01-14 20:24:00,49.0,47.6,27.28,NE,45,0.0,0.0,95,0.20,,SKC,3.57,VWS V14.01,2013-01-15 01:24:00,
2013-01-14 20:25:00,49.0,47.6,27.28,NE,45,0.0,0.0,95,0.19,,SKC,3.57,VWS V14.01,2013-01-15 01:25:00,
2013-01-14 20:26:00,49.0,47.6,27.28,NE,46,0.0,0.0,95,0.19,,SKC,3.58,VWS V14.01,2013-01-15 01:26:00,
2013-01-14 20:27:00,49.0,47.6,27.28,NE,46,0.0,0.0,95,0.19,,SKC,3.58,VWS V14.01,2013-01-15 01:27:00,
2013-01-14 20:28:00,49.1,47.7,27.28,NE,45,0.0,0.0,95,0.19,,SKC,3.58,VWS V14.01,2013-01-15 01:28:00,
2013-01-14 20:29:00,49.1,47.7,27.28,NE,45,0.0,0.0,95,0.18,,SKC,3.58,VWS V14.01,2013-01-15 01:29:00,
2013-01-14 20:30:00,49.1,47.7,27.28,NE,46,0.0,0.0,95,0.18,,SKC,3.58,VWS V14.01,2013-01-15 01:30:00,
2013-01-14 20:31:00,49.1,47.7,27.28,NE,46,0.0,0.0,95,0.17,,SKC,3.58,VWS V14.01,2013-01-15 01:31:00,
2013-01-14 20:32:00,49.2,47.8,27.28,NE,46,0.0,1.0,95,0.18,,SKC,3.59,VWS V14.01,2013-01-15 01:32:00,
2013-01-14 20:33:00,49.2,47.8,27.28,NE,45,1.0,2.0,95,0.17,,SKC,3.59,VWS V14.01,2013-01-15 01:33:00,
2013-01-14 20:34:00,49.1,47.7,27.28,NE,45,0.0,1.0,95,0.17,,SKC,3.59,VWS V14.01,2013-01-15 01:34:00,
2013-01-14 20:35:00,49.1,47.7,27.28,NE,45,0.0,0.0,95,0.16,,SKC,3.59,VWS V14.01,2013-01-15 01:35:00,
2013-01-14 20:36:00,49.2,47.8,27.28,NE,46,0.0,1.0,95,0.17,,SKC,3.60,VWS V14.01,2013-01-15 01:36:00,
2013-01-14 20:37:00,49.2,47.8,27.28,NE,45,0.0,0.0,95,0.16,,SKC,3.60,VWS V14.01,2013-01-15 01:37:00,
2013-01-14 20:38:00,49.2,47.8,27.28,NE,46,0.0,0.0,95,0.16,,SKC,3.60,VWS V14.01,2013-01-15 01:38:00,
2013-01-14 20:39:00,49.2,47.8,27.28,NE,46,0.0,0.0,95,0.16,,SKC,3.60,VWS V14.01,2013-01-15 01:39:00,
2013-01-14 20:40:00,49.2,47.8,27.28,NE,46,0.0,0.0,95,0.15,,SKC,3.60,VWS V14.01,2013-01-15 01:40:00,
2013-01-14 20:41:00,49.2,47.8,27.28,NE,46,0.0,0.0,95,0.16,,SKC,3.61,VWS V14.01,2013-01-15 01:41:00,
2013-01-14 20:42:00,49.3,47.9,27.28,NE,46,0.0,0.0,95,0.15,,SKC,3.61,VWS V14.01,2013-01-15 01:42:00,
2013-01-14 20:43:00,49.3,47.9,27.28,NE,45,0.0,1.0,95,0.15,,SKC,3.61,VWS V14.01,2013-01-15 01:43:00,
2013-01-14 20:44:00,49.4,48.0,27.28,NE,46,2.0,2.0,95,0.14,,SKC,3.61,VWS V14.01,2013-01-15 01:44:00,
2013-01-14 20:45:00,49.5,48.1,27.28,NE,46,1.0,2.0,95,0.14,,SKC,3.61,VWS V14.01,2013-01-15 01:45:00,
2013-01-14 20:46:00,49.5,48.1,27.28,NE,46,0.0,1.0,95,0.13,,SKC,3.61,VWS V14.01,2013-01-15 01:46:00,
2013-01-14 20:47:00,49.6,48.2,27.28,NE,46,0.0,0.0,95,0.13,,SKC,3.61,VWS V14.01,2013-01-15 01:47:00,
2013-01-14 20:48:00,49.6,48.2,27.28,NE,45,0.0,1.0,95,0.12,,SKC,3.61,VWS V14.01,2013-01-15 01:48:00,
2013-01-14 20:49:00,49.6,48.2,27.28,NE,45,0.0,1.0,95,0.12,,SKC,3.61,VWS V14.01,2013-01-15 01:49:00,
2013-01-14 20:50:00,49.7,48.3,27.28,NE,46,0.0,1.0,95,0.13,,SKC,3.62,VWS V14.01,2013-01-15 01:50:00,
2013-01-14 20:51:00,49.7,48.3,27.28,NE,46,0.0,0.0,95,0.13,,SKC,3.62,VWS V14.01,2013-01-15 01:51:00,
2013-01-14 20:52:00,49.8,48.4,27.28,NE,45,0.0,0.0,95,0.13,,SKC,3.63,VWS V14.01,2013-01-15 01:52:00,
2013-01-14 20:53:00,49.8,48.4,27.28,NE,46,0.0,0.0,95,0.13,,SKC,3.63,VWS V14.01,2013-01-15 01:53:00,
2013-01-14 20:54:00,49.8,48.4,27.28,NE,45,0.0,0.0,95,0.13,,SKC,3.63,VWS V14.01,2013-01-15 01:54:00,
2013-01-14 20:55:00,49.8,48.4,27.28,NE,45,0.0,0.0,95,0.12,,SKC,3.63,VWS V14.01,2013-01-15 01:55:00,
2013-01-14 20:56:00,49.9,48.5,27.28,NE,46,0.0,0.0,95,0.13,,SKC,3.64,VWS V14.01,2013-01-15 01:56:00,
2013-01-14 20:57:00,49.9,48.5,27.28,NE,46,0.0,0.0,95,0.13,,SKC,3.64,VWS V14.01,2013-01-15 01:57:00,
2013-01-14 20:58:00,49.9,48.5,27.28,NE,45,0.0,0.0,95,0.13,,SKC,3.64,VWS V14.01,2013-01-15 01:58:00,
2013-01-14 20:59:00,49.9,48.5,27.28,NE,46,0.0,0.0,95,0.12,,SKC,3.64,VWS V14.01,2013-01-15 01:59:00,
2013-01-14 21:00:00,49.9,48.5,27.28,NE,46,0.0,0.0,95,0.12,,SKC,3.64,VWS V14.01,2013-01-15 02:00:00,
2013-01-14 21:01:00,50.0,48.6,27.28,NE,46,0.0,0.0,95,0.12,,SKC,3.64,VWS V14.01,2013-01-15 02:01:00,
2013-01-14 21:02:00,50.0,48.6,27.28,NE,46,0.0,1.0,95,0.12,,SKC,3.64,VWS V14.01,2013-01-15 02:02:00,
2013-01-14 21:03:00,50.0,48.6,27.28,NE,46,0.0,1.0,95,0.12,,SKC,3.64,VWS V14.01,2013-01-15 02:03:00,
2013-01-14 21:04:00,50.0,48.6,27.28,NE,45,0.0,0.0,95,0.11,,SKC,3.64,VWS V14.01,2013-01-15 02:04:00,
2013-01-14 21:05:00,50.1,48.7,27.28,NE,46,0.0,0.0,95,0.12,,SKC,3.65,VWS V14.01,2013-01-15 02:05:00,
2013-01-14 21:06:00,50.1,48.7,27.28,NE,46,0.0,0.0,95,0.12,,SKC,3.65,VWS V14.01,2013-01-15 02:06:00,
2013-01-14 21:07:00,50.1,48.7,27.28,NE,46,0.0,0.0,95,0.12,,SKC,3.65,VWS V14.01,2013-01-15 02:07:00,
2013-01-14 21:08:00,50.1,48.7,27.28,NE,45,0.0,0.0,95,0.12,,SKC,3.65,VWS V14.01,2013-01-15 02:08:00,
2013-01-14 21:09:00,50.1,48.7,27.28,NE,46,0.0,0.0,95,0.11,,SKC,3.65,VWS V14.01,2013-01-15 02:09:00,
2013-01-14 21:10:00,50.1,48.7,27.28,NE,46,0.0,1.0,95,0.11,,SKC,3.65,VWS V14.01,2013-01-15 02:10:00,
2013-01-14 21:11:00,50.1,48.7,27.28,NE,46,0.0,0.0,95,0.11,,SKC,3.65,VWS V14.01,2013-01-15 02:11:00,
2013-01-14 21:12:00,50.2,48.8,27.28,NE,46,0.0,0.0,95,0.11,,SKC,3.65,VWS V14.01,2013-01-15 02:12:00,
2013-01-14 21:13:00,50.2,48.8,27.28,NE,46,0.0,0.0,95,0.10,,SKC,3.65,VWS V14.01,2013-01-15 02:13:00,
2013-01-14 21:14:00,50.2,48.8,27.28,NE,45,0.0,1.0,95,0.10,,SKC,3.65,VWS V14.01,2013-01-15 02:14:00,
2013-01-14 21:15:00,50.2,48.8,27.28,NE,45,0.0,1.0,95,0.11,,SKC,3.66,VWS V14.01,2013-01-15 02:15:00,
2013-01-14 21:16:00,50.2,48.8,27.28,NE,46,0.0,1.0,95,0.11,,SKC,3.66,VWS V14.01,2013-01-15 02:16:00,
2013-01-14 21:17:00,50.2,48.8,27.28,NE,46,0.0,0.0,95,0.10,,SKC,3.66,VWS V14.01,2013-01-15 02:17:00,
2013-01-14 21:18:00,50.3,48.9,27.28,NE,46,0.0,1.0,95,0.10,,SKC,3.66,VWS V14.01,2013-01-15 02:18:00,
2013-01-14 21:19:00,50.3,48.9,27.28,NE,45,0.0,0.0,95,0.11,,SKC,3.67,VWS V14.01,2013-01-15 02:19:00,
2013-01-14 21:20:00,50.3,48.9,27.28,NE,46,0.0,1.0,95,0.11,,SKC,3.67,VWS V14.01,2013-01-15 02:20:00,
2013-01-14 21:21:00,50.3,48.9,27.28,NE,45,0.0,1.0,95,0.11,,SKC,3.67,VWS V14.01,2013-01-15 02:21:00,
2013-01-14 21:22:00,50.3,48.9,27.28,NE,46,0.0,0.0,95,0.10,,SKC,3.67,VWS V14.01,2013-01-15 02:22:00,
2013-01-14 21:23:00,50.3,48.9,27.28,NE,46,0.0,0.0,95,0.10,,SKC,3.67,VWS V14.01,2013-01-15 02:23:00,
2013-01-14 21:24:00,50.3,48.9,27.28,NE,46,0.0,0.0,95,0.11,,SKC,3.68,VWS V14.01,2013-01-15 02:24:00,
2013-01-14 21:25:00,50.3,48.9,27.28,NE,46,0.0,0.0,95,0.11,,SKC,3.68,VWS V14.01,2013-01-15 02:25:00,
2013-01-14 21:26:00,50.4,49.0,27.28,NE,46,0.0,0.0,95,0.11,,SKC,3.68,VWS V14.01,2013-01-15 02:26:00,
2013-01-14 21:27:00,50.4,49.0,27.28,NE,46,0.0,0.0,95,0.10,,SKC,3.68,VWS V14.01,2013-01-15 02:27:00,
2013-01-14 21:28:00,50.4,49.0,27.28,NE,46,0.0,0.0,95,0.11,,SKC,3.69,VWS V14.01,2013-01-15 02:28:00,
2013-01-14 21:29:00,50.4,49.0,27.28,NE,46,0.0,0.0,95,0.11,,SKC,3.69,VWS V14.01,2013-01-15 02:29:00,
2013-01-14 21:30:00,50.4,49.0,27.28,NE,46,0.0,0.0,95,0.11,,SKC,3.69,VWS V14.01,2013-01-15 02:30:00,
2013-01-14 21:31:00,50.4,49.0,27.28,NE,45,0.0,0.0,95,0.11,,SKC,3.69,VWS V14.01,2013-01-15 02:31:00,
2013-01-14 21:32:00,50.4,49.0,27.28,NE,46,0.0,0.0,95,0.11,,SKC,3.69,VWS V14.01,2013-01-15 02:32:00,
2013-01-14 21:33:00,50.4,49.0,27.28,NE,45,0.0,0.0,95,0.11,,SKC,3.70,VWS V14.01,2013-01-15 02:33:00,
2013-01-14 21:34:00,50.4,49.0,27.28,NE,46,0.0,0.0,95,0.11,,SKC,3.70,VWS V14.01,2013-01-15 02:34:00,
2013-01-14 21:35:00,50.4,49.0,27.28,NE,46,0.0,0.0,95,0.11,,SKC,3.70,VWS V14.01,2013-01-15 02:35:00,
2013-01-14 21:36:00,50.4,49.0,27.28,NE,46,0.0,0.0,95,0.11,,SKC,3.70,VWS V14.01,2013-01-15 02:36:00,
2013-01-14 21:37:00,50.5,49.1,27.28,NE,45,0.0,0.0,95,0.10,,SKC,3.70,VWS V14.01,2013-01-15 02:37:00,
2013-01-14 21:38:00,50.5,49.1,27.28,NE,45,0.0,1.0,95,0.10,,SKC,3.70,VWS V14.01,2013-01-15 02:38:00,
2013-01-14 21:39:00,50.5,49.1,27.28,NE,46,0.0,0.0,95,0.10,,SKC,3.70,VWS V14.01,2013-01-15 02:39:00,
2013-01-14 21:40:00,50.5,49.1,27.28,NE,46,0.0,0.0,95,0.10,,SKC,3.70,VWS V14.01,2013-01-15 02:40:00,
2013-01-14 21:41:00,50.5,49.1,27.28,NE,46,0.0,0.0,95,0.10,,SKC,3.70,VWS V14.01,2013-01-15 02:41:00,
2013-01-14 21:42:00,50.5,49.1,27.28,NE,45,0.0,1.0,95,0.09,,SKC,3.70,VWS V14.01,2013-01-15 02:42:00,
2013-01-14 21:43:00,50.5,49.1,27.28,NE,45,0.0,1.0,95,0.09,,SKC,3.70,VWS V14.01,2013-01-15 02:43:00,
2013-01-14 21:44:00,50.5,49.1,27.28,NE,46,1.0,1.0,95,0.10,,SKC,3.71,VWS V14.01,2013-01-15 02:44:00,
2013-01-14 21:45:00,50.5,49.1,27.28,NE,45,0.0,1.0,95,0.10,,SKC,3.71,VWS V14.01,2013-01-15 02:45:00,
2013-01-14 21:46:00,50.5,49.1,27.28,NE,46,0.0,0.0,95,0.10,,SKC,3.71,VWS V14.01,2013-01-15 02:46:00,
2013-01-14 21:47:00,50.5,49.1,27.28,NE,46,0.0,0.0,95,0.10,,SKC,3.71,VWS V14.01,2013-01-15 02:47:00,
2013-01-14 21:48:00,50.5,49.1,27.28,NE,46,0.0,0.0,95,0.10,,SKC,3.71,VWS V14.01,2013-01-15 02:48:00,
2013-01-14 21:49:00,50.5,49.1,27.28,NE,45,0.0,0.0,95,0.10,,SKC,3.71,VWS V14.01,2013-01-15 02:49:00,
2013-01-14 21:50:00,50.6,49.2,27.28,NE,45,0.0,0.0,95,0.11,,SKC,3.72,VWS V14.01,2013-01-15 02:50:00,
2013-01-14 21:51:00,50.6,49.2,27.28,NE,46,0.0,0.0,95,0.10,,SKC,3.72,VWS V14.01,2013-01-15 02:51:00,
2013-01-14 21:52:00,50.6,49.2,27.28,NE,45,0.0,0.0,95,0.10,,SKC,3.72,VWS V14.01,2013-01-15 02:52:00,
2013-01-14 21:53:00,50.6,49.2,27.28,NE,46,0.0,0.0,95,0.09,,SKC,3.72,VWS V14.01,2013-01-15 02:53:00,
2013-01-14 21:54:00,50.6,49.2,27.28,NE,46,0.0,0.0,95,0.10,,SKC,3.73,VWS V14.01,2013-01-15 02:54:00,
2013-01-14 21:55:00,50.6,49.2,27.28,NE,46,0.0,0.0,95,0.10,,SKC,3.73,VWS V14.01,2013-01-15 02:55:00,
2013-01-14 21:56:00,50.7,49.3,27.28,NE,45,0.0,0.0,95,0.11,,SKC,3.74,VWS V14.01,2013-01-15 02:56:00,
2013-01-14 21:57:00,50.7,49.3,27.28,NE,46,0.0,0.0,95,0.11,,SKC,3.75,VWS V14.01,2013-01-15 02:57:00,
2013-01-14 21:58:00,50.7,49.3,27.28,NE,46,0.0,0.0,95,0.11,,SKC,3.75,VWS V14.01,2013-01-15 02:58:00,
2013-01-14 21:59:00,50.7,49.3,27.28,NE,46,0.0,0.0,95,0.12,,SKC,3.76,VWS V14.01,2013-01-15 02:59:00,
2013-01-14 22:00:00,50.8,49.4,27.28,NE,46,0.0,0.0,95,0.12,,SKC,3.76,VWS V14.01,2013-01-15 03:00:00,
2013-01-14 22:01:00,50.8,49.4,27.28,NE,45,0.0,0.0,95,0.13,,SKC,3.77,VWS V14.01,2013-01-15 03:01:00,
2013-01-14 22:02:00,50.8,49.4,27.28,NE,45,0.0,0.0,95,0.13,,SKC,3.77,VWS V14.01,2013-01-15 03:02:00,
2013-01-14 22:03:00,50.8,49.4,27.28,NE,46,0.0,0.0,95,0.13,,SKC,3.77,VWS V14.01,2013-01-15 03:03:00,
2013-01-14 22:04:00,50.8,49.4,27.28,NE,46,0.0,0.0,95,0.14,,SKC,3.78,VWS V14.01,2013-01-15 03:04:00,
2013-01-14 22:05:00,50.8,49.4,27.28,NE,46,0.0,0.0,95,0.14,,SKC,3.78,VWS V14.01,2013-01-15 03:05:00,
2013-01-14 22:06:00,50.8,49.4,27.28,NE,46,0.0,0.0,95,0.14,,SKC,3.79,VWS V14.01,2013-01-15 03:06:00,
2013-01-14 22:07:00,50.8,49.4,27.28,NE,45,0.0,0.0,95,0.14,,SKC,3.79,VWS V14.01,2013-01-15 03:07:00,
2013-01-14 22:08:00,50.9,49.5,27.28,NE,45,0.0,0.0,95,0.14,,SKC,3.79,VWS V14.01,2013-01-15 03:08:00,
2013-01-14 22:09:00,50.8,49.4,27.28,NE,45,0.0,0.0,95,0.15,,SKC,3.80,VWS V14.01,2013-01-15 03:09:00,
2013-01-14 22:10:00,50.9,49.5,27.28,NE,46,0.0,0.0,95,0.15,,SKC,3.80,VWS V14.01,2013-01-15 03:10:00,
2013-01-14 22:11:00,50.8,49.4,27.28,NE,46,0.0,0.0,95,0.16,,SKC,3.81,VWS V14.01,2013-01-15 03:11:00,
2013-01-14 22:12:00,50.9,49.5,27.28,NE,46,0.0,0.0,95,0.16,,SKC,3.81,VWS V14.01,2013-01-15 03:12:00,
2013-01-14 22:13:00,50.9,49.5,27.28,NE,45,0.0,0.0,95,0.16,,SKC,3.81,VWS V14.01,2013-01-15 03:13:00,
2013-01-14 22:14:00,50.9,49.5,27.28,NE,46,0.0,0.0,95,0.17,,SKC,3.82,VWS V14.01,2013-01-15 03:14:00,
2013-01-14 22:15:00,50.9,49.5,27.28,NE,46,0.0,1.0,95,0.16,,SKC,3.82,VWS V14.01,2013-01-15 03:15:00,
2013-01-14 22:16:00,50.9,49.5,27.28,NE,46,0.0,0.0,95,0.16,,SKC,3.82,VWS V14.01,2013-01-15 03:16:00,
2013-01-14 22:17:00,50.9,49.5,27.28,NE,46,0.0,0.0,95,0.17,,SKC,3.83,VWS V14.01,2013-01-15 03:17:00,
2013-01-14 22:18:00,50.9,49.5,27.28,NE,45,0.0,0.0,95,0.17,,SKC,3.83,VWS V14.01,2013-01-15 03:18:00,
2013-01-14 22:19:00,50.9,49.5,27.28,NE,45,0.0,1.0,95,0.17,,SKC,3.83,VWS V14.01,2013-01-15 03:19:00,
2013-01-14 22:20:00,51.0,49.6,27.28,NE,46,0.0,0.0,95,0.16,,SKC,3.83,VWS V14.01,2013-01-15 03:20:00,
2013-01-14 22:21:00,51.0,49.6,27.28,NE,46,0.0,0.0,95,0.17,,SKC,3.84,VWS V14.01,2013-01-15 03:21:00,
2013-01-14 22:22:00,50.9,49.5,27.28,NE,45,0.0,1.0,95,0.17,,SKC,3.84,VWS V14.01,2013-01-15 03:22:00,
2013-01-14 22:23:00,51.0,49.6,27.28,NE,46,3.0,3.0,95,0.17,,SKC,3.84,VWS V14.01,2013-01-15 03:23:00,
2013-01-14 22:24:00,51.0,49.6,27.28,NE,46,0.0,3.0,95,0.18,,SKC,3.85,VWS V14.01,2013-01-15 03:24:00,
2013-01-14 22:25:00,50.9,49.5,27.28,NE,45,0.0,1.0,95,0.17,,SKC,3.85,VWS V14.01,2013-01-15 03:25:00,
2013-01-14 22:26:00,50.9,49.5,27.28,NE,46,0.0,0.0,95,0.17,,SKC,3.85,VWS V14.01,2013-01-15 03:26:00,
2013-01-14 22:27:00,50.9,49.5,27.28,NE,45,2.0,2.0,95,0.18,,SKC,3.86,VWS V14.01,2013-01-15 03:27:00,
2013-01-14 22:28:00,50.9,49.5,27.28,NE,46,0.0,1.0,95,0.19,,SKC,3.87,VWS V14.01,2013-01-15 03:28:00,
2013-01-14 22:29:00,50.8,49.4,27.28,NE,46,0.0,0.0,95,0.18,,SKC,3.87,VWS V14.01,2013-01-15 03:29:00,
2013-01-14 22:30:00,50.8,49.4,27.28,NE,45,0.0,0.0,95,0.18,,SKC,3.87,VWS V14.01,2013-01-15 03:30:00,
2013-01-14 22:31:00,50.8,49.4,27.28,NE,45,0.0,0.0,95,0.19,,SKC,3.88,VWS V14.01,2013-01-15 03:31:00,
2013-01-14 22:32:00,50.8,49.4,27.28,NE,46,0.0,0.0,95,0.20,,SKC,3.89,VWS V14.01,2013-01-15 03:32:00,
2013-01-14 22:33:00,50.8,49.4,27.28,NE,46,0.0,0.0,95,0.20,,SKC,3.89,VWS V14.01,2013-01-15 03:33:00,
2013-01-14 22:34:00,50.8,49.4,27.28,NE,46,0.0,0.0,95,0.20,,SKC,3.90,VWS V14.01,2013-01-15 03:34:00,
2013-01-14 22:35:00,50.8,49.4,27.28,NE,46,0.0,0.0,95,0.20,,SKC,3.90,VWS V14.01,2013-01-15 03:35:00,
2013-01-14 22:36:00,50.8,49.4,27.28,NE,46,0.0,0.0,95,0.21,,SKC,3.91,VWS V14.01,2013-01-15 03:36:00,
2013-01-14 22:37:00,50.8,49.4,27.28,NE,45,0.0,0.0,95,0.21,,SKC,3.91,VWS V14.01,2013-01-15 03:37:00,
2013-01-14 22:38:00,50.7,49.3,27.28,NE,46,0.0,1.0,95,0.21,,SKC,3.91,VWS V14.01,2013-01-15 03:38:00,
2013-01-14 22:39:00,50.7,49.3,27.28,NE,45,1.0,1.0,95,0.22,,SKC,3.92,VWS V14.01,2013-01-15 03:39:00,
2013-01-14 22:40:00,50.7,49.3,27.28,NE,46,0.0,1.0,95,0.22,,SKC,3.92,VWS V14.01,2013-01-15 03:40:00,
2013-01-14 22:41:00,50.7,49.3,27.28,NE,46,0.0,1.0,95,0.22,,SKC,3.92,VWS V14.01,2013-01-15 03:41:00,
2013-01-14 22:42:00,50.7,49.3,27.28,NE,45,0.0,0.0,95,0.23,,SKC,3.93,VWS V14.01,2013-01-15 03:42:00,
2013-01-14 22:43:00,50.6,49.2,27.28,NE,46,0.0,0.0,95,0.23,,SKC,3.93,VWS V14.01,2013-01-15 03:43:00,
2013-01-14 22:44:00,50.6,49.2,27.28,NE,46,0.0,1.0,95,0.23,,SKC,3.93,VWS V14.01,2013-01-15 03:44:00,
2013-01-14 22:45:00,50.6,49.2,27.28,NE,46,0.0,0.0,95,0.22,,SKC,3.93,VWS V14.01,2013-01-15 03:45:00,
2013-01-14 22:46:00,50.6,49.2,27.28,NE,46,0.0,1.0,95,0.22,,SKC,3.93,VWS V14.01,2013-01-15 03:46:00,
2013-01-14 22:47:00,50.6,49.2,27.28,NE,45,0.0,0.0,95,0.22,,SKC,3.93,VWS V14.01,2013-01-15 03:47:00,
2013-01-14 22:48:00,50.6,49.2,27.28,NE,46,0.0,0.0,95,0.22,,SKC,3.93,VWS V14.01,2013-01-15 03:48:00,
2013-01-14 22:49:00,50.6,49.2,27.28,NE,45,0.0,0.0,95,0.22,,SKC,3.93,VWS V14.01,2013-01-15 03:49:00,
2013-01-14 22:50:00,50.6,49.2,27.28,NE,45,0.0,0.0,95,0.23,,SKC,3.94,VWS V14.01,2013-01-15 03:50:00,
2013-01-14 22:51:00,50.6,49.2,27.28,NE,46,0.0,0.0,95,0.22,,SKC,3.94,VWS V14.01,2013-01-15 03:51:00,
2013-01-14 22:52:00,50.6,49.2,27.28,NE,45,0.0,0.0,95,0.22,,SKC,3.94,VWS V14.01,2013-01-15 03:52:00,
2013-01-14 22:53:00,50.6,49.2,27.28,NE,45,0.0,0.0,95,0.22,,SKC,3.94,VWS V14.01,2013-01-15 03:53:00,
2013-01-14 22:54:00,50.6,49.2,27.28,NE,46,0.0,0.0,95,0.22,,SKC,3.94,VWS V14.01,2013-01-15 03:54:00,
2013-01-14 22:55:00,50.6,49.2,27.28,NE,46,0.0,0.0,95,0.21,,SKC,3.94,VWS V14.01,2013-01-15 03:55:00,
2013-01-14 22:56:00,50.6,49.2,27.28,NE,46,0.0,0.0,95,0.21,,SKC,3.94,VWS V14.01,2013-01-15 03:56:00,
2013-01-14 22:57:00,50.6,49.2,27.28,NE,46,0.0,0.0,95,0.20,,SKC,3.94,VWS V14.01,2013-01-15 03:57:00,
2013-01-14 22:58:00,50.6,49.2,27.28,NE,46,0.0,0.0,95,0.19,,SKC,3.94,VWS V14.01,2013-01-15 03:58:00,
2013-01-14 22:59:00,50.6,49.2,27.28,NE,46,0.0,0.0,95,0.19,,SKC,3.94,VWS V14.01,2013-01-15 03:59:00,
2013-01-14 23:00:00,50.6,49.2,27.28,NE,45,0.0,0.0,95,0.18,,SKC,3.94,VWS V14.01,2013-01-15 04:00:00,
2013-01-14 23:01:00,50.6,49.2,27.28,NE,45,0.0,0.0,95,0.18,,SKC,3.94,VWS V14.01,2013-01-15 04:01:00,
2013-01-14 23:02:00,50.6,49.2,27.28,NE,46,0.0,0.0,95,0.18,,SKC,3.95,VWS V14.01,2013-01-15 04:02:00,
2013-01-14 23:03:00,50.7,49.3,27.28,NE,46,0.0,0.0,95,0.18,,SKC,3.95,VWS V14.01,2013-01-15 04:03:00,
2013-01-14 23:04:00,50.7,49.3,27.28,NE,46,0.0,0.0,95,0.19,,SKC,3.96,VWS V14.01,2013-01-15 04:04:00,
2013-01-14 23:05:00,50.7,49.3,27.28,NE,45,0.0,0.0,95,0.18,,SKC,3.96,VWS V14.01,2013-01-15 04:05:00,
2013-01-14 23:06:00,50.7,49.3,27.28,NE,46,0.0,1.0,95,0.18,,SKC,3.96,VWS V14.01,2013-01-15 04:06:00,
2013-01-14 23:07:00,50.7,49.3,27.28,NE,45,0.0,1.0,95,0.18,,SKC,3.97,VWS V14.01,2013-01-15 04:07:00,
2013-01-14 23:08:00,50.7,49.3,27.28,NE,46,0.0,1.0,95,0.18,,SKC,3.97,VWS V14.01,2013-01-15 04:08:00,
2013-01-14 23:09:00,50.7,49.3,27.28,NE,46,0.0,0.0,95,0.18,,SKC,3.97,VWS V14.01,2013-01-15 04:09:00,
2013-01-14 23:10:00,50.6,49.2,27.28,NE,46,0.0,0.0,95,0.17,,SKC,3.97,VWS V14.01,2013-01-15 04:10:00,
2013-01-14 23:11:00,50.7,49.3,27.28,NE,45,0.0,0.0,95,0.17,,SKC,3.97,VWS V14.01,2013-01-15 04:11:00,
2013-01-14 23:12:00,50.7,49.3,27.28,NE,45,0.0,0.0,95,0.16,,SKC,3.97,VWS V14.01,2013-01-15 04:12:00,
2013-01-14 23:13:00,50.7,49.3,27.28,NE,46,0.0,0.0,95,0.17,,SKC,3.98,VWS V14.01,2013-01-15 04:13:00,
2013-01-14 23:14:00,50.7,49.3,27.28,NE,45,0.0,0.0,95,0.17,,SKC,3.98,VWS V14.01,2013-01-15 04:14:00,
2013-01-14 23:15:00,50.7,49.3,27.28,NE,45,0.0,0.0,95,0.16,,SKC,3.98,VWS V14.01,2013-01-15 04:15:00,
2013-01-14 23:16:00,50.7,49.3,27.28,NE,46,0.0,0.0,95,0.16,,SKC,3.98,VWS V14.01,2013-01-15 04:16:00,
2013-01-14 23:17:00,50.7,49.3,27.28,NE,45,0.0,0.0,95,0.16,,SKC,3.98,VWS V14.01,2013-01-15 04:17:00,
2013-01-14 23:18:00,50.7,49.3,27.28,NE,45,0.0,0.0,95,0.16,,SKC,3.99,VWS V14.01,2013-01-15 04:18:00,
2013-01-14 23:19:00,50.8,49.4,27.28,NE,46,0.0,0.0,95,0.16,,SKC,3.99,VWS V14.01,2013-01-15 04:19:00,
2013-01-14 23:20:00,50.8,49.4,27.28,NE,46,0.0,0.0,95,0.16,,SKC,3.99,VWS V14.01,2013-01-15 04:20:00,
2013-01-14 23:21:00,50.8,49.4,27.28,NE,46,0.0,0.0,95,0.16,,SKC,3.99,VWS V14.01,2013-01-15 04:21:00,
2013-01-14 23:22:00,50.8,49.4,27.28,NE,46,0.0,0.0,95,0.15,,SKC,3.99,VWS V14.01,2013-01-15 04:22:00,
2013-01-14 23:23:00,50.9,49.5,27.28,NE,46,0.0,0.0,95,0.15,,SKC,3.99,VWS V14.01,2013-01-15 04:23:00,
2013-01-14 23:24:00,50.8,49.4,27.28,NE,46,0.0,0.0,95,0.15,,SKC,3.99,VWS V14.01,2013-01-15 04:24:00,
2013-01-14 23:25:00,50.9,49.5,27.28,NE,46,0.0,0.0,95,0.14,,SKC,3.99,VWS V14.01,2013-01-15 04:25:00,
2013-01-14 23:26:00,50.9,49.5,27.28,NE,46,0.0,0.0,95,0.14,,SKC,3.99,VWS V14.01,2013-01-15 04:26:00,
2013-01-14 23:27:00,50.9,49.5,27.28,NE,46,0.0,0.0,95,0.14,,SKC,3.99,VWS V14.01,2013-01-15 04:27:00,
2013-01-14 23:28:00,50.9,49.5,27.28,NE,46,0.0,0.0,95,0.13,,SKC,3.99,VWS V14.01,2013-01-15 04:28:00,
2013-01-14 23:29:00,51.0,49.6,27.28,NE,46,0.0,0.0,95,0.12,,SKC,3.99,VWS V14.01,2013-01-15 04:29:00,
2013-01-14 23:30:00,51.0,49.6,27.28,NE,46,0.0,0.0,95,0.12,,SKC,3.99,VWS V14.01,2013-01-15 04:30:00,
2013-01-14 23:31:00,51.0,49.6,27.28,NE,45,0.0,0.0,95,0.12,,SKC,3.99,VWS V14.01,2013-01-15 04:31:00,
2013-01-14 23:32:00,51.0,49.6,27.28,NE,46,0.0,0.0,95,0.12,,SKC,4.00,VWS V14.01,2013-01-15 04:32:00,
2013-01-14 23:33:00,51.0,49.6,27.28,NE,46,0.0,0.0,95,0.11,,SKC,4.00,VWS V14.01,2013-01-15 04:33:00,
2013-01-14 23:34:00,51.0,49.6,27.28,NE,45,0.0,0.0,95,0.11,,SKC,4.00,VWS V14.01,2013-01-15 04:34:00,
2013-01-14 23:35:00,51.0,49.6,27.28,NE,45,0.0,0.0,95,0.11,,SKC,4.01,VWS V14.01,2013-01-15 04:35:00,
2013-01-14 23:36:00,51.0,49.6,27.28,NE,46,0.0,1.0,95,0.11,,SKC,4.01,VWS V14.01,2013-01-15 04:36:00,
2013-01-14 23:37:00,51.0,49.6,27.28,NE,46,0.0,0.0,95,0.11,,SKC,4.02,VWS V14.01,2013-01-15 04:37:00,
2013-01-14 23:38:00,51.0,49.6,27.28,NE,46,0.0,0.0,95,0.11,,SKC,4.02,VWS V14.01,2013-01-15 04:38:00,
2013-01-14 23:39:00,51.0,49.6,27.28,NE,45,0.0,0.0,95,0.11,,SKC,4.02,VWS V14.01,2013-01-15 04:39:00,
2013-01-14 23:40:00,50.9,49.5,27.28,NE,45,0.0,1.0,95,0.11,,SKC,4.03,VWS V14.01,2013-01-15 04:40:00,
2013-01-14 23:41:00,50.9,49.5,27.28,NE,46,0.0,0.0,95,0.11,,SKC,4.03,VWS V14.01,2013-01-15 04:41:00,
2013-01-14 23:42:00,50.9,49.5,27.28,NE,46,0.0,1.0,95,0.11,,SKC,4.03,VWS V14.01,2013-01-15 04:42:00,
2013-01-14 23:43:00,50.9,49.5,27.28,NE,46,0.0,0.0,95,0.10,,SKC,4.03,VWS V14.01,2013-01-15 04:43:00,
2013-01-14 23:44:00,50.9,49.5,27.28,NE,46,0.0,0.0,95,0.10,,SKC,4.03,VWS V14.01,2013-01-15 04:44:00,
2013-01-14 23:45:00,50.9,49.5,27.28,NE,46,0.0,0.0,95,0.11,,SKC,4.04,VWS V14.01,2013-01-15 04:45:00,
2013-01-14 23:46:00,50.9,49.5,27.28,NE,46,0.0,0.0,95,0.11,,SKC,4.04,VWS V14.01,2013-01-15 04:46:00,
2013-01-14 23:47:00,50.9,49.5,27.28,NE,45,0.0,0.0,95,0.11,,SKC,4.04,VWS V14.01,2013-01-15 04:47:00,
2013-01-14 23:48:00,50.9,49.5,27.28,NE,46,0.0,0.0,95,0.11,,SKC,4.04,VWS V14.01,2013-01-15 04:48:00,
2013-01-14 23:49:00,50.9,49.5,27.28,NE,46,0.0,0.0,95,0.12,,SKC,4.05,VWS V14.01,2013-01-15 04:49:00,
2013-01-14 23:50:00,51.0,49.6,27.28,NE,46,0.0,0.0,95,0.12,,SKC,4.05,VWS V14.01,2013-01-15 04:50:00,
2013-01-14 23:51:00,51.0,49.6,27.28,NE,46,0.0,0.0,95,0.11,,SKC,4.05,VWS V14.01,2013-01-15 04:51:00,
2013-01-14 23:52:00,51.0,49.6,27.28,NE,46,0.0,0.0,95,0.12,,SKC,4.06,VWS V14.01,2013-01-15 04:52:00,
2013-01-14 23:53:00,51.0,49.6,27.28,NE,46,0.0,0.0,95,0.13,,SKC,4.07,VWS V14.01,2013-01-15 04:53:00,
2013-01-14 23:54:00,51.0,49.6,27.28,NE,46,0.0,0.0,95,0.13,,SKC,4.07,VWS V14.01,2013-01-15 04:54:00,
2013-01-14 23:55:00,51.0,49.6,27.28,NE,46,0.0,0.0,95,0.13,,SKC,4.07,VWS V14.01,2013-01-15 04:55:00,
2013-01-14 23:56:00,51.1,49.7,27.28,NE,45,0.0,0.0,95,0.14,,SKC,4.08,VWS V14.01,2013-01-15 04:56:00,
2013-01-14 23:57:00,51.1,49.7,27.28,NE,46,0.0,0.0,95,0.14,,SKC,4.08,VWS V14.01,2013-01-15 04:57:00,
2013-01-14 23:58:00,51.1,49.7,27.28,NE,46,0.0,0.0,95,0.14,,SKC,4.08,VWS V14.01,2013-01-15 04:58:00,
2013-01-14 23:59:00,51.1,49.7,27.28,NE,46,0.0,0.0,95,0.15,,SKC,4.09,VWS V14.01,2013-01-15 04:59:00,